<?xml version="1.0" encoding="UTF-8" ?>
<gpx xmlns="http://www.topografix.com/GPX/1/1" version="1.1" creator="RouteGadget GPS Tracking" xmlns:xsi="http://www.w3.org/2001/XMLSchema-instance" xmlns:tp1="http://www.garmin.com/xmlschemas/TrackPointExtension/v1" xsi:schemaLocation="http://www.topografix.com/GPX/1/1 http://www.topografix.com/GPX/1/1/gpx.xsd http://www.garmin.com/xmlschemas/TrackPointExtension/v1 http://www.garmin.com/xmlschemas/TrackPointExtensionv1.xsd">
<trk>
<trkseg><trkpt lat="45.99544" lon="11.189556">
<time>2020-09-27T13:28:07Z</time>
</trkpt>
<trkpt lat="45.99544" lon="11.189556">
<time>2020-09-27T13:28:08Z</time>
</trkpt>
<trkpt lat="45.995415" lon="11.189515">
<time>2020-09-27T13:28:09Z</time>
</trkpt>
<trkpt lat="45.995468" lon="11.189915">
<time>2020-09-27T13:28:10Z</time>
</trkpt>
<trkpt lat="45.995545" lon="11.190016">
<time>2020-09-27T13:28:11Z</time>
</trkpt>
<trkpt lat="45.995608" lon="11.19">
<time>2020-09-27T13:28:12Z</time>
</trkpt>
<trkpt lat="45.995668" lon="11.18993">
<time>2020-09-27T13:28:13Z</time>
</trkpt>
<trkpt lat="45.995676" lon="11.189833">
<time>2020-09-27T13:28:14Z</time>
</trkpt>
<trkpt lat="45.995663" lon="11.189745">
<time>2020-09-27T13:28:15Z</time>
</trkpt>
<trkpt lat="45.995656" lon="11.189676">
<time>2020-09-27T13:28:16Z</time>
</trkpt>
<trkpt lat="45.99564" lon="11.189616">
<time>2020-09-27T13:28:17Z</time>
</trkpt>
<trkpt lat="45.99562" lon="11.189565">
<time>2020-09-27T13:28:18Z</time>
</trkpt>
<trkpt lat="45.995596" lon="11.189511">
<time>2020-09-27T13:28:19Z</time>
</trkpt>
<trkpt lat="45.995583" lon="11.189468">
<time>2020-09-27T13:28:20Z</time>
</trkpt>
<trkpt lat="45.99557" lon="11.18942">
<time>2020-09-27T13:28:21Z</time>
</trkpt>
<trkpt lat="45.99556" lon="11.18938">
<time>2020-09-27T13:28:22Z</time>
</trkpt>
<trkpt lat="45.99556" lon="11.189358">
<time>2020-09-27T13:28:23Z</time>
</trkpt>
<trkpt lat="45.99556" lon="11.189341">
<time>2020-09-27T13:28:24Z</time>
</trkpt>
<trkpt lat="45.99556" lon="11.189323">
<time>2020-09-27T13:28:25Z</time>
</trkpt>
<trkpt lat="45.995556" lon="11.189301">
<time>2020-09-27T13:28:26Z</time>
</trkpt>
<trkpt lat="45.995553" lon="11.189281">
<time>2020-09-27T13:28:27Z</time>
</trkpt>
<trkpt lat="45.995551" lon="11.189261">
<time>2020-09-27T13:28:28Z</time>
</trkpt>
<trkpt lat="45.995546" lon="11.189236">
<time>2020-09-27T13:28:29Z</time>
</trkpt>
<trkpt lat="45.995526" lon="11.189191">
<time>2020-09-27T13:28:30Z</time>
</trkpt>
<trkpt lat="45.99552" lon="11.189145">
<time>2020-09-27T13:28:31Z</time>
</trkpt>
<trkpt lat="45.99552" lon="11.189081">
<time>2020-09-27T13:28:32Z</time>
</trkpt>
<trkpt lat="45.995518" lon="11.18904">
<time>2020-09-27T13:28:33Z</time>
</trkpt>
<trkpt lat="45.995528" lon="11.188996">
<time>2020-09-27T13:28:34Z</time>
</trkpt>
<trkpt lat="45.995533" lon="11.188948">
<time>2020-09-27T13:28:35Z</time>
</trkpt>
<trkpt lat="45.995536" lon="11.1889">
<time>2020-09-27T13:28:36Z</time>
</trkpt>
<trkpt lat="45.995538" lon="11.188865">
<time>2020-09-27T13:28:37Z</time>
</trkpt>
<trkpt lat="45.995541" lon="11.188828">
<time>2020-09-27T13:28:38Z</time>
</trkpt>
<trkpt lat="45.995545" lon="11.18879">
<time>2020-09-27T13:28:39Z</time>
</trkpt>
<trkpt lat="45.995548" lon="11.188751">
<time>2020-09-27T13:28:40Z</time>
</trkpt>
<trkpt lat="45.995555" lon="11.188713">
<time>2020-09-27T13:28:41Z</time>
</trkpt>
<trkpt lat="45.995566" lon="11.188693">
<time>2020-09-27T13:28:42Z</time>
</trkpt>
<trkpt lat="45.995576" lon="11.188671">
<time>2020-09-27T13:28:43Z</time>
</trkpt>
<trkpt lat="45.99559" lon="11.188648">
<time>2020-09-27T13:28:44Z</time>
</trkpt>
<trkpt lat="45.995598" lon="11.188631">
<time>2020-09-27T13:28:45Z</time>
</trkpt>
<trkpt lat="45.995603" lon="11.188616">
<time>2020-09-27T13:28:46Z</time>
</trkpt>
<trkpt lat="45.995603" lon="11.188601">
<time>2020-09-27T13:28:47Z</time>
</trkpt>
<trkpt lat="45.995595" lon="11.188581">
<time>2020-09-27T13:28:48Z</time>
</trkpt>
<trkpt lat="45.995588" lon="11.188558">
<time>2020-09-27T13:28:49Z</time>
</trkpt>
<trkpt lat="45.995575" lon="11.188533">
<time>2020-09-27T13:28:50Z</time>
</trkpt>
<trkpt lat="45.995551" lon="11.188491">
<time>2020-09-27T13:28:51Z</time>
</trkpt>
<trkpt lat="45.995533" lon="11.188456">
<time>2020-09-27T13:28:52Z</time>
</trkpt>
<trkpt lat="45.995515" lon="11.188428">
<time>2020-09-27T13:28:53Z</time>
</trkpt>
<trkpt lat="45.995496" lon="11.188395">
<time>2020-09-27T13:28:54Z</time>
</trkpt>
<trkpt lat="45.995478" lon="11.188365">
<time>2020-09-27T13:28:55Z</time>
</trkpt>
<trkpt lat="45.995465" lon="11.188341">
<time>2020-09-27T13:28:56Z</time>
</trkpt>
<trkpt lat="45.995456" lon="11.188316">
<time>2020-09-27T13:28:57Z</time>
</trkpt>
<trkpt lat="45.995453" lon="11.18828">
<time>2020-09-27T13:28:58Z</time>
</trkpt>
<trkpt lat="45.99545" lon="11.188251">
<time>2020-09-27T13:28:59Z</time>
</trkpt>
<trkpt lat="45.995441" lon="11.188215">
<time>2020-09-27T13:29:00Z</time>
</trkpt>
<trkpt lat="45.995438" lon="11.188185">
<time>2020-09-27T13:29:01Z</time>
</trkpt>
<trkpt lat="45.995435" lon="11.18816">
<time>2020-09-27T13:29:02Z</time>
</trkpt>
<trkpt lat="45.99543" lon="11.188131">
<time>2020-09-27T13:29:03Z</time>
</trkpt>
<trkpt lat="45.995415" lon="11.188101">
<time>2020-09-27T13:29:04Z</time>
</trkpt>
<trkpt lat="45.995405" lon="11.188073">
<time>2020-09-27T13:29:05Z</time>
</trkpt>
<trkpt lat="45.995395" lon="11.188041">
<time>2020-09-27T13:29:06Z</time>
</trkpt>
<trkpt lat="45.995385" lon="11.188011">
<time>2020-09-27T13:29:07Z</time>
</trkpt>
<trkpt lat="45.995373" lon="11.18798">
<time>2020-09-27T13:29:08Z</time>
</trkpt>
<trkpt lat="45.995358" lon="11.187948">
<time>2020-09-27T13:29:09Z</time>
</trkpt>
<trkpt lat="45.995345" lon="11.187918">
<time>2020-09-27T13:29:10Z</time>
</trkpt>
<trkpt lat="45.995326" lon="11.187883">
<time>2020-09-27T13:29:11Z</time>
</trkpt>
<trkpt lat="45.995311" lon="11.187851">
<time>2020-09-27T13:29:12Z</time>
</trkpt>
<trkpt lat="45.995293" lon="11.187823">
<time>2020-09-27T13:29:13Z</time>
</trkpt>
<trkpt lat="45.995285" lon="11.187796">
<time>2020-09-27T13:29:14Z</time>
</trkpt>
<trkpt lat="45.995275" lon="11.187771">
<time>2020-09-27T13:29:15Z</time>
</trkpt>
<trkpt lat="45.995265" lon="11.187746">
<time>2020-09-27T13:29:16Z</time>
</trkpt>
<trkpt lat="45.995253" lon="11.187721">
<time>2020-09-27T13:29:17Z</time>
</trkpt>
<trkpt lat="45.995241" lon="11.187693">
<time>2020-09-27T13:29:18Z</time>
</trkpt>
<trkpt lat="45.995231" lon="11.187671">
<time>2020-09-27T13:29:19Z</time>
</trkpt>
<trkpt lat="45.995218" lon="11.187643">
<time>2020-09-27T13:29:20Z</time>
</trkpt>
<trkpt lat="45.99521" lon="11.18762">
<time>2020-09-27T13:29:21Z</time>
</trkpt>
<trkpt lat="45.995203" lon="11.187601">
<time>2020-09-27T13:29:22Z</time>
</trkpt>
<trkpt lat="45.9952" lon="11.18758">
<time>2020-09-27T13:29:23Z</time>
</trkpt>
<trkpt lat="45.995195" lon="11.187551">
<time>2020-09-27T13:29:24Z</time>
</trkpt>
<trkpt lat="45.995186" lon="11.187516">
<time>2020-09-27T13:29:25Z</time>
</trkpt>
<trkpt lat="45.995178" lon="11.187478">
<time>2020-09-27T13:29:26Z</time>
</trkpt>
<trkpt lat="45.995165" lon="11.187435">
<time>2020-09-27T13:29:27Z</time>
</trkpt>
<trkpt lat="45.995153" lon="11.1874">
<time>2020-09-27T13:29:28Z</time>
</trkpt>
<trkpt lat="45.995146" lon="11.187361">
<time>2020-09-27T13:29:29Z</time>
</trkpt>
<trkpt lat="45.995145" lon="11.187328">
<time>2020-09-27T13:29:30Z</time>
</trkpt>
<trkpt lat="45.995148" lon="11.187293">
<time>2020-09-27T13:29:31Z</time>
</trkpt>
<trkpt lat="45.995151" lon="11.187261">
<time>2020-09-27T13:29:32Z</time>
</trkpt>
<trkpt lat="45.99515" lon="11.187231">
<time>2020-09-27T13:29:33Z</time>
</trkpt>
<trkpt lat="45.995145" lon="11.1872">
<time>2020-09-27T13:29:34Z</time>
</trkpt>
<trkpt lat="45.995136" lon="11.187173">
<time>2020-09-27T13:29:35Z</time>
</trkpt>
<trkpt lat="45.995121" lon="11.187146">
<time>2020-09-27T13:29:36Z</time>
</trkpt>
<trkpt lat="45.995101" lon="11.187116">
<time>2020-09-27T13:29:37Z</time>
</trkpt>
<trkpt lat="45.99508" lon="11.187081">
<time>2020-09-27T13:29:38Z</time>
</trkpt>
<trkpt lat="45.995061" lon="11.187046">
<time>2020-09-27T13:29:39Z</time>
</trkpt>
<trkpt lat="45.995045" lon="11.187005">
<time>2020-09-27T13:29:40Z</time>
</trkpt>
<trkpt lat="45.995028" lon="11.186963">
<time>2020-09-27T13:29:41Z</time>
</trkpt>
<trkpt lat="45.995015" lon="11.186923">
<time>2020-09-27T13:29:42Z</time>
</trkpt>
<trkpt lat="45.994996" lon="11.186883">
<time>2020-09-27T13:29:43Z</time>
</trkpt>
<trkpt lat="45.994978" lon="11.186851">
<time>2020-09-27T13:29:44Z</time>
</trkpt>
<trkpt lat="45.994965" lon="11.186823">
<time>2020-09-27T13:29:45Z</time>
</trkpt>
<trkpt lat="45.994953" lon="11.186796">
<time>2020-09-27T13:29:46Z</time>
</trkpt>
<trkpt lat="45.994938" lon="11.18677">
<time>2020-09-27T13:29:47Z</time>
</trkpt>
<trkpt lat="45.99492" lon="11.186745">
<time>2020-09-27T13:29:48Z</time>
</trkpt>
<trkpt lat="45.994908" lon="11.18672">
<time>2020-09-27T13:29:49Z</time>
</trkpt>
<trkpt lat="45.994896" lon="11.186696">
<time>2020-09-27T13:29:50Z</time>
</trkpt>
<trkpt lat="45.994881" lon="11.186681">
<time>2020-09-27T13:29:51Z</time>
</trkpt>
<trkpt lat="45.994856" lon="11.186668">
<time>2020-09-27T13:29:52Z</time>
</trkpt>
<trkpt lat="45.994835" lon="11.186655">
<time>2020-09-27T13:29:53Z</time>
</trkpt>
<trkpt lat="45.994813" lon="11.186641">
<time>2020-09-27T13:29:54Z</time>
</trkpt>
<trkpt lat="45.99479" lon="11.18663">
<time>2020-09-27T13:29:55Z</time>
</trkpt>
<trkpt lat="45.994771" lon="11.186621">
<time>2020-09-27T13:29:56Z</time>
</trkpt>
<trkpt lat="45.994753" lon="11.186605">
<time>2020-09-27T13:29:57Z</time>
</trkpt>
<trkpt lat="45.994733" lon="11.186586">
<time>2020-09-27T13:29:58Z</time>
</trkpt>
<trkpt lat="45.994715" lon="11.186575">
<time>2020-09-27T13:29:59Z</time>
</trkpt>
<trkpt lat="45.994698" lon="11.18656">
<time>2020-09-27T13:30:00Z</time>
</trkpt>
<trkpt lat="45.994683" lon="11.186546">
<time>2020-09-27T13:30:01Z</time>
</trkpt>
<trkpt lat="45.99467" lon="11.18654">
<time>2020-09-27T13:30:02Z</time>
</trkpt>
<trkpt lat="45.994655" lon="11.186538">
<time>2020-09-27T13:30:03Z</time>
</trkpt>
<trkpt lat="45.99464" lon="11.186531">
<time>2020-09-27T13:30:04Z</time>
</trkpt>
<trkpt lat="45.994628" lon="11.186525">
<time>2020-09-27T13:30:05Z</time>
</trkpt>
<trkpt lat="45.994615" lon="11.18652">
<time>2020-09-27T13:30:06Z</time>
</trkpt>
<trkpt lat="45.994598" lon="11.186506">
<time>2020-09-27T13:30:07Z</time>
</trkpt>
<trkpt lat="45.994583" lon="11.186488">
<time>2020-09-27T13:30:08Z</time>
</trkpt>
<trkpt lat="45.994568" lon="11.186475">
<time>2020-09-27T13:30:09Z</time>
</trkpt>
<trkpt lat="45.994558" lon="11.186475">
<time>2020-09-27T13:30:10Z</time>
</trkpt>
<trkpt lat="45.994551" lon="11.186481">
<time>2020-09-27T13:30:11Z</time>
</trkpt>
<trkpt lat="45.994541" lon="11.186491">
<time>2020-09-27T13:30:12Z</time>
</trkpt>
<trkpt lat="45.99453" lon="11.186498">
<time>2020-09-27T13:30:13Z</time>
</trkpt>
<trkpt lat="45.994516" lon="11.18649">
<time>2020-09-27T13:30:14Z</time>
</trkpt>
<trkpt lat="45.994503" lon="11.186478">
<time>2020-09-27T13:30:15Z</time>
</trkpt>
<trkpt lat="45.99449" lon="11.186461">
<time>2020-09-27T13:30:16Z</time>
</trkpt>
<trkpt lat="45.99448" lon="11.186435">
<time>2020-09-27T13:30:17Z</time>
</trkpt>
<trkpt lat="45.994473" lon="11.18641">
<time>2020-09-27T13:30:18Z</time>
</trkpt>
<trkpt lat="45.99447" lon="11.18639">
<time>2020-09-27T13:30:19Z</time>
</trkpt>
<trkpt lat="45.99447" lon="11.186376">
<time>2020-09-27T13:30:20Z</time>
</trkpt>
<trkpt lat="45.994468" lon="11.186366">
<time>2020-09-27T13:30:21Z</time>
</trkpt>
<trkpt lat="45.994468" lon="11.186356">
<time>2020-09-27T13:30:22Z</time>
</trkpt>
<trkpt lat="45.994466" lon="11.186351">
<time>2020-09-27T13:30:23Z</time>
</trkpt>
<trkpt lat="45.994466" lon="11.186345">
<time>2020-09-27T13:30:24Z</time>
</trkpt>
<trkpt lat="45.994463" lon="11.186338">
<time>2020-09-27T13:30:25Z</time>
</trkpt>
<trkpt lat="45.994458" lon="11.186333">
<time>2020-09-27T13:30:26Z</time>
</trkpt>
<trkpt lat="45.99445" lon="11.186326">
<time>2020-09-27T13:30:27Z</time>
</trkpt>
<trkpt lat="45.994441" lon="11.186318">
<time>2020-09-27T13:30:28Z</time>
</trkpt>
<trkpt lat="45.994431" lon="11.186313">
<time>2020-09-27T13:30:29Z</time>
</trkpt>
<trkpt lat="45.994423" lon="11.186308">
<time>2020-09-27T13:30:30Z</time>
</trkpt>
<trkpt lat="45.994416" lon="11.186301">
<time>2020-09-27T13:30:31Z</time>
</trkpt>
<trkpt lat="45.99441" lon="11.186295">
<time>2020-09-27T13:30:32Z</time>
</trkpt>
<trkpt lat="45.994405" lon="11.186288">
<time>2020-09-27T13:30:33Z</time>
</trkpt>
<trkpt lat="45.994396" lon="11.186283">
<time>2020-09-27T13:30:34Z</time>
</trkpt>
<trkpt lat="45.99439" lon="11.186265">
<time>2020-09-27T13:30:35Z</time>
</trkpt>
<trkpt lat="45.994386" lon="11.186243">
<time>2020-09-27T13:30:36Z</time>
</trkpt>
<trkpt lat="45.99439" lon="11.186231">
<time>2020-09-27T13:30:37Z</time>
</trkpt>
<trkpt lat="45.994388" lon="11.186226">
<time>2020-09-27T13:30:38Z</time>
</trkpt>
<trkpt lat="45.994383" lon="11.186223">
<time>2020-09-27T13:30:39Z</time>
</trkpt>
<trkpt lat="45.99438" lon="11.186223">
<time>2020-09-27T13:30:40Z</time>
</trkpt>
<trkpt lat="45.994378" lon="11.186223">
<time>2020-09-27T13:30:41Z</time>
</trkpt>
<trkpt lat="45.99438" lon="11.186216">
<time>2020-09-27T13:30:42Z</time>
</trkpt>
<trkpt lat="45.99438" lon="11.1862">
<time>2020-09-27T13:30:43Z</time>
</trkpt>
<trkpt lat="45.994381" lon="11.186175">
<time>2020-09-27T13:30:44Z</time>
</trkpt>
<trkpt lat="45.994388" lon="11.186153">
<time>2020-09-27T13:30:45Z</time>
</trkpt>
<trkpt lat="45.994391" lon="11.186131">
<time>2020-09-27T13:30:46Z</time>
</trkpt>
<trkpt lat="45.994391" lon="11.186118">
<time>2020-09-27T13:30:47Z</time>
</trkpt>
<trkpt lat="45.994393" lon="11.186113">
<time>2020-09-27T13:30:48Z</time>
</trkpt>
<trkpt lat="45.994393" lon="11.186108">
<time>2020-09-27T13:30:49Z</time>
</trkpt>
<trkpt lat="45.994395" lon="11.186103">
<time>2020-09-27T13:30:50Z</time>
</trkpt>
<trkpt lat="45.994393" lon="11.186096">
<time>2020-09-27T13:30:51Z</time>
</trkpt>
<trkpt lat="45.99439" lon="11.186091">
<time>2020-09-27T13:30:52Z</time>
</trkpt>
<trkpt lat="45.994386" lon="11.18609">
<time>2020-09-27T13:30:53Z</time>
</trkpt>
<trkpt lat="45.994381" lon="11.186095">
<time>2020-09-27T13:30:54Z</time>
</trkpt>
<trkpt lat="45.994373" lon="11.186093">
<time>2020-09-27T13:30:55Z</time>
</trkpt>
<trkpt lat="45.994366" lon="11.186088">
<time>2020-09-27T13:30:56Z</time>
</trkpt>
<trkpt lat="45.994358" lon="11.18608">
<time>2020-09-27T13:30:57Z</time>
</trkpt>
<trkpt lat="45.994348" lon="11.186068">
<time>2020-09-27T13:30:58Z</time>
</trkpt>
<trkpt lat="45.994338" lon="11.186055">
<time>2020-09-27T13:30:59Z</time>
</trkpt>
<trkpt lat="45.994333" lon="11.186043">
<time>2020-09-27T13:31:00Z</time>
</trkpt>
<trkpt lat="45.994326" lon="11.186033">
<time>2020-09-27T13:31:01Z</time>
</trkpt>
<trkpt lat="45.99432" lon="11.18602">
<time>2020-09-27T13:31:02Z</time>
</trkpt>
<trkpt lat="45.994316" lon="11.186008">
<time>2020-09-27T13:31:03Z</time>
</trkpt>
<trkpt lat="45.994315" lon="11.185991">
<time>2020-09-27T13:31:04Z</time>
</trkpt>
<trkpt lat="45.994316" lon="11.185971">
<time>2020-09-27T13:31:05Z</time>
</trkpt>
<trkpt lat="45.994315" lon="11.185955">
<time>2020-09-27T13:31:06Z</time>
</trkpt>
<trkpt lat="45.994311" lon="11.185941">
<time>2020-09-27T13:31:07Z</time>
</trkpt>
<trkpt lat="45.994306" lon="11.185935">
<time>2020-09-27T13:31:08Z</time>
</trkpt>
<trkpt lat="45.994303" lon="11.18593">
<time>2020-09-27T13:31:09Z</time>
</trkpt>
<trkpt lat="45.994298" lon="11.185923">
<time>2020-09-27T13:31:10Z</time>
</trkpt>
<trkpt lat="45.994291" lon="11.185913">
<time>2020-09-27T13:31:11Z</time>
</trkpt>
<trkpt lat="45.994286" lon="11.185905">
<time>2020-09-27T13:31:12Z</time>
</trkpt>
<trkpt lat="45.994283" lon="11.185891">
<time>2020-09-27T13:31:13Z</time>
</trkpt>
<trkpt lat="45.994281" lon="11.185881">
<time>2020-09-27T13:31:14Z</time>
</trkpt>
<trkpt lat="45.994276" lon="11.18587">
<time>2020-09-27T13:31:15Z</time>
</trkpt>
<trkpt lat="45.994278" lon="11.185856">
<time>2020-09-27T13:31:16Z</time>
</trkpt>
<trkpt lat="45.994275" lon="11.185845">
<time>2020-09-27T13:31:17Z</time>
</trkpt>
<trkpt lat="45.994266" lon="11.18583">
<time>2020-09-27T13:31:18Z</time>
</trkpt>
<trkpt lat="45.994263" lon="11.185816">
<time>2020-09-27T13:31:19Z</time>
</trkpt>
<trkpt lat="45.99426" lon="11.18581">
<time>2020-09-27T13:31:20Z</time>
</trkpt>
<trkpt lat="45.994261" lon="11.185803">
<time>2020-09-27T13:31:21Z</time>
</trkpt>
<trkpt lat="45.99426" lon="11.18579">
<time>2020-09-27T13:31:22Z</time>
</trkpt>
<trkpt lat="45.994258" lon="11.185775">
<time>2020-09-27T13:31:23Z</time>
</trkpt>
<trkpt lat="45.994251" lon="11.185753">
<time>2020-09-27T13:31:24Z</time>
</trkpt>
<trkpt lat="45.994248" lon="11.185736">
<time>2020-09-27T13:31:25Z</time>
</trkpt>
<trkpt lat="45.994246" lon="11.185728">
<time>2020-09-27T13:31:26Z</time>
</trkpt>
<trkpt lat="45.99424" lon="11.18572">
<time>2020-09-27T13:31:27Z</time>
</trkpt>
<trkpt lat="45.99424" lon="11.18571">
<time>2020-09-27T13:31:28Z</time>
</trkpt>
<trkpt lat="45.994241" lon="11.185696">
<time>2020-09-27T13:31:29Z</time>
</trkpt>
<trkpt lat="45.994246" lon="11.185688">
<time>2020-09-27T13:31:30Z</time>
</trkpt>
<trkpt lat="45.994248" lon="11.185668">
<time>2020-09-27T13:31:31Z</time>
</trkpt>
<trkpt lat="45.994251" lon="11.185635">
<time>2020-09-27T13:31:32Z</time>
</trkpt>
<trkpt lat="45.994253" lon="11.185601">
<time>2020-09-27T13:31:33Z</time>
</trkpt>
<trkpt lat="45.994263" lon="11.185581">
<time>2020-09-27T13:31:34Z</time>
</trkpt>
<trkpt lat="45.994271" lon="11.185566">
<time>2020-09-27T13:31:35Z</time>
</trkpt>
<trkpt lat="45.99428" lon="11.185551">
<time>2020-09-27T13:31:36Z</time>
</trkpt>
<trkpt lat="45.994288" lon="11.185545">
<time>2020-09-27T13:31:37Z</time>
</trkpt>
<trkpt lat="45.9943" lon="11.185515">
<time>2020-09-27T13:31:38Z</time>
</trkpt>
<trkpt lat="45.99431" lon="11.185493">
<time>2020-09-27T13:31:39Z</time>
</trkpt>
<trkpt lat="45.994316" lon="11.185471">
<time>2020-09-27T13:31:40Z</time>
</trkpt>
<trkpt lat="45.99433" lon="11.185455">
<time>2020-09-27T13:31:41Z</time>
</trkpt>
<trkpt lat="45.994331" lon="11.185425">
<time>2020-09-27T13:31:42Z</time>
</trkpt>
<trkpt lat="45.994331" lon="11.185398">
<time>2020-09-27T13:31:43Z</time>
</trkpt>
<trkpt lat="45.994331" lon="11.185383">
<time>2020-09-27T13:31:44Z</time>
</trkpt>
<trkpt lat="45.99433" lon="11.185363">
<time>2020-09-27T13:31:45Z</time>
</trkpt>
<trkpt lat="45.994331" lon="11.185336">
<time>2020-09-27T13:31:46Z</time>
</trkpt>
<trkpt lat="45.994333" lon="11.185305">
<time>2020-09-27T13:31:47Z</time>
</trkpt>
<trkpt lat="45.99434" lon="11.185276">
<time>2020-09-27T13:31:48Z</time>
</trkpt>
<trkpt lat="45.994348" lon="11.185253">
<time>2020-09-27T13:31:49Z</time>
</trkpt>
<trkpt lat="45.994348" lon="11.18524">
<time>2020-09-27T13:31:50Z</time>
</trkpt>
<trkpt lat="45.994346" lon="11.185223">
<time>2020-09-27T13:31:51Z</time>
</trkpt>
<trkpt lat="45.994345" lon="11.185211">
<time>2020-09-27T13:31:52Z</time>
</trkpt>
<trkpt lat="45.994343" lon="11.18521">
<time>2020-09-27T13:31:53Z</time>
</trkpt>
<trkpt lat="45.994341" lon="11.185218">
<time>2020-09-27T13:31:54Z</time>
</trkpt>
<trkpt lat="45.994338" lon="11.185223">
<time>2020-09-27T13:31:55Z</time>
</trkpt>
<trkpt lat="45.994333" lon="11.185218">
<time>2020-09-27T13:31:56Z</time>
</trkpt>
<trkpt lat="45.994328" lon="11.18521">
<time>2020-09-27T13:31:57Z</time>
</trkpt>
<trkpt lat="45.994323" lon="11.185196">
<time>2020-09-27T13:31:58Z</time>
</trkpt>
<trkpt lat="45.994325" lon="11.185181">
<time>2020-09-27T13:31:59Z</time>
</trkpt>
<trkpt lat="45.99433" lon="11.185156">
<time>2020-09-27T13:32:00Z</time>
</trkpt>
<trkpt lat="45.994335" lon="11.185128">
<time>2020-09-27T13:32:01Z</time>
</trkpt>
<trkpt lat="45.994341" lon="11.185108">
<time>2020-09-27T13:32:02Z</time>
</trkpt>
<trkpt lat="45.994345" lon="11.185096">
<time>2020-09-27T13:32:03Z</time>
</trkpt>
<trkpt lat="45.994345" lon="11.185091">
<time>2020-09-27T13:32:04Z</time>
</trkpt>
<trkpt lat="45.994345" lon="11.185085">
<time>2020-09-27T13:32:05Z</time>
</trkpt>
<trkpt lat="45.994341" lon="11.185073">
<time>2020-09-27T13:32:06Z</time>
</trkpt>
<trkpt lat="45.99434" lon="11.185058">
<time>2020-09-27T13:32:07Z</time>
</trkpt>
<trkpt lat="45.994335" lon="11.185043">
<time>2020-09-27T13:32:08Z</time>
</trkpt>
<trkpt lat="45.994331" lon="11.185026">
<time>2020-09-27T13:32:09Z</time>
</trkpt>
<trkpt lat="45.994331" lon="11.185013">
<time>2020-09-27T13:32:10Z</time>
</trkpt>
<trkpt lat="45.994331" lon="11.184996">
<time>2020-09-27T13:32:11Z</time>
</trkpt>
<trkpt lat="45.99433" lon="11.184978">
<time>2020-09-27T13:32:12Z</time>
</trkpt>
<trkpt lat="45.994325" lon="11.184953">
<time>2020-09-27T13:32:13Z</time>
</trkpt>
<trkpt lat="45.99432" lon="11.184936">
<time>2020-09-27T13:32:14Z</time>
</trkpt>
<trkpt lat="45.994321" lon="11.184921">
<time>2020-09-27T13:32:15Z</time>
</trkpt>
<trkpt lat="45.994323" lon="11.184901">
<time>2020-09-27T13:32:16Z</time>
</trkpt>
<trkpt lat="45.994323" lon="11.184886">
<time>2020-09-27T13:32:17Z</time>
</trkpt>
<trkpt lat="45.994326" lon="11.18486">
<time>2020-09-27T13:32:18Z</time>
</trkpt>
<trkpt lat="45.994333" lon="11.184831">
<time>2020-09-27T13:32:19Z</time>
</trkpt>
<trkpt lat="45.994338" lon="11.184808">
<time>2020-09-27T13:32:20Z</time>
</trkpt>
<trkpt lat="45.994346" lon="11.184793">
<time>2020-09-27T13:32:21Z</time>
</trkpt>
<trkpt lat="45.994345" lon="11.184771">
<time>2020-09-27T13:32:22Z</time>
</trkpt>
<trkpt lat="45.994343" lon="11.18475">
<time>2020-09-27T13:32:23Z</time>
</trkpt>
<trkpt lat="45.99434" lon="11.184735">
<time>2020-09-27T13:32:24Z</time>
</trkpt>
<trkpt lat="45.994331" lon="11.184715">
<time>2020-09-27T13:32:25Z</time>
</trkpt>
<trkpt lat="45.994325" lon="11.184708">
<time>2020-09-27T13:32:26Z</time>
</trkpt>
<trkpt lat="45.994323" lon="11.184703">
<time>2020-09-27T13:32:27Z</time>
</trkpt>
<trkpt lat="45.99432" lon="11.184705">
<time>2020-09-27T13:32:28Z</time>
</trkpt>
<trkpt lat="45.994315" lon="11.184698">
<time>2020-09-27T13:32:29Z</time>
</trkpt>
<trkpt lat="45.994308" lon="11.184688">
<time>2020-09-27T13:32:30Z</time>
</trkpt>
<trkpt lat="45.994303" lon="11.18467">
<time>2020-09-27T13:32:31Z</time>
</trkpt>
<trkpt lat="45.994298" lon="11.184656">
<time>2020-09-27T13:32:32Z</time>
</trkpt>
<trkpt lat="45.994296" lon="11.184648">
<time>2020-09-27T13:32:33Z</time>
</trkpt>
<trkpt lat="45.994291" lon="11.184638">
<time>2020-09-27T13:32:34Z</time>
</trkpt>
<trkpt lat="45.994286" lon="11.18463">
<time>2020-09-27T13:32:35Z</time>
</trkpt>
<trkpt lat="45.994283" lon="11.184623">
<time>2020-09-27T13:32:36Z</time>
</trkpt>
<trkpt lat="45.994278" lon="11.18462">
<time>2020-09-27T13:32:37Z</time>
</trkpt>
<trkpt lat="45.994275" lon="11.184621">
<time>2020-09-27T13:32:38Z</time>
</trkpt>
<trkpt lat="45.994273" lon="11.184626">
<time>2020-09-27T13:32:39Z</time>
</trkpt>
<trkpt lat="45.994273" lon="11.184631">
<time>2020-09-27T13:32:40Z</time>
</trkpt>
<trkpt lat="45.994268" lon="11.184646">
<time>2020-09-27T13:32:41Z</time>
</trkpt>
<trkpt lat="45.994258" lon="11.184653">
<time>2020-09-27T13:32:42Z</time>
</trkpt>
<trkpt lat="45.994248" lon="11.184656">
<time>2020-09-27T13:32:43Z</time>
</trkpt>
<trkpt lat="45.994235" lon="11.184651">
<time>2020-09-27T13:32:44Z</time>
</trkpt>
<trkpt lat="45.994221" lon="11.18465">
<time>2020-09-27T13:32:45Z</time>
</trkpt>
<trkpt lat="45.994211" lon="11.184645">
<time>2020-09-27T13:32:46Z</time>
</trkpt>
<trkpt lat="45.994203" lon="11.184643">
<time>2020-09-27T13:32:47Z</time>
</trkpt>
<trkpt lat="45.994196" lon="11.184643">
<time>2020-09-27T13:32:48Z</time>
</trkpt>
<trkpt lat="45.994193" lon="11.184641">
<time>2020-09-27T13:32:49Z</time>
</trkpt>
<trkpt lat="45.994188" lon="11.184638">
<time>2020-09-27T13:32:50Z</time>
</trkpt>
<trkpt lat="45.994186" lon="11.184638">
<time>2020-09-27T13:32:51Z</time>
</trkpt>
<trkpt lat="45.994183" lon="11.184636">
<time>2020-09-27T13:32:52Z</time>
</trkpt>
<trkpt lat="45.994176" lon="11.184636">
<time>2020-09-27T13:32:53Z</time>
</trkpt>
<trkpt lat="45.99417" lon="11.184633">
<time>2020-09-27T13:32:54Z</time>
</trkpt>
<trkpt lat="45.994163" lon="11.184626">
<time>2020-09-27T13:32:55Z</time>
</trkpt>
<trkpt lat="45.994156" lon="11.184616">
<time>2020-09-27T13:32:56Z</time>
</trkpt>
<trkpt lat="45.994153" lon="11.184611">
<time>2020-09-27T13:32:57Z</time>
</trkpt>
<trkpt lat="45.99415" lon="11.18461">
<time>2020-09-27T13:32:58Z</time>
</trkpt>
<trkpt lat="45.994143" lon="11.184606">
<time>2020-09-27T13:32:59Z</time>
</trkpt>
<trkpt lat="45.994135" lon="11.184605">
<time>2020-09-27T13:33:00Z</time>
</trkpt>
<trkpt lat="45.994128" lon="11.184601">
<time>2020-09-27T13:33:01Z</time>
</trkpt>
<trkpt lat="45.994123" lon="11.184598">
<time>2020-09-27T13:33:02Z</time>
</trkpt>
<trkpt lat="45.994118" lon="11.184596">
<time>2020-09-27T13:33:03Z</time>
</trkpt>
<trkpt lat="45.994113" lon="11.184595">
<time>2020-09-27T13:33:04Z</time>
</trkpt>
<trkpt lat="45.994111" lon="11.184593">
<time>2020-09-27T13:33:05Z</time>
</trkpt>
<trkpt lat="45.994115" lon="11.184588">
<time>2020-09-27T13:33:06Z</time>
</trkpt>
<trkpt lat="45.994115" lon="11.184585">
<time>2020-09-27T13:33:07Z</time>
</trkpt>
<trkpt lat="45.994113" lon="11.184588">
<time>2020-09-27T13:33:08Z</time>
</trkpt>
<trkpt lat="45.99411" lon="11.184581">
<time>2020-09-27T13:33:09Z</time>
</trkpt>
<trkpt lat="45.994106" lon="11.18458">
<time>2020-09-27T13:33:10Z</time>
</trkpt>
<trkpt lat="45.994105" lon="11.18458">
<time>2020-09-27T13:33:11Z</time>
</trkpt>
<trkpt lat="45.9941" lon="11.184585">
<time>2020-09-27T13:33:12Z</time>
</trkpt>
<trkpt lat="45.994096" lon="11.184591">
<time>2020-09-27T13:33:13Z</time>
</trkpt>
<trkpt lat="45.994095" lon="11.184601">
<time>2020-09-27T13:33:14Z</time>
</trkpt>
<trkpt lat="45.994095" lon="11.184601">
<time>2020-09-27T13:33:15Z</time>
</trkpt>
<trkpt lat="45.994095" lon="11.184601">
<time>2020-09-27T13:33:16Z</time>
</trkpt>
<trkpt lat="45.994095" lon="11.184601">
<time>2020-09-27T13:33:17Z</time>
</trkpt>
<trkpt lat="45.994095" lon="11.184601">
<time>2020-09-27T13:33:18Z</time>
</trkpt>
<trkpt lat="45.994095" lon="11.184601">
<time>2020-09-27T13:33:19Z</time>
</trkpt>
<trkpt lat="45.994095" lon="11.184601">
<time>2020-09-27T13:33:20Z</time>
</trkpt>
<trkpt lat="45.994095" lon="11.184601">
<time>2020-09-27T13:33:21Z</time>
</trkpt>
<trkpt lat="45.994095" lon="11.184601">
<time>2020-09-27T13:33:22Z</time>
</trkpt>
<trkpt lat="45.994095" lon="11.184601">
<time>2020-09-27T13:33:23Z</time>
</trkpt>
<trkpt lat="45.994095" lon="11.184601">
<time>2020-09-27T13:33:24Z</time>
</trkpt>
<trkpt lat="45.994095" lon="11.184601">
<time>2020-09-27T13:33:25Z</time>
</trkpt>
<trkpt lat="45.994095" lon="11.184601">
<time>2020-09-27T13:33:26Z</time>
</trkpt>
<trkpt lat="45.994095" lon="11.184601">
<time>2020-09-27T13:33:27Z</time>
</trkpt>
<trkpt lat="45.994095" lon="11.184601">
<time>2020-09-27T13:33:28Z</time>
</trkpt>
<trkpt lat="45.994095" lon="11.184601">
<time>2020-09-27T13:33:29Z</time>
</trkpt>
<trkpt lat="45.994093" lon="11.184613">
<time>2020-09-27T13:33:30Z</time>
</trkpt>
<trkpt lat="45.994091" lon="11.184623">
<time>2020-09-27T13:33:31Z</time>
</trkpt>
<trkpt lat="45.994091" lon="11.184628">
<time>2020-09-27T13:33:32Z</time>
</trkpt>
<trkpt lat="45.994088" lon="11.184628">
<time>2020-09-27T13:33:33Z</time>
</trkpt>
<trkpt lat="45.994083" lon="11.18463">
<time>2020-09-27T13:33:34Z</time>
</trkpt>
<trkpt lat="45.99408" lon="11.184635">
<time>2020-09-27T13:33:35Z</time>
</trkpt>
<trkpt lat="45.994078" lon="11.184638">
<time>2020-09-27T13:33:36Z</time>
</trkpt>
<trkpt lat="45.994076" lon="11.18464">
<time>2020-09-27T13:33:37Z</time>
</trkpt>
<trkpt lat="45.994073" lon="11.184641">
<time>2020-09-27T13:33:38Z</time>
</trkpt>
<trkpt lat="45.994068" lon="11.184645">
<time>2020-09-27T13:33:39Z</time>
</trkpt>
<trkpt lat="45.994053" lon="11.184648">
<time>2020-09-27T13:33:40Z</time>
</trkpt>
<trkpt lat="45.994041" lon="11.184651">
<time>2020-09-27T13:33:41Z</time>
</trkpt>
<trkpt lat="45.994028" lon="11.184658">
<time>2020-09-27T13:33:42Z</time>
</trkpt>
<trkpt lat="45.994018" lon="11.184661">
<time>2020-09-27T13:33:43Z</time>
</trkpt>
<trkpt lat="45.99401" lon="11.184666">
<time>2020-09-27T13:33:44Z</time>
</trkpt>
<trkpt lat="45.993996" lon="11.184663">
<time>2020-09-27T13:33:45Z</time>
</trkpt>
<trkpt lat="45.993985" lon="11.18466">
<time>2020-09-27T13:33:46Z</time>
</trkpt>
<trkpt lat="45.993975" lon="11.184655">
<time>2020-09-27T13:33:47Z</time>
</trkpt>
<trkpt lat="45.993965" lon="11.184655">
<time>2020-09-27T13:33:48Z</time>
</trkpt>
<trkpt lat="45.993958" lon="11.184651">
<time>2020-09-27T13:33:49Z</time>
</trkpt>
<trkpt lat="45.993953" lon="11.184646">
<time>2020-09-27T13:33:50Z</time>
</trkpt>
<trkpt lat="45.993946" lon="11.184638">
<time>2020-09-27T13:33:51Z</time>
</trkpt>
<trkpt lat="45.993938" lon="11.184631">
<time>2020-09-27T13:33:52Z</time>
</trkpt>
<trkpt lat="45.99393" lon="11.184631">
<time>2020-09-27T13:33:53Z</time>
</trkpt>
<trkpt lat="45.993923" lon="11.184633">
<time>2020-09-27T13:33:54Z</time>
</trkpt>
<trkpt lat="45.993921" lon="11.18463">
<time>2020-09-27T13:33:55Z</time>
</trkpt>
<trkpt lat="45.993916" lon="11.18462">
<time>2020-09-27T13:33:56Z</time>
</trkpt>
<trkpt lat="45.993908" lon="11.184611">
<time>2020-09-27T13:33:57Z</time>
</trkpt>
<trkpt lat="45.993896" lon="11.184613">
<time>2020-09-27T13:33:58Z</time>
</trkpt>
<trkpt lat="45.993886" lon="11.184616">
<time>2020-09-27T13:33:59Z</time>
</trkpt>
<trkpt lat="45.993875" lon="11.184628">
<time>2020-09-27T13:34:00Z</time>
</trkpt>
<trkpt lat="45.993865" lon="11.184648">
<time>2020-09-27T13:34:01Z</time>
</trkpt>
<trkpt lat="45.993855" lon="11.184665">
<time>2020-09-27T13:34:02Z</time>
</trkpt>
<trkpt lat="45.993845" lon="11.184678">
<time>2020-09-27T13:34:03Z</time>
</trkpt>
<trkpt lat="45.993836" lon="11.18469">
<time>2020-09-27T13:34:04Z</time>
</trkpt>
<trkpt lat="45.99383" lon="11.184695">
<time>2020-09-27T13:34:05Z</time>
</trkpt>
<trkpt lat="45.993821" lon="11.1847">
<time>2020-09-27T13:34:06Z</time>
</trkpt>
<trkpt lat="45.993811" lon="11.184696">
<time>2020-09-27T13:34:07Z</time>
</trkpt>
<trkpt lat="45.993803" lon="11.18468">
<time>2020-09-27T13:34:08Z</time>
</trkpt>
<trkpt lat="45.993795" lon="11.184656">
<time>2020-09-27T13:34:09Z</time>
</trkpt>
<trkpt lat="45.99379" lon="11.18464">
<time>2020-09-27T13:34:10Z</time>
</trkpt>
<trkpt lat="45.993785" lon="11.184626">
<time>2020-09-27T13:34:11Z</time>
</trkpt>
<trkpt lat="45.993785" lon="11.18462">
<time>2020-09-27T13:34:12Z</time>
</trkpt>
<trkpt lat="45.993791" lon="11.184621">
<time>2020-09-27T13:34:13Z</time>
</trkpt>
<trkpt lat="45.993796" lon="11.184623">
<time>2020-09-27T13:34:14Z</time>
</trkpt>
<trkpt lat="45.993796" lon="11.184625">
<time>2020-09-27T13:34:15Z</time>
</trkpt>
<trkpt lat="45.993796" lon="11.184628">
<time>2020-09-27T13:34:16Z</time>
</trkpt>
<trkpt lat="45.993796" lon="11.184631">
<time>2020-09-27T13:34:17Z</time>
</trkpt>
<trkpt lat="45.993796" lon="11.184633">
<time>2020-09-27T13:34:18Z</time>
</trkpt>
<trkpt lat="45.993796" lon="11.184635">
<time>2020-09-27T13:34:19Z</time>
</trkpt>
<trkpt lat="45.993796" lon="11.184635">
<time>2020-09-27T13:34:20Z</time>
</trkpt>
<trkpt lat="45.993796" lon="11.184635">
<time>2020-09-27T13:34:21Z</time>
</trkpt>
<trkpt lat="45.993796" lon="11.184635">
<time>2020-09-27T13:34:22Z</time>
</trkpt>
<trkpt lat="45.993796" lon="11.184635">
<time>2020-09-27T13:34:23Z</time>
</trkpt>
<trkpt lat="45.993796" lon="11.184635">
<time>2020-09-27T13:34:24Z</time>
</trkpt>
<trkpt lat="45.993796" lon="11.184635">
<time>2020-09-27T13:34:25Z</time>
</trkpt>
<trkpt lat="45.993796" lon="11.184635">
<time>2020-09-27T13:34:26Z</time>
</trkpt>
<trkpt lat="45.993796" lon="11.184635">
<time>2020-09-27T13:34:27Z</time>
</trkpt>
<trkpt lat="45.993796" lon="11.184635">
<time>2020-09-27T13:34:28Z</time>
</trkpt>
<trkpt lat="45.993796" lon="11.184635">
<time>2020-09-27T13:34:29Z</time>
</trkpt>
<trkpt lat="45.993796" lon="11.184633">
<time>2020-09-27T13:34:30Z</time>
</trkpt>
<trkpt lat="45.993796" lon="11.184633">
<time>2020-09-27T13:34:31Z</time>
</trkpt>
<trkpt lat="45.993796" lon="11.184633">
<time>2020-09-27T13:34:32Z</time>
</trkpt>
<trkpt lat="45.993796" lon="11.184633">
<time>2020-09-27T13:34:33Z</time>
</trkpt>
<trkpt lat="45.993796" lon="11.184633">
<time>2020-09-27T13:34:34Z</time>
</trkpt>
<trkpt lat="45.993796" lon="11.184633">
<time>2020-09-27T13:34:35Z</time>
</trkpt>
<trkpt lat="45.993796" lon="11.184631">
<time>2020-09-27T13:34:36Z</time>
</trkpt>
<trkpt lat="45.993788" lon="11.184631">
<time>2020-09-27T13:34:37Z</time>
</trkpt>
<trkpt lat="45.993773" lon="11.18463">
<time>2020-09-27T13:34:38Z</time>
</trkpt>
<trkpt lat="45.993758" lon="11.18463">
<time>2020-09-27T13:34:39Z</time>
</trkpt>
<trkpt lat="45.993748" lon="11.184631">
<time>2020-09-27T13:34:40Z</time>
</trkpt>
<trkpt lat="45.99374" lon="11.184635">
<time>2020-09-27T13:34:41Z</time>
</trkpt>
<trkpt lat="45.993731" lon="11.184638">
<time>2020-09-27T13:34:42Z</time>
</trkpt>
<trkpt lat="45.993728" lon="11.184645">
<time>2020-09-27T13:34:43Z</time>
</trkpt>
<trkpt lat="45.993723" lon="11.184658">
<time>2020-09-27T13:34:44Z</time>
</trkpt>
<trkpt lat="45.993711" lon="11.184668">
<time>2020-09-27T13:34:45Z</time>
</trkpt>
<trkpt lat="45.993695" lon="11.184668">
<time>2020-09-27T13:34:46Z</time>
</trkpt>
<trkpt lat="45.993688" lon="11.184663">
<time>2020-09-27T13:34:47Z</time>
</trkpt>
<trkpt lat="45.993683" lon="11.184655">
<time>2020-09-27T13:34:48Z</time>
</trkpt>
<trkpt lat="45.99368" lon="11.184651">
<time>2020-09-27T13:34:49Z</time>
</trkpt>
<trkpt lat="45.99368" lon="11.184651">
<time>2020-09-27T13:34:50Z</time>
</trkpt>
<trkpt lat="45.99368" lon="11.184651">
<time>2020-09-27T13:34:51Z</time>
</trkpt>
<trkpt lat="45.99368" lon="11.184651">
<time>2020-09-27T13:34:52Z</time>
</trkpt>
<trkpt lat="45.99368" lon="11.184651">
<time>2020-09-27T13:34:53Z</time>
</trkpt>
<trkpt lat="45.99368" lon="11.184651">
<time>2020-09-27T13:34:54Z</time>
</trkpt>
<trkpt lat="45.99368" lon="11.184651">
<time>2020-09-27T13:34:55Z</time>
</trkpt>
<trkpt lat="45.99368" lon="11.184651">
<time>2020-09-27T13:34:56Z</time>
</trkpt>
<trkpt lat="45.99368" lon="11.184651">
<time>2020-09-27T13:34:57Z</time>
</trkpt>
<trkpt lat="45.99368" lon="11.184651">
<time>2020-09-27T13:34:58Z</time>
</trkpt>
<trkpt lat="45.99368" lon="11.184651">
<time>2020-09-27T13:34:59Z</time>
</trkpt>
<trkpt lat="45.99368" lon="11.184651">
<time>2020-09-27T13:35:00Z</time>
</trkpt>
<trkpt lat="45.99368" lon="11.184651">
<time>2020-09-27T13:35:01Z</time>
</trkpt>
<trkpt lat="45.99368" lon="11.184651">
<time>2020-09-27T13:35:02Z</time>
</trkpt>
<trkpt lat="45.99368" lon="11.184651">
<time>2020-09-27T13:35:03Z</time>
</trkpt>
<trkpt lat="45.99368" lon="11.184651">
<time>2020-09-27T13:35:04Z</time>
</trkpt>
<trkpt lat="45.99368" lon="11.184651">
<time>2020-09-27T13:35:05Z</time>
</trkpt>
<trkpt lat="45.99368" lon="11.18465">
<time>2020-09-27T13:35:06Z</time>
</trkpt>
<trkpt lat="45.99368" lon="11.18465">
<time>2020-09-27T13:35:07Z</time>
</trkpt>
<trkpt lat="45.99368" lon="11.184648">
<time>2020-09-27T13:35:08Z</time>
</trkpt>
<trkpt lat="45.993678" lon="11.184645">
<time>2020-09-27T13:35:09Z</time>
</trkpt>
<trkpt lat="45.993678" lon="11.184645">
<time>2020-09-27T13:35:10Z</time>
</trkpt>
<trkpt lat="45.993676" lon="11.184643">
<time>2020-09-27T13:35:11Z</time>
</trkpt>
<trkpt lat="45.993676" lon="11.184643">
<time>2020-09-27T13:35:12Z</time>
</trkpt>
<trkpt lat="45.993675" lon="11.184643">
<time>2020-09-27T13:35:13Z</time>
</trkpt>
<trkpt lat="45.993675" lon="11.184641">
<time>2020-09-27T13:35:14Z</time>
</trkpt>
<trkpt lat="45.993675" lon="11.18464">
<time>2020-09-27T13:35:15Z</time>
</trkpt>
<trkpt lat="45.993675" lon="11.184636">
<time>2020-09-27T13:35:16Z</time>
</trkpt>
<trkpt lat="45.99367" lon="11.184631">
<time>2020-09-27T13:35:17Z</time>
</trkpt>
<trkpt lat="45.993658" lon="11.184628">
<time>2020-09-27T13:35:18Z</time>
</trkpt>
<trkpt lat="45.993648" lon="11.184625">
<time>2020-09-27T13:35:19Z</time>
</trkpt>
<trkpt lat="45.993643" lon="11.18462">
<time>2020-09-27T13:35:20Z</time>
</trkpt>
<trkpt lat="45.993638" lon="11.184613">
<time>2020-09-27T13:35:21Z</time>
</trkpt>
<trkpt lat="45.993631" lon="11.18461">
<time>2020-09-27T13:35:22Z</time>
</trkpt>
<trkpt lat="45.993626" lon="11.18461">
<time>2020-09-27T13:35:23Z</time>
</trkpt>
<trkpt lat="45.993625" lon="11.184605">
<time>2020-09-27T13:35:24Z</time>
</trkpt>
<trkpt lat="45.993623" lon="11.184608">
<time>2020-09-27T13:35:25Z</time>
</trkpt>
<trkpt lat="45.993623" lon="11.184608">
<time>2020-09-27T13:35:26Z</time>
</trkpt>
<trkpt lat="45.993623" lon="11.184608">
<time>2020-09-27T13:35:27Z</time>
</trkpt>
<trkpt lat="45.993623" lon="11.184608">
<time>2020-09-27T13:35:28Z</time>
</trkpt>
<trkpt lat="45.993623" lon="11.184608">
<time>2020-09-27T13:35:29Z</time>
</trkpt>
<trkpt lat="45.993623" lon="11.184608">
<time>2020-09-27T13:35:30Z</time>
</trkpt>
<trkpt lat="45.993623" lon="11.184608">
<time>2020-09-27T13:35:31Z</time>
</trkpt>
<trkpt lat="45.993623" lon="11.184608">
<time>2020-09-27T13:35:32Z</time>
</trkpt>
<trkpt lat="45.993623" lon="11.184608">
<time>2020-09-27T13:35:33Z</time>
</trkpt>
<trkpt lat="45.993623" lon="11.184608">
<time>2020-09-27T13:35:34Z</time>
</trkpt>
<trkpt lat="45.993623" lon="11.184608">
<time>2020-09-27T13:35:35Z</time>
</trkpt>
<trkpt lat="45.993623" lon="11.184608">
<time>2020-09-27T13:35:36Z</time>
</trkpt>
<trkpt lat="45.993623" lon="11.184608">
<time>2020-09-27T13:35:37Z</time>
</trkpt>
<trkpt lat="45.993623" lon="11.184608">
<time>2020-09-27T13:35:38Z</time>
</trkpt>
<trkpt lat="45.993623" lon="11.184608">
<time>2020-09-27T13:35:39Z</time>
</trkpt>
<trkpt lat="45.993623" lon="11.184608">
<time>2020-09-27T13:35:40Z</time>
</trkpt>
<trkpt lat="45.993623" lon="11.184608">
<time>2020-09-27T13:35:41Z</time>
</trkpt>
<trkpt lat="45.993626" lon="11.184616">
<time>2020-09-27T13:35:42Z</time>
</trkpt>
<trkpt lat="45.993628" lon="11.184616">
<time>2020-09-27T13:35:43Z</time>
</trkpt>
<trkpt lat="45.99363" lon="11.184616">
<time>2020-09-27T13:35:44Z</time>
</trkpt>
<trkpt lat="45.99363" lon="11.184616">
<time>2020-09-27T13:35:45Z</time>
</trkpt>
<trkpt lat="45.993631" lon="11.184616">
<time>2020-09-27T13:35:46Z</time>
</trkpt>
<trkpt lat="45.993635" lon="11.184611">
<time>2020-09-27T13:35:47Z</time>
</trkpt>
<trkpt lat="45.993648" lon="11.184598">
<time>2020-09-27T13:35:48Z</time>
</trkpt>
<trkpt lat="45.993665" lon="11.184583">
<time>2020-09-27T13:35:49Z</time>
</trkpt>
<trkpt lat="45.993681" lon="11.184565">
<time>2020-09-27T13:35:50Z</time>
</trkpt>
<trkpt lat="45.993696" lon="11.184543">
<time>2020-09-27T13:35:51Z</time>
</trkpt>
<trkpt lat="45.993711" lon="11.184525">
<time>2020-09-27T13:35:52Z</time>
</trkpt>
<trkpt lat="45.993725" lon="11.18451">
<time>2020-09-27T13:35:53Z</time>
</trkpt>
<trkpt lat="45.993735" lon="11.184495">
<time>2020-09-27T13:35:54Z</time>
</trkpt>
<trkpt lat="45.993745" lon="11.184488">
<time>2020-09-27T13:35:55Z</time>
</trkpt>
<trkpt lat="45.993756" lon="11.184476">
<time>2020-09-27T13:35:56Z</time>
</trkpt>
<trkpt lat="45.993771" lon="11.184471">
<time>2020-09-27T13:35:57Z</time>
</trkpt>
<trkpt lat="45.993785" lon="11.184466">
<time>2020-09-27T13:35:58Z</time>
</trkpt>
<trkpt lat="45.993801" lon="11.184465">
<time>2020-09-27T13:35:59Z</time>
</trkpt>
<trkpt lat="45.99382" lon="11.18447">
<time>2020-09-27T13:36:00Z</time>
</trkpt>
<trkpt lat="45.993836" lon="11.184485">
<time>2020-09-27T13:36:01Z</time>
</trkpt>
<trkpt lat="45.993855" lon="11.184501">
<time>2020-09-27T13:36:02Z</time>
</trkpt>
<trkpt lat="45.993866" lon="11.184518">
<time>2020-09-27T13:36:03Z</time>
</trkpt>
<trkpt lat="45.993878" lon="11.18453">
<time>2020-09-27T13:36:04Z</time>
</trkpt>
<trkpt lat="45.993891" lon="11.184541">
<time>2020-09-27T13:36:05Z</time>
</trkpt>
<trkpt lat="45.993913" lon="11.18455">
<time>2020-09-27T13:36:06Z</time>
</trkpt>
<trkpt lat="45.993931" lon="11.18455">
<time>2020-09-27T13:36:07Z</time>
</trkpt>
<trkpt lat="45.993956" lon="11.184556">
<time>2020-09-27T13:36:08Z</time>
</trkpt>
<trkpt lat="45.993986" lon="11.184578">
<time>2020-09-27T13:36:09Z</time>
</trkpt>
<trkpt lat="45.99401" lon="11.184596">
<time>2020-09-27T13:36:10Z</time>
</trkpt>
<trkpt lat="45.994033" lon="11.184608">
<time>2020-09-27T13:36:11Z</time>
</trkpt>
<trkpt lat="45.99405" lon="11.184618">
<time>2020-09-27T13:36:12Z</time>
</trkpt>
<trkpt lat="45.994065" lon="11.184628">
<time>2020-09-27T13:36:13Z</time>
</trkpt>
<trkpt lat="45.99408" lon="11.184636">
<time>2020-09-27T13:36:14Z</time>
</trkpt>
<trkpt lat="45.994096" lon="11.184646">
<time>2020-09-27T13:36:15Z</time>
</trkpt>
<trkpt lat="45.994115" lon="11.184653">
<time>2020-09-27T13:36:16Z</time>
</trkpt>
<trkpt lat="45.994131" lon="11.184665">
<time>2020-09-27T13:36:17Z</time>
</trkpt>
<trkpt lat="45.994145" lon="11.18468">
<time>2020-09-27T13:36:18Z</time>
</trkpt>
<trkpt lat="45.994168" lon="11.184696">
<time>2020-09-27T13:36:19Z</time>
</trkpt>
<trkpt lat="45.994185" lon="11.184708">
<time>2020-09-27T13:36:20Z</time>
</trkpt>
<trkpt lat="45.994195" lon="11.18471">
<time>2020-09-27T13:36:21Z</time>
</trkpt>
<trkpt lat="45.994201" lon="11.184705">
<time>2020-09-27T13:36:22Z</time>
</trkpt>
<trkpt lat="45.994208" lon="11.184693">
<time>2020-09-27T13:36:23Z</time>
</trkpt>
<trkpt lat="45.994226" lon="11.184706">
<time>2020-09-27T13:36:24Z</time>
</trkpt>
<trkpt lat="45.994241" lon="11.184726">
<time>2020-09-27T13:36:25Z</time>
</trkpt>
<trkpt lat="45.994261" lon="11.184755">
<time>2020-09-27T13:36:26Z</time>
</trkpt>
<trkpt lat="45.994281" lon="11.184771">
<time>2020-09-27T13:36:27Z</time>
</trkpt>
<trkpt lat="45.994301" lon="11.184785">
<time>2020-09-27T13:36:28Z</time>
</trkpt>
<trkpt lat="45.994325" lon="11.184796">
<time>2020-09-27T13:36:29Z</time>
</trkpt>
<trkpt lat="45.994345" lon="11.184813">
<time>2020-09-27T13:36:30Z</time>
</trkpt>
<trkpt lat="45.994363" lon="11.18483">
<time>2020-09-27T13:36:31Z</time>
</trkpt>
<trkpt lat="45.994378" lon="11.184846">
<time>2020-09-27T13:36:32Z</time>
</trkpt>
<trkpt lat="45.994396" lon="11.184856">
<time>2020-09-27T13:36:33Z</time>
</trkpt>
<trkpt lat="45.994413" lon="11.18487">
<time>2020-09-27T13:36:34Z</time>
</trkpt>
<trkpt lat="45.994433" lon="11.184886">
<time>2020-09-27T13:36:35Z</time>
</trkpt>
<trkpt lat="45.99445" lon="11.184903">
<time>2020-09-27T13:36:36Z</time>
</trkpt>
<trkpt lat="45.99446" lon="11.184906">
<time>2020-09-27T13:36:37Z</time>
</trkpt>
<trkpt lat="45.994478" lon="11.184906">
<time>2020-09-27T13:36:38Z</time>
</trkpt>
<trkpt lat="45.994485" lon="11.184908">
<time>2020-09-27T13:36:39Z</time>
</trkpt>
<trkpt lat="45.994486" lon="11.184911">
<time>2020-09-27T13:36:40Z</time>
</trkpt>
<trkpt lat="45.994486" lon="11.184911">
<time>2020-09-27T13:36:41Z</time>
</trkpt>
<trkpt lat="45.994493" lon="11.184901">
<time>2020-09-27T13:36:42Z</time>
</trkpt>
<trkpt lat="45.994485" lon="11.184906">
<time>2020-09-27T13:36:43Z</time>
</trkpt>
<trkpt lat="45.994496" lon="11.184915">
<time>2020-09-27T13:36:44Z</time>
</trkpt>
<trkpt lat="45.994506" lon="11.184926">
<time>2020-09-27T13:36:45Z</time>
</trkpt>
<trkpt lat="45.994516" lon="11.184928">
<time>2020-09-27T13:36:46Z</time>
</trkpt>
<trkpt lat="45.994521" lon="11.18492">
<time>2020-09-27T13:36:47Z</time>
</trkpt>
<trkpt lat="45.994511" lon="11.184918">
<time>2020-09-27T13:36:48Z</time>
</trkpt>
<trkpt lat="45.994505" lon="11.184925">
<time>2020-09-27T13:36:49Z</time>
</trkpt>
<trkpt lat="45.994501" lon="11.184936">
<time>2020-09-27T13:36:50Z</time>
</trkpt>
<trkpt lat="45.994501" lon="11.18494">
<time>2020-09-27T13:36:51Z</time>
</trkpt>
<trkpt lat="45.994498" lon="11.184946">
<time>2020-09-27T13:36:52Z</time>
</trkpt>
<trkpt lat="45.994495" lon="11.184948">
<time>2020-09-27T13:36:53Z</time>
</trkpt>
<trkpt lat="45.994496" lon="11.184948">
<time>2020-09-27T13:36:54Z</time>
</trkpt>
<trkpt lat="45.9945" lon="11.184945">
<time>2020-09-27T13:36:55Z</time>
</trkpt>
<trkpt lat="45.9945" lon="11.184945">
<time>2020-09-27T13:36:56Z</time>
</trkpt>
<trkpt lat="45.994496" lon="11.184945">
<time>2020-09-27T13:36:57Z</time>
</trkpt>
<trkpt lat="45.994493" lon="11.184945">
<time>2020-09-27T13:36:58Z</time>
</trkpt>
<trkpt lat="45.99449" lon="11.184943">
<time>2020-09-27T13:36:59Z</time>
</trkpt>
<trkpt lat="45.994488" lon="11.184941">
<time>2020-09-27T13:37:00Z</time>
</trkpt>
<trkpt lat="45.994486" lon="11.184938">
<time>2020-09-27T13:37:01Z</time>
</trkpt>
<trkpt lat="45.994485" lon="11.184933">
<time>2020-09-27T13:37:02Z</time>
</trkpt>
<trkpt lat="45.994481" lon="11.184926">
<time>2020-09-27T13:37:03Z</time>
</trkpt>
<trkpt lat="45.994478" lon="11.184918">
<time>2020-09-27T13:37:04Z</time>
</trkpt>
<trkpt lat="45.994473" lon="11.184908">
<time>2020-09-27T13:37:05Z</time>
</trkpt>
<trkpt lat="45.994473" lon="11.184903">
<time>2020-09-27T13:37:06Z</time>
</trkpt>
<trkpt lat="45.994478" lon="11.184896">
<time>2020-09-27T13:37:07Z</time>
</trkpt>
<trkpt lat="45.994485" lon="11.184885">
<time>2020-09-27T13:37:08Z</time>
</trkpt>
<trkpt lat="45.994493" lon="11.184871">
<time>2020-09-27T13:37:09Z</time>
</trkpt>
<trkpt lat="45.994503" lon="11.184858">
<time>2020-09-27T13:37:10Z</time>
</trkpt>
<trkpt lat="45.99451" lon="11.184846">
<time>2020-09-27T13:37:11Z</time>
</trkpt>
<trkpt lat="45.994516" lon="11.184835">
<time>2020-09-27T13:37:12Z</time>
</trkpt>
<trkpt lat="45.994523" lon="11.184825">
<time>2020-09-27T13:37:13Z</time>
</trkpt>
<trkpt lat="45.994526" lon="11.18481">
<time>2020-09-27T13:37:14Z</time>
</trkpt>
<trkpt lat="45.99453" lon="11.184793">
<time>2020-09-27T13:37:15Z</time>
</trkpt>
<trkpt lat="45.994531" lon="11.184776">
<time>2020-09-27T13:37:16Z</time>
</trkpt>
<trkpt lat="45.994533" lon="11.184756">
<time>2020-09-27T13:37:17Z</time>
</trkpt>
<trkpt lat="45.994535" lon="11.184743">
<time>2020-09-27T13:37:18Z</time>
</trkpt>
<trkpt lat="45.994535" lon="11.184728">
<time>2020-09-27T13:37:19Z</time>
</trkpt>
<trkpt lat="45.994536" lon="11.184706">
<time>2020-09-27T13:37:20Z</time>
</trkpt>
<trkpt lat="45.994536" lon="11.18468">
<time>2020-09-27T13:37:21Z</time>
</trkpt>
<trkpt lat="45.994533" lon="11.184651">
<time>2020-09-27T13:37:22Z</time>
</trkpt>
<trkpt lat="45.994536" lon="11.184623">
<time>2020-09-27T13:37:23Z</time>
</trkpt>
<trkpt lat="45.99454" lon="11.184591">
<time>2020-09-27T13:37:24Z</time>
</trkpt>
<trkpt lat="45.994546" lon="11.184555">
<time>2020-09-27T13:37:25Z</time>
</trkpt>
<trkpt lat="45.994555" lon="11.184518">
<time>2020-09-27T13:37:26Z</time>
</trkpt>
<trkpt lat="45.99457" lon="11.184488">
<time>2020-09-27T13:37:27Z</time>
</trkpt>
<trkpt lat="45.994581" lon="11.184445">
<time>2020-09-27T13:37:28Z</time>
</trkpt>
<trkpt lat="45.994596" lon="11.184413">
<time>2020-09-27T13:37:29Z</time>
</trkpt>
<trkpt lat="45.994608" lon="11.184386">
<time>2020-09-27T13:37:30Z</time>
</trkpt>
<trkpt lat="45.994623" lon="11.184353">
<time>2020-09-27T13:37:31Z</time>
</trkpt>
<trkpt lat="45.99463" lon="11.184318">
<time>2020-09-27T13:37:32Z</time>
</trkpt>
<trkpt lat="45.994635" lon="11.184298">
<time>2020-09-27T13:37:33Z</time>
</trkpt>
<trkpt lat="45.994638" lon="11.184273">
<time>2020-09-27T13:37:34Z</time>
</trkpt>
<trkpt lat="45.994643" lon="11.184246">
<time>2020-09-27T13:37:35Z</time>
</trkpt>
<trkpt lat="45.994646" lon="11.184216">
<time>2020-09-27T13:37:36Z</time>
</trkpt>
<trkpt lat="45.994648" lon="11.184186">
<time>2020-09-27T13:37:37Z</time>
</trkpt>
<trkpt lat="45.994653" lon="11.184156">
<time>2020-09-27T13:37:38Z</time>
</trkpt>
<trkpt lat="45.99466" lon="11.184126">
<time>2020-09-27T13:37:39Z</time>
</trkpt>
<trkpt lat="45.994665" lon="11.1841">
<time>2020-09-27T13:37:40Z</time>
</trkpt>
<trkpt lat="45.994671" lon="11.184078">
<time>2020-09-27T13:37:41Z</time>
</trkpt>
<trkpt lat="45.994681" lon="11.18406">
<time>2020-09-27T13:37:42Z</time>
</trkpt>
<trkpt lat="45.99469" lon="11.184045">
<time>2020-09-27T13:37:43Z</time>
</trkpt>
<trkpt lat="45.994695" lon="11.184026">
<time>2020-09-27T13:37:44Z</time>
</trkpt>
<trkpt lat="45.9947" lon="11.184001">
<time>2020-09-27T13:37:45Z</time>
</trkpt>
<trkpt lat="45.99471" lon="11.183986">
<time>2020-09-27T13:37:46Z</time>
</trkpt>
<trkpt lat="45.99472" lon="11.18396">
<time>2020-09-27T13:37:47Z</time>
</trkpt>
<trkpt lat="45.994731" lon="11.183935">
<time>2020-09-27T13:37:48Z</time>
</trkpt>
<trkpt lat="45.994745" lon="11.183915">
<time>2020-09-27T13:37:49Z</time>
</trkpt>
<trkpt lat="45.994753" lon="11.183895">
<time>2020-09-27T13:37:50Z</time>
</trkpt>
<trkpt lat="45.994761" lon="11.183876">
<time>2020-09-27T13:37:51Z</time>
</trkpt>
<trkpt lat="45.994765" lon="11.183855">
<time>2020-09-27T13:37:52Z</time>
</trkpt>
<trkpt lat="45.994766" lon="11.183831">
<time>2020-09-27T13:37:53Z</time>
</trkpt>
<trkpt lat="45.994771" lon="11.183811">
<time>2020-09-27T13:37:54Z</time>
</trkpt>
<trkpt lat="45.994778" lon="11.183788">
<time>2020-09-27T13:37:55Z</time>
</trkpt>
<trkpt lat="45.994783" lon="11.183766">
<time>2020-09-27T13:37:56Z</time>
</trkpt>
<trkpt lat="45.99479" lon="11.183746">
<time>2020-09-27T13:37:57Z</time>
</trkpt>
<trkpt lat="45.994795" lon="11.18373">
<time>2020-09-27T13:37:58Z</time>
</trkpt>
<trkpt lat="45.994801" lon="11.183711">
<time>2020-09-27T13:37:59Z</time>
</trkpt>
<trkpt lat="45.994808" lon="11.183693">
<time>2020-09-27T13:38:00Z</time>
</trkpt>
<trkpt lat="45.994815" lon="11.183676">
<time>2020-09-27T13:38:01Z</time>
</trkpt>
<trkpt lat="45.994823" lon="11.183663">
<time>2020-09-27T13:38:02Z</time>
</trkpt>
<trkpt lat="45.994825" lon="11.183643">
<time>2020-09-27T13:38:03Z</time>
</trkpt>
<trkpt lat="45.994823" lon="11.183625">
<time>2020-09-27T13:38:04Z</time>
</trkpt>
<trkpt lat="45.994823" lon="11.183608">
<time>2020-09-27T13:38:05Z</time>
</trkpt>
<trkpt lat="45.994825" lon="11.183591">
<time>2020-09-27T13:38:06Z</time>
</trkpt>
<trkpt lat="45.994823" lon="11.183571">
<time>2020-09-27T13:38:07Z</time>
</trkpt>
<trkpt lat="45.994828" lon="11.183551">
<time>2020-09-27T13:38:08Z</time>
</trkpt>
<trkpt lat="45.994835" lon="11.183535">
<time>2020-09-27T13:38:09Z</time>
</trkpt>
<trkpt lat="45.994838" lon="11.183516">
<time>2020-09-27T13:38:10Z</time>
</trkpt>
<trkpt lat="45.994836" lon="11.183498">
<time>2020-09-27T13:38:11Z</time>
</trkpt>
<trkpt lat="45.994833" lon="11.183481">
<time>2020-09-27T13:38:12Z</time>
</trkpt>
<trkpt lat="45.994831" lon="11.18347">
<time>2020-09-27T13:38:13Z</time>
</trkpt>
<trkpt lat="45.994823" lon="11.183456">
<time>2020-09-27T13:38:14Z</time>
</trkpt>
<trkpt lat="45.994818" lon="11.183448">
<time>2020-09-27T13:38:15Z</time>
</trkpt>
<trkpt lat="45.994815" lon="11.183431">
<time>2020-09-27T13:38:16Z</time>
</trkpt>
<trkpt lat="45.994815" lon="11.18341">
<time>2020-09-27T13:38:17Z</time>
</trkpt>
<trkpt lat="45.994813" lon="11.183391">
<time>2020-09-27T13:38:18Z</time>
</trkpt>
<trkpt lat="45.994806" lon="11.183375">
<time>2020-09-27T13:38:19Z</time>
</trkpt>
<trkpt lat="45.994805" lon="11.18336">
<time>2020-09-27T13:38:20Z</time>
</trkpt>
<trkpt lat="45.994801" lon="11.183343">
<time>2020-09-27T13:38:21Z</time>
</trkpt>
<trkpt lat="45.994796" lon="11.183328">
<time>2020-09-27T13:38:22Z</time>
</trkpt>
<trkpt lat="45.99479" lon="11.183316">
<time>2020-09-27T13:38:23Z</time>
</trkpt>
<trkpt lat="45.994786" lon="11.1833">
<time>2020-09-27T13:38:24Z</time>
</trkpt>
<trkpt lat="45.99478" lon="11.183283">
<time>2020-09-27T13:38:25Z</time>
</trkpt>
<trkpt lat="45.994775" lon="11.183268">
<time>2020-09-27T13:38:26Z</time>
</trkpt>
<trkpt lat="45.99477" lon="11.183248">
<time>2020-09-27T13:38:27Z</time>
</trkpt>
<trkpt lat="45.994766" lon="11.183231">
<time>2020-09-27T13:38:28Z</time>
</trkpt>
<trkpt lat="45.994758" lon="11.183211">
<time>2020-09-27T13:38:29Z</time>
</trkpt>
<trkpt lat="45.994746" lon="11.183196">
<time>2020-09-27T13:38:30Z</time>
</trkpt>
<trkpt lat="45.994738" lon="11.183196">
<time>2020-09-27T13:38:31Z</time>
</trkpt>
<trkpt lat="45.994736" lon="11.183183">
<time>2020-09-27T13:38:32Z</time>
</trkpt>
<trkpt lat="45.99474" lon="11.183166">
<time>2020-09-27T13:38:33Z</time>
</trkpt>
<trkpt lat="45.99474" lon="11.183141">
<time>2020-09-27T13:38:34Z</time>
</trkpt>
<trkpt lat="45.994745" lon="11.183126">
<time>2020-09-27T13:38:35Z</time>
</trkpt>
<trkpt lat="45.994753" lon="11.183106">
<time>2020-09-27T13:38:36Z</time>
</trkpt>
<trkpt lat="45.994761" lon="11.183078">
<time>2020-09-27T13:38:37Z</time>
</trkpt>
<trkpt lat="45.99477" lon="11.18306">
<time>2020-09-27T13:38:38Z</time>
</trkpt>
<trkpt lat="45.994776" lon="11.183036">
<time>2020-09-27T13:38:39Z</time>
</trkpt>
<trkpt lat="45.994783" lon="11.18301">
<time>2020-09-27T13:38:40Z</time>
</trkpt>
<trkpt lat="45.994783" lon="11.182986">
<time>2020-09-27T13:38:41Z</time>
</trkpt>
<trkpt lat="45.99479" lon="11.182966">
<time>2020-09-27T13:38:42Z</time>
</trkpt>
<trkpt lat="45.994793" lon="11.182953">
<time>2020-09-27T13:38:43Z</time>
</trkpt>
<trkpt lat="45.994795" lon="11.182933">
<time>2020-09-27T13:38:44Z</time>
</trkpt>
<trkpt lat="45.9948" lon="11.182913">
<time>2020-09-27T13:38:45Z</time>
</trkpt>
<trkpt lat="45.994808" lon="11.182873">
<time>2020-09-27T13:38:46Z</time>
</trkpt>
<trkpt lat="45.994813" lon="11.182833">
<time>2020-09-27T13:38:47Z</time>
</trkpt>
<trkpt lat="45.994821" lon="11.182811">
<time>2020-09-27T13:38:48Z</time>
</trkpt>
<trkpt lat="45.994826" lon="11.182795">
<time>2020-09-27T13:38:49Z</time>
</trkpt>
<trkpt lat="45.994828" lon="11.182786">
<time>2020-09-27T13:38:50Z</time>
</trkpt>
<trkpt lat="45.994831" lon="11.182768">
<time>2020-09-27T13:38:51Z</time>
</trkpt>
<trkpt lat="45.99483" lon="11.182751">
<time>2020-09-27T13:38:52Z</time>
</trkpt>
<trkpt lat="45.994828" lon="11.182726">
<time>2020-09-27T13:38:53Z</time>
</trkpt>
<trkpt lat="45.994831" lon="11.182706">
<time>2020-09-27T13:38:54Z</time>
</trkpt>
<trkpt lat="45.994831" lon="11.182683">
<time>2020-09-27T13:38:55Z</time>
</trkpt>
<trkpt lat="45.99484" lon="11.182658">
<time>2020-09-27T13:38:56Z</time>
</trkpt>
<trkpt lat="45.994846" lon="11.182631">
<time>2020-09-27T13:38:57Z</time>
</trkpt>
<trkpt lat="45.99486" lon="11.182601">
<time>2020-09-27T13:38:58Z</time>
</trkpt>
<trkpt lat="45.994871" lon="11.182581">
<time>2020-09-27T13:38:59Z</time>
</trkpt>
<trkpt lat="45.994881" lon="11.182566">
<time>2020-09-27T13:39:00Z</time>
</trkpt>
<trkpt lat="45.99489" lon="11.182548">
<time>2020-09-27T13:39:01Z</time>
</trkpt>
<trkpt lat="45.994895" lon="11.182533">
<time>2020-09-27T13:39:02Z</time>
</trkpt>
<trkpt lat="45.994908" lon="11.182511">
<time>2020-09-27T13:39:03Z</time>
</trkpt>
<trkpt lat="45.99492" lon="11.182493">
<time>2020-09-27T13:39:04Z</time>
</trkpt>
<trkpt lat="45.994933" lon="11.182476">
<time>2020-09-27T13:39:05Z</time>
</trkpt>
<trkpt lat="45.994946" lon="11.182451">
<time>2020-09-27T13:39:06Z</time>
</trkpt>
<trkpt lat="45.994956" lon="11.182435">
<time>2020-09-27T13:39:07Z</time>
</trkpt>
<trkpt lat="45.99497" lon="11.18242">
<time>2020-09-27T13:39:08Z</time>
</trkpt>
<trkpt lat="45.994983" lon="11.182408">
<time>2020-09-27T13:39:09Z</time>
</trkpt>
<trkpt lat="45.995001" lon="11.182396">
<time>2020-09-27T13:39:10Z</time>
</trkpt>
<trkpt lat="45.995016" lon="11.182383">
<time>2020-09-27T13:39:11Z</time>
</trkpt>
<trkpt lat="45.99503" lon="11.182366">
<time>2020-09-27T13:39:12Z</time>
</trkpt>
<trkpt lat="45.995041" lon="11.182346">
<time>2020-09-27T13:39:13Z</time>
</trkpt>
<trkpt lat="45.995058" lon="11.182331">
<time>2020-09-27T13:39:14Z</time>
</trkpt>
<trkpt lat="45.995071" lon="11.18232">
<time>2020-09-27T13:39:15Z</time>
</trkpt>
<trkpt lat="45.995085" lon="11.182306">
<time>2020-09-27T13:39:16Z</time>
</trkpt>
<trkpt lat="45.995095" lon="11.18229">
<time>2020-09-27T13:39:17Z</time>
</trkpt>
<trkpt lat="45.995113" lon="11.18226">
<time>2020-09-27T13:39:18Z</time>
</trkpt>
<trkpt lat="45.995136" lon="11.182231">
<time>2020-09-27T13:39:19Z</time>
</trkpt>
<trkpt lat="45.995155" lon="11.1822">
<time>2020-09-27T13:39:20Z</time>
</trkpt>
<trkpt lat="45.995171" lon="11.182165">
<time>2020-09-27T13:39:21Z</time>
</trkpt>
<trkpt lat="45.995186" lon="11.182145">
<time>2020-09-27T13:39:22Z</time>
</trkpt>
<trkpt lat="45.995203" lon="11.182121">
<time>2020-09-27T13:39:23Z</time>
</trkpt>
<trkpt lat="45.995218" lon="11.182101">
<time>2020-09-27T13:39:24Z</time>
</trkpt>
<trkpt lat="45.99523" lon="11.182086">
<time>2020-09-27T13:39:25Z</time>
</trkpt>
<trkpt lat="45.995243" lon="11.182073">
<time>2020-09-27T13:39:26Z</time>
</trkpt>
<trkpt lat="45.995256" lon="11.182061">
<time>2020-09-27T13:39:27Z</time>
</trkpt>
<trkpt lat="45.995273" lon="11.182043">
<time>2020-09-27T13:39:28Z</time>
</trkpt>
<trkpt lat="45.995293" lon="11.182023">
<time>2020-09-27T13:39:29Z</time>
</trkpt>
<trkpt lat="45.99531" lon="11.182003">
<time>2020-09-27T13:39:30Z</time>
</trkpt>
<trkpt lat="45.995328" lon="11.181981">
<time>2020-09-27T13:39:31Z</time>
</trkpt>
<trkpt lat="45.995345" lon="11.181965">
<time>2020-09-27T13:39:32Z</time>
</trkpt>
<trkpt lat="45.995355" lon="11.181943">
<time>2020-09-27T13:39:33Z</time>
</trkpt>
<trkpt lat="45.995358" lon="11.181931">
<time>2020-09-27T13:39:34Z</time>
</trkpt>
<trkpt lat="45.995365" lon="11.181916">
<time>2020-09-27T13:39:35Z</time>
</trkpt>
<trkpt lat="45.995373" lon="11.181895">
<time>2020-09-27T13:39:36Z</time>
</trkpt>
<trkpt lat="45.995385" lon="11.181873">
<time>2020-09-27T13:39:37Z</time>
</trkpt>
<trkpt lat="45.995398" lon="11.18185">
<time>2020-09-27T13:39:38Z</time>
</trkpt>
<trkpt lat="45.995413" lon="11.181841">
<time>2020-09-27T13:39:39Z</time>
</trkpt>
<trkpt lat="45.995428" lon="11.181821">
<time>2020-09-27T13:39:40Z</time>
</trkpt>
<trkpt lat="45.995446" lon="11.18179">
<time>2020-09-27T13:39:41Z</time>
</trkpt>
<trkpt lat="45.995461" lon="11.181751">
<time>2020-09-27T13:39:42Z</time>
</trkpt>
<trkpt lat="45.995473" lon="11.181723">
<time>2020-09-27T13:39:43Z</time>
</trkpt>
<trkpt lat="45.995488" lon="11.181698">
<time>2020-09-27T13:39:44Z</time>
</trkpt>
<trkpt lat="45.995498" lon="11.181675">
<time>2020-09-27T13:39:45Z</time>
</trkpt>
<trkpt lat="45.995503" lon="11.181648">
<time>2020-09-27T13:39:46Z</time>
</trkpt>
<trkpt lat="45.995515" lon="11.181613">
<time>2020-09-27T13:39:47Z</time>
</trkpt>
<trkpt lat="45.995526" lon="11.18158">
<time>2020-09-27T13:39:48Z</time>
</trkpt>
<trkpt lat="45.995541" lon="11.181548">
<time>2020-09-27T13:39:49Z</time>
</trkpt>
<trkpt lat="45.99556" lon="11.181515">
<time>2020-09-27T13:39:50Z</time>
</trkpt>
<trkpt lat="45.995575" lon="11.181483">
<time>2020-09-27T13:39:51Z</time>
</trkpt>
<trkpt lat="45.99559" lon="11.18146">
<time>2020-09-27T13:39:52Z</time>
</trkpt>
<trkpt lat="45.995601" lon="11.181441">
<time>2020-09-27T13:39:53Z</time>
</trkpt>
<trkpt lat="45.995608" lon="11.181426">
<time>2020-09-27T13:39:54Z</time>
</trkpt>
<trkpt lat="45.995611" lon="11.181416">
<time>2020-09-27T13:39:55Z</time>
</trkpt>
<trkpt lat="45.995618" lon="11.181403">
<time>2020-09-27T13:39:56Z</time>
</trkpt>
<trkpt lat="45.995625" lon="11.18139">
<time>2020-09-27T13:39:57Z</time>
</trkpt>
<trkpt lat="45.995638" lon="11.181378">
<time>2020-09-27T13:39:58Z</time>
</trkpt>
<trkpt lat="45.99565" lon="11.18137">
<time>2020-09-27T13:39:59Z</time>
</trkpt>
<trkpt lat="45.99566" lon="11.181365">
<time>2020-09-27T13:40:00Z</time>
</trkpt>
<trkpt lat="45.995663" lon="11.18136">
<time>2020-09-27T13:40:01Z</time>
</trkpt>
<trkpt lat="45.995663" lon="11.181356">
<time>2020-09-27T13:40:02Z</time>
</trkpt>
<trkpt lat="45.995661" lon="11.181353">
<time>2020-09-27T13:40:03Z</time>
</trkpt>
<trkpt lat="45.995665" lon="11.181351">
<time>2020-09-27T13:40:04Z</time>
</trkpt>
<trkpt lat="45.99567" lon="11.181353">
<time>2020-09-27T13:40:05Z</time>
</trkpt>
<trkpt lat="45.995676" lon="11.181351">
<time>2020-09-27T13:40:06Z</time>
</trkpt>
<trkpt lat="45.995681" lon="11.18135">
<time>2020-09-27T13:40:07Z</time>
</trkpt>
<trkpt lat="45.995678" lon="11.18133">
<time>2020-09-27T13:40:08Z</time>
</trkpt>
<trkpt lat="45.995678" lon="11.181313">
<time>2020-09-27T13:40:09Z</time>
</trkpt>
<trkpt lat="45.99568" lon="11.181305">
<time>2020-09-27T13:40:10Z</time>
</trkpt>
<trkpt lat="45.995683" lon="11.181296">
<time>2020-09-27T13:40:11Z</time>
</trkpt>
<trkpt lat="45.995688" lon="11.18129">
<time>2020-09-27T13:40:12Z</time>
</trkpt>
<trkpt lat="45.99569" lon="11.18128">
<time>2020-09-27T13:40:13Z</time>
</trkpt>
<trkpt lat="45.995695" lon="11.181271">
<time>2020-09-27T13:40:14Z</time>
</trkpt>
<trkpt lat="45.995701" lon="11.18126">
<time>2020-09-27T13:40:15Z</time>
</trkpt>
<trkpt lat="45.995705" lon="11.181241">
<time>2020-09-27T13:40:16Z</time>
</trkpt>
<trkpt lat="45.99571" lon="11.181223">
<time>2020-09-27T13:40:17Z</time>
</trkpt>
<trkpt lat="45.995715" lon="11.181206">
<time>2020-09-27T13:40:18Z</time>
</trkpt>
<trkpt lat="45.995725" lon="11.181186">
<time>2020-09-27T13:40:19Z</time>
</trkpt>
<trkpt lat="45.995738" lon="11.181165">
<time>2020-09-27T13:40:20Z</time>
</trkpt>
<trkpt lat="45.995748" lon="11.18115">
<time>2020-09-27T13:40:21Z</time>
</trkpt>
<trkpt lat="45.995753" lon="11.181131">
<time>2020-09-27T13:40:22Z</time>
</trkpt>
<trkpt lat="45.995758" lon="11.181105">
<time>2020-09-27T13:40:23Z</time>
</trkpt>
<trkpt lat="45.995765" lon="11.181095">
<time>2020-09-27T13:40:24Z</time>
</trkpt>
<trkpt lat="45.995773" lon="11.181086">
<time>2020-09-27T13:40:25Z</time>
</trkpt>
<trkpt lat="45.995775" lon="11.181076">
<time>2020-09-27T13:40:26Z</time>
</trkpt>
<trkpt lat="45.995785" lon="11.181063">
<time>2020-09-27T13:40:27Z</time>
</trkpt>
<trkpt lat="45.995791" lon="11.18105">
<time>2020-09-27T13:40:28Z</time>
</trkpt>
<trkpt lat="45.9958" lon="11.181035">
<time>2020-09-27T13:40:29Z</time>
</trkpt>
<trkpt lat="45.995811" lon="11.181018">
<time>2020-09-27T13:40:30Z</time>
</trkpt>
<trkpt lat="45.995818" lon="11.180996">
<time>2020-09-27T13:40:31Z</time>
</trkpt>
<trkpt lat="45.995831" lon="11.180971">
<time>2020-09-27T13:40:32Z</time>
</trkpt>
<trkpt lat="45.99584" lon="11.180943">
<time>2020-09-27T13:40:33Z</time>
</trkpt>
<trkpt lat="45.995841" lon="11.180915">
<time>2020-09-27T13:40:34Z</time>
</trkpt>
<trkpt lat="45.995845" lon="11.180886">
<time>2020-09-27T13:40:35Z</time>
</trkpt>
<trkpt lat="45.995848" lon="11.180861">
<time>2020-09-27T13:40:36Z</time>
</trkpt>
<trkpt lat="45.995851" lon="11.180841">
<time>2020-09-27T13:40:37Z</time>
</trkpt>
<trkpt lat="45.995853" lon="11.180823">
<time>2020-09-27T13:40:38Z</time>
</trkpt>
<trkpt lat="45.995853" lon="11.180813">
<time>2020-09-27T13:40:39Z</time>
</trkpt>
<trkpt lat="45.995856" lon="11.180796">
<time>2020-09-27T13:40:40Z</time>
</trkpt>
<trkpt lat="45.995856" lon="11.18077">
<time>2020-09-27T13:40:41Z</time>
</trkpt>
<trkpt lat="45.995853" lon="11.180751">
<time>2020-09-27T13:40:42Z</time>
</trkpt>
<trkpt lat="45.995861" lon="11.180745">
<time>2020-09-27T13:40:43Z</time>
</trkpt>
<trkpt lat="45.995868" lon="11.180721">
<time>2020-09-27T13:40:44Z</time>
</trkpt>
<trkpt lat="45.995881" lon="11.18071">
<time>2020-09-27T13:40:45Z</time>
</trkpt>
<trkpt lat="45.9959" lon="11.180703">
<time>2020-09-27T13:40:46Z</time>
</trkpt>
<trkpt lat="45.995911" lon="11.180693">
<time>2020-09-27T13:40:47Z</time>
</trkpt>
<trkpt lat="45.995918" lon="11.180695">
<time>2020-09-27T13:40:48Z</time>
</trkpt>
<trkpt lat="45.995921" lon="11.180693">
<time>2020-09-27T13:40:49Z</time>
</trkpt>
<trkpt lat="45.995921" lon="11.180685">
<time>2020-09-27T13:40:50Z</time>
</trkpt>
<trkpt lat="45.995923" lon="11.180675">
<time>2020-09-27T13:40:51Z</time>
</trkpt>
<trkpt lat="45.995926" lon="11.180663">
<time>2020-09-27T13:40:52Z</time>
</trkpt>
<trkpt lat="45.995935" lon="11.180655">
<time>2020-09-27T13:40:53Z</time>
</trkpt>
<trkpt lat="45.995948" lon="11.180648">
<time>2020-09-27T13:40:54Z</time>
</trkpt>
<trkpt lat="45.995963" lon="11.180643">
<time>2020-09-27T13:40:55Z</time>
</trkpt>
<trkpt lat="45.995978" lon="11.180645">
<time>2020-09-27T13:40:56Z</time>
</trkpt>
<trkpt lat="45.995993" lon="11.180648">
<time>2020-09-27T13:40:57Z</time>
</trkpt>
<trkpt lat="45.996005" lon="11.180646">
<time>2020-09-27T13:40:58Z</time>
</trkpt>
<trkpt lat="45.996018" lon="11.180646">
<time>2020-09-27T13:40:59Z</time>
</trkpt>
<trkpt lat="45.99603" lon="11.180646">
<time>2020-09-27T13:41:00Z</time>
</trkpt>
<trkpt lat="45.996038" lon="11.180645">
<time>2020-09-27T13:41:01Z</time>
</trkpt>
<trkpt lat="45.996051" lon="11.180641">
<time>2020-09-27T13:41:02Z</time>
</trkpt>
<trkpt lat="45.996068" lon="11.180641">
<time>2020-09-27T13:41:03Z</time>
</trkpt>
<trkpt lat="45.996088" lon="11.180651">
<time>2020-09-27T13:41:04Z</time>
</trkpt>
<trkpt lat="45.99611" lon="11.180658">
<time>2020-09-27T13:41:05Z</time>
</trkpt>
<trkpt lat="45.996131" lon="11.180661">
<time>2020-09-27T13:41:06Z</time>
</trkpt>
<trkpt lat="45.996156" lon="11.180665">
<time>2020-09-27T13:41:07Z</time>
</trkpt>
<trkpt lat="45.996176" lon="11.180661">
<time>2020-09-27T13:41:08Z</time>
</trkpt>
<trkpt lat="45.996201" lon="11.180661">
<time>2020-09-27T13:41:09Z</time>
</trkpt>
<trkpt lat="45.996221" lon="11.18066">
<time>2020-09-27T13:41:10Z</time>
</trkpt>
<trkpt lat="45.996241" lon="11.180651">
<time>2020-09-27T13:41:11Z</time>
</trkpt>
<trkpt lat="45.99626" lon="11.180641">
<time>2020-09-27T13:41:12Z</time>
</trkpt>
<trkpt lat="45.996276" lon="11.180633">
<time>2020-09-27T13:41:13Z</time>
</trkpt>
<trkpt lat="45.996295" lon="11.180628">
<time>2020-09-27T13:41:14Z</time>
</trkpt>
<trkpt lat="45.996315" lon="11.18063">
<time>2020-09-27T13:41:15Z</time>
</trkpt>
<trkpt lat="45.996338" lon="11.18063">
<time>2020-09-27T13:41:16Z</time>
</trkpt>
<trkpt lat="45.996365" lon="11.180631">
<time>2020-09-27T13:41:17Z</time>
</trkpt>
<trkpt lat="45.996391" lon="11.180638">
<time>2020-09-27T13:41:18Z</time>
</trkpt>
<trkpt lat="45.996403" lon="11.180633">
<time>2020-09-27T13:41:19Z</time>
</trkpt>
<trkpt lat="45.996413" lon="11.180625">
<time>2020-09-27T13:41:20Z</time>
</trkpt>
<trkpt lat="45.996421" lon="11.18062">
<time>2020-09-27T13:41:21Z</time>
</trkpt>
<trkpt lat="45.996446" lon="11.180628">
<time>2020-09-27T13:41:22Z</time>
</trkpt>
<trkpt lat="45.996465" lon="11.180633">
<time>2020-09-27T13:41:23Z</time>
</trkpt>
<trkpt lat="45.996478" lon="11.180636">
<time>2020-09-27T13:41:24Z</time>
</trkpt>
<trkpt lat="45.99649" lon="11.180638">
<time>2020-09-27T13:41:25Z</time>
</trkpt>
<trkpt lat="45.996503" lon="11.18064">
<time>2020-09-27T13:41:26Z</time>
</trkpt>
<trkpt lat="45.996515" lon="11.180645">
<time>2020-09-27T13:41:27Z</time>
</trkpt>
<trkpt lat="45.996526" lon="11.18065">
<time>2020-09-27T13:41:28Z</time>
</trkpt>
<trkpt lat="45.99654" lon="11.180658">
<time>2020-09-27T13:41:29Z</time>
</trkpt>
<trkpt lat="45.996555" lon="11.180668">
<time>2020-09-27T13:41:30Z</time>
</trkpt>
<trkpt lat="45.996568" lon="11.180673">
<time>2020-09-27T13:41:31Z</time>
</trkpt>
<trkpt lat="45.996583" lon="11.180681">
<time>2020-09-27T13:41:32Z</time>
</trkpt>
<trkpt lat="45.996595" lon="11.180688">
<time>2020-09-27T13:41:33Z</time>
</trkpt>
<trkpt lat="45.996601" lon="11.180688">
<time>2020-09-27T13:41:34Z</time>
</trkpt>
<trkpt lat="45.996601" lon="11.180691">
<time>2020-09-27T13:41:35Z</time>
</trkpt>
<trkpt lat="45.996598" lon="11.180698">
<time>2020-09-27T13:41:36Z</time>
</trkpt>
<trkpt lat="45.996595" lon="11.18071">
<time>2020-09-27T13:41:37Z</time>
</trkpt>
<trkpt lat="45.996593" lon="11.180716">
<time>2020-09-27T13:41:38Z</time>
</trkpt>
<trkpt lat="45.99659" lon="11.180721">
<time>2020-09-27T13:41:39Z</time>
</trkpt>
<trkpt lat="45.996583" lon="11.18072">
<time>2020-09-27T13:41:40Z</time>
</trkpt>
<trkpt lat="45.996578" lon="11.180716">
<time>2020-09-27T13:41:41Z</time>
</trkpt>
<trkpt lat="45.996573" lon="11.180713">
<time>2020-09-27T13:41:42Z</time>
</trkpt>
<trkpt lat="45.99657" lon="11.180711">
<time>2020-09-27T13:41:43Z</time>
</trkpt>
<trkpt lat="45.996565" lon="11.180708">
<time>2020-09-27T13:41:44Z</time>
</trkpt>
<trkpt lat="45.996561" lon="11.180706">
<time>2020-09-27T13:41:45Z</time>
</trkpt>
<trkpt lat="45.996558" lon="11.180705">
<time>2020-09-27T13:41:46Z</time>
</trkpt>
<trkpt lat="45.996553" lon="11.180705">
<time>2020-09-27T13:41:47Z</time>
</trkpt>
<trkpt lat="45.996553" lon="11.180705">
<time>2020-09-27T13:41:48Z</time>
</trkpt>
<trkpt lat="45.996553" lon="11.180705">
<time>2020-09-27T13:41:49Z</time>
</trkpt>
<trkpt lat="45.996553" lon="11.180705">
<time>2020-09-27T13:41:50Z</time>
</trkpt>
<trkpt lat="45.996553" lon="11.180705">
<time>2020-09-27T13:41:51Z</time>
</trkpt>
<trkpt lat="45.996553" lon="11.180705">
<time>2020-09-27T13:41:52Z</time>
</trkpt>
<trkpt lat="45.996553" lon="11.180705">
<time>2020-09-27T13:41:53Z</time>
</trkpt>
<trkpt lat="45.996553" lon="11.180705">
<time>2020-09-27T13:41:54Z</time>
</trkpt>
<trkpt lat="45.996553" lon="11.180705">
<time>2020-09-27T13:41:55Z</time>
</trkpt>
<trkpt lat="45.996553" lon="11.180706">
<time>2020-09-27T13:41:56Z</time>
</trkpt>
<trkpt lat="45.996553" lon="11.180706">
<time>2020-09-27T13:41:57Z</time>
</trkpt>
<trkpt lat="45.996553" lon="11.180708">
<time>2020-09-27T13:41:58Z</time>
</trkpt>
<trkpt lat="45.996555" lon="11.180721">
<time>2020-09-27T13:41:59Z</time>
</trkpt>
<trkpt lat="45.99656" lon="11.180753">
<time>2020-09-27T13:42:00Z</time>
</trkpt>
<trkpt lat="45.996563" lon="11.180785">
<time>2020-09-27T13:42:01Z</time>
</trkpt>
<trkpt lat="45.99657" lon="11.180811">
<time>2020-09-27T13:42:02Z</time>
</trkpt>
<trkpt lat="45.996576" lon="11.180828">
<time>2020-09-27T13:42:03Z</time>
</trkpt>
<trkpt lat="45.996586" lon="11.180845">
<time>2020-09-27T13:42:04Z</time>
</trkpt>
<trkpt lat="45.996593" lon="11.180873">
<time>2020-09-27T13:42:05Z</time>
</trkpt>
<trkpt lat="45.996601" lon="11.180918">
<time>2020-09-27T13:42:06Z</time>
</trkpt>
<trkpt lat="45.996611" lon="11.180965">
<time>2020-09-27T13:42:07Z</time>
</trkpt>
<trkpt lat="45.996621" lon="11.181008">
<time>2020-09-27T13:42:08Z</time>
</trkpt>
<trkpt lat="45.996631" lon="11.181031">
<time>2020-09-27T13:42:09Z</time>
</trkpt>
<trkpt lat="45.996638" lon="11.18105">
<time>2020-09-27T13:42:10Z</time>
</trkpt>
<trkpt lat="45.996646" lon="11.181061">
<time>2020-09-27T13:42:11Z</time>
</trkpt>
<trkpt lat="45.99665" lon="11.18107">
<time>2020-09-27T13:42:12Z</time>
</trkpt>
<trkpt lat="45.99665" lon="11.18107">
<time>2020-09-27T13:42:13Z</time>
</trkpt>
<trkpt lat="45.99665" lon="11.18107">
<time>2020-09-27T13:42:14Z</time>
</trkpt>
<trkpt lat="45.99665" lon="11.181073">
<time>2020-09-27T13:42:15Z</time>
</trkpt>
<trkpt lat="45.996651" lon="11.181076">
<time>2020-09-27T13:42:16Z</time>
</trkpt>
<trkpt lat="45.996648" lon="11.181075">
<time>2020-09-27T13:42:17Z</time>
</trkpt>
<trkpt lat="45.996643" lon="11.181066">
<time>2020-09-27T13:42:18Z</time>
</trkpt>
<trkpt lat="45.996636" lon="11.181061">
<time>2020-09-27T13:42:19Z</time>
</trkpt>
<trkpt lat="45.996635" lon="11.181056">
<time>2020-09-27T13:42:20Z</time>
</trkpt>
<trkpt lat="45.99664" lon="11.181046">
<time>2020-09-27T13:42:21Z</time>
</trkpt>
<trkpt lat="45.996656" lon="11.181033">
<time>2020-09-27T13:42:22Z</time>
</trkpt>
<trkpt lat="45.99667" lon="11.181031">
<time>2020-09-27T13:42:23Z</time>
</trkpt>
<trkpt lat="45.996675" lon="11.181028">
<time>2020-09-27T13:42:24Z</time>
</trkpt>
<trkpt lat="45.996678" lon="11.181023">
<time>2020-09-27T13:42:25Z</time>
</trkpt>
<trkpt lat="45.996681" lon="11.181018">
<time>2020-09-27T13:42:26Z</time>
</trkpt>
<trkpt lat="45.996688" lon="11.181018">
<time>2020-09-27T13:42:27Z</time>
</trkpt>
<trkpt lat="45.996696" lon="11.181016">
<time>2020-09-27T13:42:28Z</time>
</trkpt>
<trkpt lat="45.996696" lon="11.181005">
<time>2020-09-27T13:42:29Z</time>
</trkpt>
<trkpt lat="45.996698" lon="11.180986">
<time>2020-09-27T13:42:30Z</time>
</trkpt>
<trkpt lat="45.996701" lon="11.180971">
<time>2020-09-27T13:42:31Z</time>
</trkpt>
<trkpt lat="45.99671" lon="11.180956">
<time>2020-09-27T13:42:32Z</time>
</trkpt>
<trkpt lat="45.99672" lon="11.180943">
<time>2020-09-27T13:42:33Z</time>
</trkpt>
<trkpt lat="45.996726" lon="11.180923">
<time>2020-09-27T13:42:34Z</time>
</trkpt>
<trkpt lat="45.996731" lon="11.180905">
<time>2020-09-27T13:42:35Z</time>
</trkpt>
<trkpt lat="45.996741" lon="11.180888">
<time>2020-09-27T13:42:36Z</time>
</trkpt>
<trkpt lat="45.996755" lon="11.180871">
<time>2020-09-27T13:42:37Z</time>
</trkpt>
<trkpt lat="45.996765" lon="11.18086">
<time>2020-09-27T13:42:38Z</time>
</trkpt>
<trkpt lat="45.996776" lon="11.180835">
<time>2020-09-27T13:42:39Z</time>
</trkpt>
<trkpt lat="45.996788" lon="11.180803">
<time>2020-09-27T13:42:40Z</time>
</trkpt>
<trkpt lat="45.9968" lon="11.180778">
<time>2020-09-27T13:42:41Z</time>
</trkpt>
<trkpt lat="45.996808" lon="11.180753">
<time>2020-09-27T13:42:42Z</time>
</trkpt>
<trkpt lat="45.996811" lon="11.180731">
<time>2020-09-27T13:42:43Z</time>
</trkpt>
<trkpt lat="45.996823" lon="11.18071">
<time>2020-09-27T13:42:44Z</time>
</trkpt>
<trkpt lat="45.996838" lon="11.180681">
<time>2020-09-27T13:42:45Z</time>
</trkpt>
<trkpt lat="45.996851" lon="11.180651">
<time>2020-09-27T13:42:46Z</time>
</trkpt>
<trkpt lat="45.996866" lon="11.180618">
<time>2020-09-27T13:42:47Z</time>
</trkpt>
<trkpt lat="45.996881" lon="11.180583">
<time>2020-09-27T13:42:48Z</time>
</trkpt>
<trkpt lat="45.99689" lon="11.180555">
<time>2020-09-27T13:42:49Z</time>
</trkpt>
<trkpt lat="45.996886" lon="11.180528">
<time>2020-09-27T13:42:50Z</time>
</trkpt>
<trkpt lat="45.996873" lon="11.180501">
<time>2020-09-27T13:42:51Z</time>
</trkpt>
<trkpt lat="45.996861" lon="11.180483">
<time>2020-09-27T13:42:52Z</time>
</trkpt>
<trkpt lat="45.996855" lon="11.180473">
<time>2020-09-27T13:42:53Z</time>
</trkpt>
<trkpt lat="45.996856" lon="11.180463">
<time>2020-09-27T13:42:54Z</time>
</trkpt>
<trkpt lat="45.996861" lon="11.180448">
<time>2020-09-27T13:42:55Z</time>
</trkpt>
<trkpt lat="45.996868" lon="11.180435">
<time>2020-09-27T13:42:56Z</time>
</trkpt>
<trkpt lat="45.996875" lon="11.180418">
<time>2020-09-27T13:42:57Z</time>
</trkpt>
<trkpt lat="45.996885" lon="11.180403">
<time>2020-09-27T13:42:58Z</time>
</trkpt>
<trkpt lat="45.996891" lon="11.180386">
<time>2020-09-27T13:42:59Z</time>
</trkpt>
<trkpt lat="45.996896" lon="11.180368">
<time>2020-09-27T13:43:00Z</time>
</trkpt>
<trkpt lat="45.996903" lon="11.180338">
<time>2020-09-27T13:43:01Z</time>
</trkpt>
<trkpt lat="45.996906" lon="11.180308">
<time>2020-09-27T13:43:02Z</time>
</trkpt>
<trkpt lat="45.996911" lon="11.180276">
<time>2020-09-27T13:43:03Z</time>
</trkpt>
<trkpt lat="45.996916" lon="11.180245">
<time>2020-09-27T13:43:04Z</time>
</trkpt>
<trkpt lat="45.996918" lon="11.180228">
<time>2020-09-27T13:43:05Z</time>
</trkpt>
<trkpt lat="45.996931" lon="11.180196">
<time>2020-09-27T13:43:06Z</time>
</trkpt>
<trkpt lat="45.996946" lon="11.180166">
<time>2020-09-27T13:43:07Z</time>
</trkpt>
<trkpt lat="45.996955" lon="11.180141">
<time>2020-09-27T13:43:08Z</time>
</trkpt>
<trkpt lat="45.996961" lon="11.180111">
<time>2020-09-27T13:43:09Z</time>
</trkpt>
<trkpt lat="45.996963" lon="11.180075">
<time>2020-09-27T13:43:10Z</time>
</trkpt>
<trkpt lat="45.99697" lon="11.180033">
<time>2020-09-27T13:43:11Z</time>
</trkpt>
<trkpt lat="45.996978" lon="11.179996">
<time>2020-09-27T13:43:12Z</time>
</trkpt>
<trkpt lat="45.996988" lon="11.179966">
<time>2020-09-27T13:43:13Z</time>
</trkpt>
<trkpt lat="45.997" lon="11.179928">
<time>2020-09-27T13:43:14Z</time>
</trkpt>
<trkpt lat="45.997003" lon="11.179891">
<time>2020-09-27T13:43:15Z</time>
</trkpt>
<trkpt lat="45.997015" lon="11.179853">
<time>2020-09-27T13:43:16Z</time>
</trkpt>
<trkpt lat="45.997028" lon="11.179818">
<time>2020-09-27T13:43:17Z</time>
</trkpt>
<trkpt lat="45.997048" lon="11.17978">
<time>2020-09-27T13:43:18Z</time>
</trkpt>
<trkpt lat="45.997063" lon="11.179751">
<time>2020-09-27T13:43:19Z</time>
</trkpt>
<trkpt lat="45.997076" lon="11.17971">
<time>2020-09-27T13:43:20Z</time>
</trkpt>
<trkpt lat="45.997093" lon="11.179673">
<time>2020-09-27T13:43:21Z</time>
</trkpt>
<trkpt lat="45.997113" lon="11.179623">
<time>2020-09-27T13:43:22Z</time>
</trkpt>
<trkpt lat="45.997125" lon="11.179585">
<time>2020-09-27T13:43:23Z</time>
</trkpt>
<trkpt lat="45.997138" lon="11.17956">
<time>2020-09-27T13:43:24Z</time>
</trkpt>
<trkpt lat="45.997158" lon="11.179513">
<time>2020-09-27T13:43:25Z</time>
</trkpt>
<trkpt lat="45.997171" lon="11.179495">
<time>2020-09-27T13:43:26Z</time>
</trkpt>
<trkpt lat="45.997191" lon="11.179481">
<time>2020-09-27T13:43:27Z</time>
</trkpt>
<trkpt lat="45.997213" lon="11.179478">
<time>2020-09-27T13:43:28Z</time>
</trkpt>
<trkpt lat="45.99723" lon="11.179475">
<time>2020-09-27T13:43:29Z</time>
</trkpt>
<trkpt lat="45.997243" lon="11.179483">
<time>2020-09-27T13:43:30Z</time>
</trkpt>
<trkpt lat="45.99725" lon="11.179493">
<time>2020-09-27T13:43:31Z</time>
</trkpt>
<trkpt lat="45.99725" lon="11.179503">
<time>2020-09-27T13:43:32Z</time>
</trkpt>
<trkpt lat="45.997243" lon="11.179511">
<time>2020-09-27T13:43:33Z</time>
</trkpt>
<trkpt lat="45.997235" lon="11.179521">
<time>2020-09-27T13:43:34Z</time>
</trkpt>
<trkpt lat="45.997231" lon="11.179525">
<time>2020-09-27T13:43:35Z</time>
</trkpt>
<trkpt lat="45.997225" lon="11.179528">
<time>2020-09-27T13:43:36Z</time>
</trkpt>
<trkpt lat="45.997218" lon="11.179531">
<time>2020-09-27T13:43:37Z</time>
</trkpt>
<trkpt lat="45.997213" lon="11.179536">
<time>2020-09-27T13:43:38Z</time>
</trkpt>
<trkpt lat="45.99721" lon="11.179541">
<time>2020-09-27T13:43:39Z</time>
</trkpt>
<trkpt lat="45.99721" lon="11.17955">
<time>2020-09-27T13:43:40Z</time>
</trkpt>
<trkpt lat="45.997205" lon="11.179558">
<time>2020-09-27T13:43:41Z</time>
</trkpt>
<trkpt lat="45.997196" lon="11.179568">
<time>2020-09-27T13:43:42Z</time>
</trkpt>
<trkpt lat="45.997186" lon="11.179576">
<time>2020-09-27T13:43:43Z</time>
</trkpt>
<trkpt lat="45.997176" lon="11.179583">
<time>2020-09-27T13:43:44Z</time>
</trkpt>
<trkpt lat="45.997168" lon="11.179586">
<time>2020-09-27T13:43:45Z</time>
</trkpt>
<trkpt lat="45.997151" lon="11.179595">
<time>2020-09-27T13:43:46Z</time>
</trkpt>
<trkpt lat="45.997138" lon="11.17961">
<time>2020-09-27T13:43:47Z</time>
</trkpt>
<trkpt lat="45.997116" lon="11.179621">
<time>2020-09-27T13:43:48Z</time>
</trkpt>
<trkpt lat="45.997096" lon="11.179625">
<time>2020-09-27T13:43:49Z</time>
</trkpt>
<trkpt lat="45.997076" lon="11.17963">
<time>2020-09-27T13:43:50Z</time>
</trkpt>
<trkpt lat="45.997061" lon="11.179633">
<time>2020-09-27T13:43:51Z</time>
</trkpt>
<trkpt lat="45.997048" lon="11.17963">
<time>2020-09-27T13:43:52Z</time>
</trkpt>
<trkpt lat="45.997033" lon="11.17963">
<time>2020-09-27T13:43:53Z</time>
</trkpt>
<trkpt lat="45.997018" lon="11.17962">
<time>2020-09-27T13:43:54Z</time>
</trkpt>
<trkpt lat="45.997001" lon="11.179608">
<time>2020-09-27T13:43:55Z</time>
</trkpt>
<trkpt lat="45.996985" lon="11.179595">
<time>2020-09-27T13:43:56Z</time>
</trkpt>
<trkpt lat="45.996966" lon="11.179588">
<time>2020-09-27T13:43:57Z</time>
</trkpt>
<trkpt lat="45.996953" lon="11.17958">
<time>2020-09-27T13:43:58Z</time>
</trkpt>
<trkpt lat="45.99694" lon="11.179576">
<time>2020-09-27T13:43:59Z</time>
</trkpt>
<trkpt lat="45.996923" lon="11.179568">
<time>2020-09-27T13:44:00Z</time>
</trkpt>
<trkpt lat="45.996908" lon="11.179563">
<time>2020-09-27T13:44:01Z</time>
</trkpt>
<trkpt lat="45.996898" lon="11.179556">
<time>2020-09-27T13:44:02Z</time>
</trkpt>
<trkpt lat="45.996885" lon="11.179546">
<time>2020-09-27T13:44:03Z</time>
</trkpt>
<trkpt lat="45.996875" lon="11.179536">
<time>2020-09-27T13:44:04Z</time>
</trkpt>
<trkpt lat="45.996865" lon="11.179528">
<time>2020-09-27T13:44:05Z</time>
</trkpt>
<trkpt lat="45.996856" lon="11.179515">
<time>2020-09-27T13:44:06Z</time>
</trkpt>
<trkpt lat="45.996853" lon="11.179498">
<time>2020-09-27T13:44:07Z</time>
</trkpt>
<trkpt lat="45.996846" lon="11.179476">
<time>2020-09-27T13:44:08Z</time>
</trkpt>
<trkpt lat="45.99684" lon="11.17946">
<time>2020-09-27T13:44:09Z</time>
</trkpt>
<trkpt lat="45.99682" lon="11.179455">
<time>2020-09-27T13:44:10Z</time>
</trkpt>
<trkpt lat="45.9968" lon="11.179451">
<time>2020-09-27T13:44:11Z</time>
</trkpt>
<trkpt lat="45.996788" lon="11.17944">
<time>2020-09-27T13:44:12Z</time>
</trkpt>
<trkpt lat="45.99677" lon="11.179433">
<time>2020-09-27T13:44:13Z</time>
</trkpt>
<trkpt lat="45.996753" lon="11.179426">
<time>2020-09-27T13:44:14Z</time>
</trkpt>
<trkpt lat="45.996741" lon="11.179415">
<time>2020-09-27T13:44:15Z</time>
</trkpt>
<trkpt lat="45.996733" lon="11.179405">
<time>2020-09-27T13:44:16Z</time>
</trkpt>
<trkpt lat="45.996726" lon="11.179401">
<time>2020-09-27T13:44:17Z</time>
</trkpt>
<trkpt lat="45.99672" lon="11.179396">
<time>2020-09-27T13:44:18Z</time>
</trkpt>
<trkpt lat="45.996713" lon="11.179393">
<time>2020-09-27T13:44:19Z</time>
</trkpt>
<trkpt lat="45.996706" lon="11.179388">
<time>2020-09-27T13:44:20Z</time>
</trkpt>
<trkpt lat="45.9967" lon="11.17938">
<time>2020-09-27T13:44:21Z</time>
</trkpt>
<trkpt lat="45.996688" lon="11.179368">
<time>2020-09-27T13:44:22Z</time>
</trkpt>
<trkpt lat="45.99668" lon="11.179361">
<time>2020-09-27T13:44:23Z</time>
</trkpt>
<trkpt lat="45.996675" lon="11.179355">
<time>2020-09-27T13:44:24Z</time>
</trkpt>
<trkpt lat="45.99667" lon="11.17935">
<time>2020-09-27T13:44:25Z</time>
</trkpt>
<trkpt lat="45.996663" lon="11.179338">
<time>2020-09-27T13:44:26Z</time>
</trkpt>
<trkpt lat="45.996658" lon="11.17933">
<time>2020-09-27T13:44:27Z</time>
</trkpt>
<trkpt lat="45.996655" lon="11.179321">
<time>2020-09-27T13:44:28Z</time>
</trkpt>
<trkpt lat="45.99665" lon="11.17931">
<time>2020-09-27T13:44:29Z</time>
</trkpt>
<trkpt lat="45.996643" lon="11.179296">
<time>2020-09-27T13:44:30Z</time>
</trkpt>
<trkpt lat="45.996638" lon="11.179286">
<time>2020-09-27T13:44:31Z</time>
</trkpt>
<trkpt lat="45.996631" lon="11.179278">
<time>2020-09-27T13:44:32Z</time>
</trkpt>
<trkpt lat="45.996625" lon="11.179268">
<time>2020-09-27T13:44:33Z</time>
</trkpt>
<trkpt lat="45.996618" lon="11.179256">
<time>2020-09-27T13:44:34Z</time>
</trkpt>
<trkpt lat="45.99661" lon="11.179245">
<time>2020-09-27T13:44:35Z</time>
</trkpt>
<trkpt lat="45.996603" lon="11.179238">
<time>2020-09-27T13:44:36Z</time>
</trkpt>
<trkpt lat="45.996593" lon="11.179236">
<time>2020-09-27T13:44:37Z</time>
</trkpt>
<trkpt lat="45.996576" lon="11.179226">
<time>2020-09-27T13:44:38Z</time>
</trkpt>
<trkpt lat="45.996558" lon="11.179211">
<time>2020-09-27T13:44:39Z</time>
</trkpt>
<trkpt lat="45.996541" lon="11.179198">
<time>2020-09-27T13:44:40Z</time>
</trkpt>
<trkpt lat="45.996528" lon="11.179188">
<time>2020-09-27T13:44:41Z</time>
</trkpt>
<trkpt lat="45.996518" lon="11.179183">
<time>2020-09-27T13:44:42Z</time>
</trkpt>
<trkpt lat="45.996506" lon="11.179173">
<time>2020-09-27T13:44:43Z</time>
</trkpt>
<trkpt lat="45.9965" lon="11.179163">
<time>2020-09-27T13:44:44Z</time>
</trkpt>
<trkpt lat="45.996495" lon="11.179153">
<time>2020-09-27T13:44:45Z</time>
</trkpt>
<trkpt lat="45.996495" lon="11.179148">
<time>2020-09-27T13:44:46Z</time>
</trkpt>
<trkpt lat="45.996491" lon="11.17914">
<time>2020-09-27T13:44:47Z</time>
</trkpt>
<trkpt lat="45.996485" lon="11.17913">
<time>2020-09-27T13:44:48Z</time>
</trkpt>
<trkpt lat="45.996476" lon="11.17913">
<time>2020-09-27T13:44:49Z</time>
</trkpt>
<trkpt lat="45.996466" lon="11.179128">
<time>2020-09-27T13:44:50Z</time>
</trkpt>
<trkpt lat="45.996456" lon="11.179118">
<time>2020-09-27T13:44:51Z</time>
</trkpt>
<trkpt lat="45.996448" lon="11.179108">
<time>2020-09-27T13:44:52Z</time>
</trkpt>
<trkpt lat="45.99644" lon="11.179101">
<time>2020-09-27T13:44:53Z</time>
</trkpt>
<trkpt lat="45.996431" lon="11.179091">
<time>2020-09-27T13:44:54Z</time>
</trkpt>
<trkpt lat="45.996421" lon="11.179075">
<time>2020-09-27T13:44:55Z</time>
</trkpt>
<trkpt lat="45.996415" lon="11.179051">
<time>2020-09-27T13:44:56Z</time>
</trkpt>
<trkpt lat="45.996408" lon="11.179028">
<time>2020-09-27T13:44:57Z</time>
</trkpt>
<trkpt lat="45.996391" lon="11.179018">
<time>2020-09-27T13:44:58Z</time>
</trkpt>
<trkpt lat="45.996376" lon="11.179013">
<time>2020-09-27T13:44:59Z</time>
</trkpt>
<trkpt lat="45.996371" lon="11.179006">
<time>2020-09-27T13:45:00Z</time>
</trkpt>
<trkpt lat="45.996368" lon="11.179006">
<time>2020-09-27T13:45:01Z</time>
</trkpt>
<trkpt lat="45.99636" lon="11.179006">
<time>2020-09-27T13:45:02Z</time>
</trkpt>
<trkpt lat="45.996351" lon="11.179005">
<time>2020-09-27T13:45:03Z</time>
</trkpt>
<trkpt lat="45.996345" lon="11.178998">
<time>2020-09-27T13:45:04Z</time>
</trkpt>
<trkpt lat="45.996336" lon="11.178985">
<time>2020-09-27T13:45:05Z</time>
</trkpt>
<trkpt lat="45.996328" lon="11.17897">
<time>2020-09-27T13:45:06Z</time>
</trkpt>
<trkpt lat="45.996318" lon="11.178953">
<time>2020-09-27T13:45:07Z</time>
</trkpt>
<trkpt lat="45.996311" lon="11.178935">
<time>2020-09-27T13:45:08Z</time>
</trkpt>
<trkpt lat="45.996308" lon="11.178928">
<time>2020-09-27T13:45:09Z</time>
</trkpt>
<trkpt lat="45.996303" lon="11.178928">
<time>2020-09-27T13:45:10Z</time>
</trkpt>
<trkpt lat="45.996295" lon="11.178928">
<time>2020-09-27T13:45:11Z</time>
</trkpt>
<trkpt lat="45.996286" lon="11.178936">
<time>2020-09-27T13:45:12Z</time>
</trkpt>
<trkpt lat="45.99628" lon="11.178948">
<time>2020-09-27T13:45:13Z</time>
</trkpt>
<trkpt lat="45.996271" lon="11.178956">
<time>2020-09-27T13:45:14Z</time>
</trkpt>
<trkpt lat="45.996258" lon="11.178953">
<time>2020-09-27T13:45:15Z</time>
</trkpt>
<trkpt lat="45.996245" lon="11.178943">
<time>2020-09-27T13:45:16Z</time>
</trkpt>
<trkpt lat="45.996228" lon="11.17893">
<time>2020-09-27T13:45:17Z</time>
</trkpt>
<trkpt lat="45.996215" lon="11.178911">
<time>2020-09-27T13:45:18Z</time>
</trkpt>
<trkpt lat="45.996205" lon="11.178893">
<time>2020-09-27T13:45:19Z</time>
</trkpt>
<trkpt lat="45.996196" lon="11.178878">
<time>2020-09-27T13:45:20Z</time>
</trkpt>
<trkpt lat="45.99619" lon="11.178858">
<time>2020-09-27T13:45:21Z</time>
</trkpt>
<trkpt lat="45.996181" lon="11.178836">
<time>2020-09-27T13:45:22Z</time>
</trkpt>
<trkpt lat="45.996173" lon="11.178813">
<time>2020-09-27T13:45:23Z</time>
</trkpt>
<trkpt lat="45.996165" lon="11.178795">
<time>2020-09-27T13:45:24Z</time>
</trkpt>
<trkpt lat="45.996153" lon="11.178776">
<time>2020-09-27T13:45:25Z</time>
</trkpt>
<trkpt lat="45.996141" lon="11.178758">
<time>2020-09-27T13:45:26Z</time>
</trkpt>
<trkpt lat="45.996126" lon="11.178743">
<time>2020-09-27T13:45:27Z</time>
</trkpt>
<trkpt lat="45.996111" lon="11.178726">
<time>2020-09-27T13:45:28Z</time>
</trkpt>
<trkpt lat="45.996106" lon="11.178716">
<time>2020-09-27T13:45:29Z</time>
</trkpt>
<trkpt lat="45.996098" lon="11.178698">
<time>2020-09-27T13:45:30Z</time>
</trkpt>
<trkpt lat="45.99609" lon="11.178678">
<time>2020-09-27T13:45:31Z</time>
</trkpt>
<trkpt lat="45.996078" lon="11.178643">
<time>2020-09-27T13:45:32Z</time>
</trkpt>
<trkpt lat="45.996065" lon="11.178613">
<time>2020-09-27T13:45:33Z</time>
</trkpt>
<trkpt lat="45.996056" lon="11.178595">
<time>2020-09-27T13:45:34Z</time>
</trkpt>
<trkpt lat="45.996046" lon="11.178581">
<time>2020-09-27T13:45:35Z</time>
</trkpt>
<trkpt lat="45.996036" lon="11.178568">
<time>2020-09-27T13:45:36Z</time>
</trkpt>
<trkpt lat="45.996025" lon="11.178555">
<time>2020-09-27T13:45:37Z</time>
</trkpt>
<trkpt lat="45.99601" lon="11.178536">
<time>2020-09-27T13:45:38Z</time>
</trkpt>
<trkpt lat="45.995998" lon="11.17852">
<time>2020-09-27T13:45:39Z</time>
</trkpt>
<trkpt lat="45.995986" lon="11.178503">
<time>2020-09-27T13:45:40Z</time>
</trkpt>
<trkpt lat="45.995975" lon="11.178493">
<time>2020-09-27T13:45:41Z</time>
</trkpt>
<trkpt lat="45.995965" lon="11.178486">
<time>2020-09-27T13:45:42Z</time>
</trkpt>
<trkpt lat="45.995955" lon="11.178476">
<time>2020-09-27T13:45:43Z</time>
</trkpt>
<trkpt lat="45.995946" lon="11.17846">
<time>2020-09-27T13:45:44Z</time>
</trkpt>
<trkpt lat="45.995945" lon="11.178445">
<time>2020-09-27T13:45:45Z</time>
</trkpt>
<trkpt lat="45.995938" lon="11.178415">
<time>2020-09-27T13:45:46Z</time>
</trkpt>
<trkpt lat="45.995933" lon="11.178391">
<time>2020-09-27T13:45:47Z</time>
</trkpt>
<trkpt lat="45.995928" lon="11.178366">
<time>2020-09-27T13:45:48Z</time>
</trkpt>
<trkpt lat="45.995923" lon="11.178336">
<time>2020-09-27T13:45:49Z</time>
</trkpt>
<trkpt lat="45.995915" lon="11.178295">
<time>2020-09-27T13:45:50Z</time>
</trkpt>
<trkpt lat="45.995911" lon="11.178266">
<time>2020-09-27T13:45:51Z</time>
</trkpt>
<trkpt lat="45.995911" lon="11.17823">
<time>2020-09-27T13:45:52Z</time>
</trkpt>
<trkpt lat="45.995913" lon="11.178195">
<time>2020-09-27T13:45:53Z</time>
</trkpt>
<trkpt lat="45.995916" lon="11.178163">
<time>2020-09-27T13:45:54Z</time>
</trkpt>
<trkpt lat="45.995921" lon="11.178131">
<time>2020-09-27T13:45:55Z</time>
</trkpt>
<trkpt lat="45.995923" lon="11.1781">
<time>2020-09-27T13:45:56Z</time>
</trkpt>
<trkpt lat="45.995923" lon="11.178068">
<time>2020-09-27T13:45:57Z</time>
</trkpt>
<trkpt lat="45.995921" lon="11.178041">
<time>2020-09-27T13:45:58Z</time>
</trkpt>
<trkpt lat="45.995918" lon="11.178018">
<time>2020-09-27T13:45:59Z</time>
</trkpt>
<trkpt lat="45.995913" lon="11.17799">
<time>2020-09-27T13:46:00Z</time>
</trkpt>
<trkpt lat="45.995911" lon="11.177963">
<time>2020-09-27T13:46:01Z</time>
</trkpt>
<trkpt lat="45.99591" lon="11.177936">
<time>2020-09-27T13:46:02Z</time>
</trkpt>
<trkpt lat="45.99591" lon="11.177906">
<time>2020-09-27T13:46:03Z</time>
</trkpt>
<trkpt lat="45.99591" lon="11.177876">
<time>2020-09-27T13:46:04Z</time>
</trkpt>
<trkpt lat="45.995908" lon="11.177843">
<time>2020-09-27T13:46:05Z</time>
</trkpt>
<trkpt lat="45.995911" lon="11.177813">
<time>2020-09-27T13:46:06Z</time>
</trkpt>
<trkpt lat="45.995915" lon="11.177785">
<time>2020-09-27T13:46:07Z</time>
</trkpt>
<trkpt lat="45.995923" lon="11.177758">
<time>2020-09-27T13:46:08Z</time>
</trkpt>
<trkpt lat="45.995933" lon="11.177728">
<time>2020-09-27T13:46:09Z</time>
</trkpt>
<trkpt lat="45.995943" lon="11.177698">
<time>2020-09-27T13:46:10Z</time>
</trkpt>
<trkpt lat="45.995951" lon="11.177676">
<time>2020-09-27T13:46:11Z</time>
</trkpt>
<trkpt lat="45.99596" lon="11.177656">
<time>2020-09-27T13:46:12Z</time>
</trkpt>
<trkpt lat="45.995965" lon="11.177638">
<time>2020-09-27T13:46:13Z</time>
</trkpt>
<trkpt lat="45.99598" lon="11.17763">
<time>2020-09-27T13:46:14Z</time>
</trkpt>
<trkpt lat="45.995991" lon="11.177643">
<time>2020-09-27T13:46:15Z</time>
</trkpt>
<trkpt lat="45.996001" lon="11.17766">
<time>2020-09-27T13:46:16Z</time>
</trkpt>
<trkpt lat="45.996006" lon="11.17768">
<time>2020-09-27T13:46:17Z</time>
</trkpt>
<trkpt lat="45.996006" lon="11.177698">
<time>2020-09-27T13:46:18Z</time>
</trkpt>
<trkpt lat="45.996006" lon="11.177713">
<time>2020-09-27T13:46:19Z</time>
</trkpt>
<trkpt lat="45.996005" lon="11.177723">
<time>2020-09-27T13:46:20Z</time>
</trkpt>
<trkpt lat="45.996001" lon="11.177733">
<time>2020-09-27T13:46:21Z</time>
</trkpt>
<trkpt lat="45.996" lon="11.177741">
<time>2020-09-27T13:46:22Z</time>
</trkpt>
<trkpt lat="45.995998" lon="11.177751">
<time>2020-09-27T13:46:23Z</time>
</trkpt>
<trkpt lat="45.995998" lon="11.17776">
<time>2020-09-27T13:46:24Z</time>
</trkpt>
<trkpt lat="45.996" lon="11.177766">
<time>2020-09-27T13:46:25Z</time>
</trkpt>
<trkpt lat="45.996" lon="11.177773">
<time>2020-09-27T13:46:26Z</time>
</trkpt>
<trkpt lat="45.995998" lon="11.177783">
<time>2020-09-27T13:46:27Z</time>
</trkpt>
<trkpt lat="45.996003" lon="11.177788">
<time>2020-09-27T13:46:28Z</time>
</trkpt>
<trkpt lat="45.996008" lon="11.1778">
<time>2020-09-27T13:46:29Z</time>
</trkpt>
<trkpt lat="45.996013" lon="11.177818">
<time>2020-09-27T13:46:30Z</time>
</trkpt>
<trkpt lat="45.996006" lon="11.177833">
<time>2020-09-27T13:46:31Z</time>
</trkpt>
<trkpt lat="45.995998" lon="11.177856">
<time>2020-09-27T13:46:32Z</time>
</trkpt>
<trkpt lat="45.995986" lon="11.177871">
<time>2020-09-27T13:46:33Z</time>
</trkpt>
<trkpt lat="45.995971" lon="11.177896">
<time>2020-09-27T13:46:34Z</time>
</trkpt>
<trkpt lat="45.995956" lon="11.177916">
<time>2020-09-27T13:46:35Z</time>
</trkpt>
<trkpt lat="45.995938" lon="11.17793">
<time>2020-09-27T13:46:36Z</time>
</trkpt>
<trkpt lat="45.995926" lon="11.177936">
<time>2020-09-27T13:46:37Z</time>
</trkpt>
<trkpt lat="45.995913" lon="11.17794">
<time>2020-09-27T13:46:38Z</time>
</trkpt>
<trkpt lat="45.995901" lon="11.177943">
<time>2020-09-27T13:46:39Z</time>
</trkpt>
<trkpt lat="45.995893" lon="11.177946">
<time>2020-09-27T13:46:40Z</time>
</trkpt>
<trkpt lat="45.995885" lon="11.177955">
<time>2020-09-27T13:46:41Z</time>
</trkpt>
<trkpt lat="45.995881" lon="11.177963">
<time>2020-09-27T13:46:42Z</time>
</trkpt>
<trkpt lat="45.99588" lon="11.177975">
<time>2020-09-27T13:46:43Z</time>
</trkpt>
<trkpt lat="45.995878" lon="11.177988">
<time>2020-09-27T13:46:44Z</time>
</trkpt>
<trkpt lat="45.995875" lon="11.178">
<time>2020-09-27T13:46:45Z</time>
</trkpt>
<trkpt lat="45.995871" lon="11.178011">
<time>2020-09-27T13:46:46Z</time>
</trkpt>
<trkpt lat="45.995866" lon="11.178021">
<time>2020-09-27T13:46:47Z</time>
</trkpt>
<trkpt lat="45.99586" lon="11.178028">
<time>2020-09-27T13:46:48Z</time>
</trkpt>
<trkpt lat="45.995853" lon="11.17803">
<time>2020-09-27T13:46:49Z</time>
</trkpt>
<trkpt lat="45.99585" lon="11.178025">
<time>2020-09-27T13:46:50Z</time>
</trkpt>
<trkpt lat="45.995845" lon="11.17803">
<time>2020-09-27T13:46:51Z</time>
</trkpt>
<trkpt lat="45.995835" lon="11.178043">
<time>2020-09-27T13:46:52Z</time>
</trkpt>
<trkpt lat="45.995826" lon="11.178066">
<time>2020-09-27T13:46:53Z</time>
</trkpt>
<trkpt lat="45.995818" lon="11.17809">
<time>2020-09-27T13:46:54Z</time>
</trkpt>
<trkpt lat="45.99581" lon="11.178116">
<time>2020-09-27T13:46:55Z</time>
</trkpt>
<trkpt lat="45.995808" lon="11.17814">
<time>2020-09-27T13:46:56Z</time>
</trkpt>
<trkpt lat="45.99581" lon="11.178155">
<time>2020-09-27T13:46:57Z</time>
</trkpt>
<trkpt lat="45.995815" lon="11.178166">
<time>2020-09-27T13:46:58Z</time>
</trkpt>
<trkpt lat="45.995811" lon="11.17818">
<time>2020-09-27T13:46:59Z</time>
</trkpt>
<trkpt lat="45.995806" lon="11.178195">
<time>2020-09-27T13:47:00Z</time>
</trkpt>
<trkpt lat="45.995798" lon="11.178203">
<time>2020-09-27T13:47:01Z</time>
</trkpt>
<trkpt lat="45.995793" lon="11.178211">
<time>2020-09-27T13:47:02Z</time>
</trkpt>
<trkpt lat="45.995793" lon="11.178221">
<time>2020-09-27T13:47:03Z</time>
</trkpt>
<trkpt lat="45.995795" lon="11.178231">
<time>2020-09-27T13:47:04Z</time>
</trkpt>
<trkpt lat="45.995798" lon="11.178246">
<time>2020-09-27T13:47:05Z</time>
</trkpt>
<trkpt lat="45.995803" lon="11.178255">
<time>2020-09-27T13:47:06Z</time>
</trkpt>
<trkpt lat="45.995808" lon="11.178265">
<time>2020-09-27T13:47:07Z</time>
</trkpt>
<trkpt lat="45.995811" lon="11.178283">
<time>2020-09-27T13:47:08Z</time>
</trkpt>
<trkpt lat="45.995813" lon="11.178303">
<time>2020-09-27T13:47:09Z</time>
</trkpt>
<trkpt lat="45.99581" lon="11.17832">
<time>2020-09-27T13:47:10Z</time>
</trkpt>
<trkpt lat="45.995808" lon="11.178338">
<time>2020-09-27T13:47:11Z</time>
</trkpt>
<trkpt lat="45.995806" lon="11.178355">
<time>2020-09-27T13:47:12Z</time>
</trkpt>
<trkpt lat="45.995806" lon="11.178368">
<time>2020-09-27T13:47:13Z</time>
</trkpt>
<trkpt lat="45.995806" lon="11.178383">
<time>2020-09-27T13:47:14Z</time>
</trkpt>
<trkpt lat="45.995801" lon="11.178395">
<time>2020-09-27T13:47:15Z</time>
</trkpt>
<trkpt lat="45.995803" lon="11.178401">
<time>2020-09-27T13:47:16Z</time>
</trkpt>
<trkpt lat="45.99581" lon="11.17841">
<time>2020-09-27T13:47:17Z</time>
</trkpt>
<trkpt lat="45.99581" lon="11.178423">
<time>2020-09-27T13:47:18Z</time>
</trkpt>
<trkpt lat="45.995806" lon="11.17844">
<time>2020-09-27T13:47:19Z</time>
</trkpt>
<trkpt lat="45.995795" lon="11.178461">
<time>2020-09-27T13:47:20Z</time>
</trkpt>
<trkpt lat="45.995785" lon="11.178481">
<time>2020-09-27T13:47:21Z</time>
</trkpt>
<trkpt lat="45.995776" lon="11.178505">
<time>2020-09-27T13:47:22Z</time>
</trkpt>
<trkpt lat="45.995765" lon="11.178516">
<time>2020-09-27T13:47:23Z</time>
</trkpt>
<trkpt lat="45.995753" lon="11.17853">
<time>2020-09-27T13:47:24Z</time>
</trkpt>
<trkpt lat="45.995748" lon="11.178543">
<time>2020-09-27T13:47:25Z</time>
</trkpt>
<trkpt lat="45.995741" lon="11.178568">
<time>2020-09-27T13:47:26Z</time>
</trkpt>
<trkpt lat="45.995728" lon="11.178591">
<time>2020-09-27T13:47:27Z</time>
</trkpt>
<trkpt lat="45.995715" lon="11.178606">
<time>2020-09-27T13:47:28Z</time>
</trkpt>
<trkpt lat="45.995701" lon="11.178618">
<time>2020-09-27T13:47:29Z</time>
</trkpt>
<trkpt lat="45.99569" lon="11.178626">
<time>2020-09-27T13:47:30Z</time>
</trkpt>
<trkpt lat="45.99567" lon="11.178651">
<time>2020-09-27T13:47:31Z</time>
</trkpt>
<trkpt lat="45.995658" lon="11.178661">
<time>2020-09-27T13:47:32Z</time>
</trkpt>
<trkpt lat="45.995655" lon="11.178673">
<time>2020-09-27T13:47:33Z</time>
</trkpt>
<trkpt lat="45.995655" lon="11.178698">
<time>2020-09-27T13:47:34Z</time>
</trkpt>
<trkpt lat="45.995653" lon="11.178718">
<time>2020-09-27T13:47:35Z</time>
</trkpt>
<trkpt lat="45.995651" lon="11.178746">
<time>2020-09-27T13:47:36Z</time>
</trkpt>
<trkpt lat="45.995648" lon="11.178775">
<time>2020-09-27T13:47:37Z</time>
</trkpt>
<trkpt lat="45.995641" lon="11.178795">
<time>2020-09-27T13:47:38Z</time>
</trkpt>
<trkpt lat="45.995633" lon="11.178806">
<time>2020-09-27T13:47:39Z</time>
</trkpt>
<trkpt lat="45.995625" lon="11.178815">
<time>2020-09-27T13:47:40Z</time>
</trkpt>
<trkpt lat="45.995616" lon="11.178826">
<time>2020-09-27T13:47:41Z</time>
</trkpt>
<trkpt lat="45.995611" lon="11.178846">
<time>2020-09-27T13:47:42Z</time>
</trkpt>
<trkpt lat="45.99561" lon="11.178866">
<time>2020-09-27T13:47:43Z</time>
</trkpt>
<trkpt lat="45.995605" lon="11.178883">
<time>2020-09-27T13:47:44Z</time>
</trkpt>
<trkpt lat="45.995601" lon="11.178895">
<time>2020-09-27T13:47:45Z</time>
</trkpt>
<trkpt lat="45.995596" lon="11.178911">
<time>2020-09-27T13:47:46Z</time>
</trkpt>
<trkpt lat="45.995591" lon="11.178926">
<time>2020-09-27T13:47:47Z</time>
</trkpt>
<trkpt lat="45.995588" lon="11.178941">
<time>2020-09-27T13:47:48Z</time>
</trkpt>
<trkpt lat="45.995585" lon="11.178953">
<time>2020-09-27T13:47:49Z</time>
</trkpt>
<trkpt lat="45.995578" lon="11.178966">
<time>2020-09-27T13:47:50Z</time>
</trkpt>
<trkpt lat="45.995568" lon="11.178981">
<time>2020-09-27T13:47:51Z</time>
</trkpt>
<trkpt lat="45.995556" lon="11.178998">
<time>2020-09-27T13:47:52Z</time>
</trkpt>
<trkpt lat="45.995551" lon="11.179013">
<time>2020-09-27T13:47:53Z</time>
</trkpt>
<trkpt lat="45.995543" lon="11.17903">
<time>2020-09-27T13:47:54Z</time>
</trkpt>
<trkpt lat="45.995533" lon="11.179043">
<time>2020-09-27T13:47:55Z</time>
</trkpt>
<trkpt lat="45.995523" lon="11.179051">
<time>2020-09-27T13:47:56Z</time>
</trkpt>
<trkpt lat="45.99551" lon="11.179068">
<time>2020-09-27T13:47:57Z</time>
</trkpt>
<trkpt lat="45.995493" lon="11.179091">
<time>2020-09-27T13:47:58Z</time>
</trkpt>
<trkpt lat="45.995481" lon="11.179118">
<time>2020-09-27T13:47:59Z</time>
</trkpt>
<trkpt lat="45.995478" lon="11.17914">
<time>2020-09-27T13:48:00Z</time>
</trkpt>
<trkpt lat="45.99548" lon="11.179151">
<time>2020-09-27T13:48:01Z</time>
</trkpt>
<trkpt lat="45.995468" lon="11.179168">
<time>2020-09-27T13:48:02Z</time>
</trkpt>
<trkpt lat="45.995456" lon="11.17917">
<time>2020-09-27T13:48:03Z</time>
</trkpt>
<trkpt lat="45.99545" lon="11.179168">
<time>2020-09-27T13:48:04Z</time>
</trkpt>
<trkpt lat="45.995436" lon="11.179171">
<time>2020-09-27T13:48:05Z</time>
</trkpt>
<trkpt lat="45.995426" lon="11.179175">
<time>2020-09-27T13:48:06Z</time>
</trkpt>
<trkpt lat="45.995421" lon="11.179183">
<time>2020-09-27T13:48:07Z</time>
</trkpt>
<trkpt lat="45.995413" lon="11.179196">
<time>2020-09-27T13:48:08Z</time>
</trkpt>
<trkpt lat="45.995403" lon="11.179198">
<time>2020-09-27T13:48:09Z</time>
</trkpt>
<trkpt lat="45.995393" lon="11.179215">
<time>2020-09-27T13:48:10Z</time>
</trkpt>
<trkpt lat="45.99539" lon="11.179221">
<time>2020-09-27T13:48:11Z</time>
</trkpt>
<trkpt lat="45.99539" lon="11.17923">
<time>2020-09-27T13:48:12Z</time>
</trkpt>
<trkpt lat="45.99539" lon="11.179233">
<time>2020-09-27T13:48:13Z</time>
</trkpt>
<trkpt lat="45.995391" lon="11.179236">
<time>2020-09-27T13:48:14Z</time>
</trkpt>
<trkpt lat="45.995388" lon="11.179246">
<time>2020-09-27T13:48:15Z</time>
</trkpt>
<trkpt lat="45.995385" lon="11.179251">
<time>2020-09-27T13:48:16Z</time>
</trkpt>
<trkpt lat="45.995381" lon="11.179258">
<time>2020-09-27T13:48:17Z</time>
</trkpt>
<trkpt lat="45.995376" lon="11.179263">
<time>2020-09-27T13:48:18Z</time>
</trkpt>
<trkpt lat="45.99537" lon="11.179271">
<time>2020-09-27T13:48:19Z</time>
</trkpt>
<trkpt lat="45.995363" lon="11.179278">
<time>2020-09-27T13:48:20Z</time>
</trkpt>
<trkpt lat="45.995356" lon="11.179283">
<time>2020-09-27T13:48:21Z</time>
</trkpt>
<trkpt lat="45.995351" lon="11.179283">
<time>2020-09-27T13:48:22Z</time>
</trkpt>
<trkpt lat="45.995346" lon="11.179285">
<time>2020-09-27T13:48:23Z</time>
</trkpt>
<trkpt lat="45.99534" lon="11.17929">
<time>2020-09-27T13:48:24Z</time>
</trkpt>
<trkpt lat="45.995335" lon="11.179293">
<time>2020-09-27T13:48:25Z</time>
</trkpt>
<trkpt lat="45.995335" lon="11.179303">
<time>2020-09-27T13:48:26Z</time>
</trkpt>
<trkpt lat="45.99534" lon="11.179318">
<time>2020-09-27T13:48:27Z</time>
</trkpt>
<trkpt lat="45.995341" lon="11.179331">
<time>2020-09-27T13:48:28Z</time>
</trkpt>
<trkpt lat="45.995343" lon="11.179343">
<time>2020-09-27T13:48:29Z</time>
</trkpt>
<trkpt lat="45.995338" lon="11.179355">
<time>2020-09-27T13:48:30Z</time>
</trkpt>
<trkpt lat="45.995333" lon="11.179368">
<time>2020-09-27T13:48:31Z</time>
</trkpt>
<trkpt lat="45.995328" lon="11.179373">
<time>2020-09-27T13:48:32Z</time>
</trkpt>
<trkpt lat="45.995323" lon="11.179381">
<time>2020-09-27T13:48:33Z</time>
</trkpt>
<trkpt lat="45.995315" lon="11.179391">
<time>2020-09-27T13:48:34Z</time>
</trkpt>
<trkpt lat="45.995306" lon="11.179393">
<time>2020-09-27T13:48:35Z</time>
</trkpt>
<trkpt lat="45.995298" lon="11.179393">
<time>2020-09-27T13:48:36Z</time>
</trkpt>
<trkpt lat="45.995286" lon="11.179393">
<time>2020-09-27T13:48:37Z</time>
</trkpt>
<trkpt lat="45.995273" lon="11.179391">
<time>2020-09-27T13:48:38Z</time>
</trkpt>
<trkpt lat="45.995261" lon="11.179395">
<time>2020-09-27T13:48:39Z</time>
</trkpt>
<trkpt lat="45.99525" lon="11.179396">
<time>2020-09-27T13:48:40Z</time>
</trkpt>
<trkpt lat="45.995236" lon="11.1794">
<time>2020-09-27T13:48:41Z</time>
</trkpt>
<trkpt lat="45.995223" lon="11.179395">
<time>2020-09-27T13:48:42Z</time>
</trkpt>
<trkpt lat="45.99521" lon="11.179393">
<time>2020-09-27T13:48:43Z</time>
</trkpt>
<trkpt lat="45.995196" lon="11.179398">
<time>2020-09-27T13:48:44Z</time>
</trkpt>
<trkpt lat="45.995186" lon="11.179401">
<time>2020-09-27T13:48:45Z</time>
</trkpt>
<trkpt lat="45.995176" lon="11.1794">
<time>2020-09-27T13:48:46Z</time>
</trkpt>
<trkpt lat="45.995166" lon="11.179396">
<time>2020-09-27T13:48:47Z</time>
</trkpt>
<trkpt lat="45.99515" lon="11.1794">
<time>2020-09-27T13:48:48Z</time>
</trkpt>
<trkpt lat="45.99514" lon="11.179403">
<time>2020-09-27T13:48:49Z</time>
</trkpt>
<trkpt lat="45.995133" lon="11.179415">
<time>2020-09-27T13:48:50Z</time>
</trkpt>
<trkpt lat="45.995128" lon="11.17943">
<time>2020-09-27T13:48:51Z</time>
</trkpt>
<trkpt lat="45.995123" lon="11.179443">
<time>2020-09-27T13:48:52Z</time>
</trkpt>
<trkpt lat="45.995118" lon="11.17946">
<time>2020-09-27T13:48:53Z</time>
</trkpt>
<trkpt lat="45.995116" lon="11.179471">
<time>2020-09-27T13:48:54Z</time>
</trkpt>
<trkpt lat="45.995103" lon="11.179475">
<time>2020-09-27T13:48:55Z</time>
</trkpt>
<trkpt lat="45.995086" lon="11.17948">
<time>2020-09-27T13:48:56Z</time>
</trkpt>
<trkpt lat="45.995075" lon="11.179485">
<time>2020-09-27T13:48:57Z</time>
</trkpt>
<trkpt lat="45.995063" lon="11.179493">
<time>2020-09-27T13:48:58Z</time>
</trkpt>
<trkpt lat="45.995055" lon="11.179498">
<time>2020-09-27T13:48:59Z</time>
</trkpt>
<trkpt lat="45.99505" lon="11.179505">
<time>2020-09-27T13:49:00Z</time>
</trkpt>
<trkpt lat="45.995046" lon="11.179508">
<time>2020-09-27T13:49:01Z</time>
</trkpt>
<trkpt lat="45.995041" lon="11.179511">
<time>2020-09-27T13:49:02Z</time>
</trkpt>
<trkpt lat="45.995028" lon="11.179503">
<time>2020-09-27T13:49:03Z</time>
</trkpt>
<trkpt lat="45.995011" lon="11.179503">
<time>2020-09-27T13:49:04Z</time>
</trkpt>
<trkpt lat="45.995001" lon="11.179501">
<time>2020-09-27T13:49:05Z</time>
</trkpt>
<trkpt lat="45.994995" lon="11.179505">
<time>2020-09-27T13:49:06Z</time>
</trkpt>
<trkpt lat="45.994993" lon="11.179505">
<time>2020-09-27T13:49:07Z</time>
</trkpt>
<trkpt lat="45.994998" lon="11.179508">
<time>2020-09-27T13:49:08Z</time>
</trkpt>
<trkpt lat="45.99501" lon="11.179501">
<time>2020-09-27T13:49:09Z</time>
</trkpt>
<trkpt lat="45.995025" lon="11.179491">
<time>2020-09-27T13:49:10Z</time>
</trkpt>
<trkpt lat="45.995038" lon="11.179486">
<time>2020-09-27T13:49:11Z</time>
</trkpt>
<trkpt lat="45.995046" lon="11.179483">
<time>2020-09-27T13:49:12Z</time>
</trkpt>
<trkpt lat="45.99505" lon="11.179483">
<time>2020-09-27T13:49:13Z</time>
</trkpt>
<trkpt lat="45.995051" lon="11.179478">
<time>2020-09-27T13:49:14Z</time>
</trkpt>
<trkpt lat="45.995051" lon="11.179478">
<time>2020-09-27T13:49:15Z</time>
</trkpt>
<trkpt lat="45.99505" lon="11.179485">
<time>2020-09-27T13:49:16Z</time>
</trkpt>
<trkpt lat="45.995053" lon="11.17949">
<time>2020-09-27T13:49:17Z</time>
</trkpt>
<trkpt lat="45.995056" lon="11.179496">
<time>2020-09-27T13:49:18Z</time>
</trkpt>
<trkpt lat="45.995058" lon="11.179503">
<time>2020-09-27T13:49:19Z</time>
</trkpt>
<trkpt lat="45.99506" lon="11.17951">
<time>2020-09-27T13:49:20Z</time>
</trkpt>
<trkpt lat="45.995065" lon="11.179521">
<time>2020-09-27T13:49:21Z</time>
</trkpt>
<trkpt lat="45.995075" lon="11.179536">
<time>2020-09-27T13:49:22Z</time>
</trkpt>
<trkpt lat="45.995086" lon="11.179556">
<time>2020-09-27T13:49:23Z</time>
</trkpt>
<trkpt lat="45.995096" lon="11.179578">
<time>2020-09-27T13:49:24Z</time>
</trkpt>
<trkpt lat="45.995105" lon="11.179601">
<time>2020-09-27T13:49:25Z</time>
</trkpt>
<trkpt lat="45.99511" lon="11.179628">
<time>2020-09-27T13:49:26Z</time>
</trkpt>
<trkpt lat="45.995115" lon="11.179661">
<time>2020-09-27T13:49:27Z</time>
</trkpt>
<trkpt lat="45.995118" lon="11.17969">
<time>2020-09-27T13:49:28Z</time>
</trkpt>
<trkpt lat="45.995125" lon="11.179721">
<time>2020-09-27T13:49:29Z</time>
</trkpt>
<trkpt lat="45.995133" lon="11.179756">
<time>2020-09-27T13:49:30Z</time>
</trkpt>
<trkpt lat="45.995146" lon="11.179793">
<time>2020-09-27T13:49:31Z</time>
</trkpt>
<trkpt lat="45.995165" lon="11.17983">
<time>2020-09-27T13:49:32Z</time>
</trkpt>
<trkpt lat="45.995176" lon="11.179868">
<time>2020-09-27T13:49:33Z</time>
</trkpt>
<trkpt lat="45.995188" lon="11.17991">
<time>2020-09-27T13:49:34Z</time>
</trkpt>
<trkpt lat="45.995196" lon="11.179941">
<time>2020-09-27T13:49:35Z</time>
</trkpt>
<trkpt lat="45.995205" lon="11.179958">
<time>2020-09-27T13:49:36Z</time>
</trkpt>
<trkpt lat="45.99521" lon="11.179965">
<time>2020-09-27T13:49:37Z</time>
</trkpt>
<trkpt lat="45.995216" lon="11.179968">
<time>2020-09-27T13:49:38Z</time>
</trkpt>
<trkpt lat="45.995221" lon="11.179968">
<time>2020-09-27T13:49:39Z</time>
</trkpt>
<trkpt lat="45.99523" lon="11.179965">
<time>2020-09-27T13:49:40Z</time>
</trkpt>
<trkpt lat="45.995241" lon="11.179978">
<time>2020-09-27T13:49:41Z</time>
</trkpt>
<trkpt lat="45.995245" lon="11.179995">
<time>2020-09-27T13:49:42Z</time>
</trkpt>
<trkpt lat="45.995248" lon="11.180003">
<time>2020-09-27T13:49:43Z</time>
</trkpt>
<trkpt lat="45.995258" lon="11.180016">
<time>2020-09-27T13:49:44Z</time>
</trkpt>
<trkpt lat="45.99527" lon="11.180025">
<time>2020-09-27T13:49:45Z</time>
</trkpt>
<trkpt lat="45.995276" lon="11.180041">
<time>2020-09-27T13:49:46Z</time>
</trkpt>
<trkpt lat="45.995283" lon="11.180058">
<time>2020-09-27T13:49:47Z</time>
</trkpt>
<trkpt lat="45.995288" lon="11.180075">
<time>2020-09-27T13:49:48Z</time>
</trkpt>
<trkpt lat="45.9953" lon="11.180091">
<time>2020-09-27T13:49:49Z</time>
</trkpt>
<trkpt lat="45.995306" lon="11.18011">
<time>2020-09-27T13:49:50Z</time>
</trkpt>
<trkpt lat="45.995313" lon="11.180121">
<time>2020-09-27T13:49:51Z</time>
</trkpt>
<trkpt lat="45.995325" lon="11.180138">
<time>2020-09-27T13:49:52Z</time>
</trkpt>
<trkpt lat="45.995326" lon="11.180153">
<time>2020-09-27T13:49:53Z</time>
</trkpt>
<trkpt lat="45.995326" lon="11.180176">
<time>2020-09-27T13:49:54Z</time>
</trkpt>
<trkpt lat="45.995323" lon="11.180203">
<time>2020-09-27T13:49:55Z</time>
</trkpt>
<trkpt lat="45.995318" lon="11.180228">
<time>2020-09-27T13:49:56Z</time>
</trkpt>
<trkpt lat="45.995311" lon="11.180253">
<time>2020-09-27T13:49:57Z</time>
</trkpt>
<trkpt lat="45.995315" lon="11.180275">
<time>2020-09-27T13:49:58Z</time>
</trkpt>
<trkpt lat="45.995321" lon="11.180293">
<time>2020-09-27T13:49:59Z</time>
</trkpt>
<trkpt lat="45.995326" lon="11.180306">
<time>2020-09-27T13:50:00Z</time>
</trkpt>
<trkpt lat="45.995335" lon="11.180318">
<time>2020-09-27T13:50:01Z</time>
</trkpt>
<trkpt lat="45.995341" lon="11.18033">
<time>2020-09-27T13:50:02Z</time>
</trkpt>
<trkpt lat="45.995348" lon="11.180343">
<time>2020-09-27T13:50:03Z</time>
</trkpt>
<trkpt lat="45.995356" lon="11.180358">
<time>2020-09-27T13:50:04Z</time>
</trkpt>
<trkpt lat="45.995368" lon="11.180378">
<time>2020-09-27T13:50:05Z</time>
</trkpt>
<trkpt lat="45.995386" lon="11.180396">
<time>2020-09-27T13:50:06Z</time>
</trkpt>
<trkpt lat="45.995403" lon="11.180416">
<time>2020-09-27T13:50:07Z</time>
</trkpt>
<trkpt lat="45.995415" lon="11.180443">
<time>2020-09-27T13:50:08Z</time>
</trkpt>
<trkpt lat="45.995426" lon="11.18048">
<time>2020-09-27T13:50:09Z</time>
</trkpt>
<trkpt lat="45.995441" lon="11.180518">
<time>2020-09-27T13:50:10Z</time>
</trkpt>
<trkpt lat="45.995451" lon="11.180553">
<time>2020-09-27T13:50:11Z</time>
</trkpt>
<trkpt lat="45.99546" lon="11.180578">
<time>2020-09-27T13:50:12Z</time>
</trkpt>
<trkpt lat="45.995466" lon="11.180596">
<time>2020-09-27T13:50:13Z</time>
</trkpt>
<trkpt lat="45.995473" lon="11.180618">
<time>2020-09-27T13:50:14Z</time>
</trkpt>
<trkpt lat="45.995483" lon="11.18064">
<time>2020-09-27T13:50:15Z</time>
</trkpt>
<trkpt lat="45.995496" lon="11.180663">
<time>2020-09-27T13:50:16Z</time>
</trkpt>
<trkpt lat="45.995505" lon="11.180686">
<time>2020-09-27T13:50:17Z</time>
</trkpt>
<trkpt lat="45.995506" lon="11.18071">
<time>2020-09-27T13:50:18Z</time>
</trkpt>
<trkpt lat="45.995506" lon="11.180725">
<time>2020-09-27T13:50:19Z</time>
</trkpt>
<trkpt lat="45.99551" lon="11.180736">
<time>2020-09-27T13:50:20Z</time>
</trkpt>
<trkpt lat="45.995515" lon="11.180741">
<time>2020-09-27T13:50:21Z</time>
</trkpt>
<trkpt lat="45.995528" lon="11.180761">
<time>2020-09-27T13:50:22Z</time>
</trkpt>
<trkpt lat="45.995536" lon="11.180785">
<time>2020-09-27T13:50:23Z</time>
</trkpt>
<trkpt lat="45.995543" lon="11.180805">
<time>2020-09-27T13:50:24Z</time>
</trkpt>
<trkpt lat="45.995553" lon="11.18082">
<time>2020-09-27T13:50:25Z</time>
</trkpt>
<trkpt lat="45.995566" lon="11.180833">
<time>2020-09-27T13:50:26Z</time>
</trkpt>
<trkpt lat="45.995578" lon="11.180846">
<time>2020-09-27T13:50:27Z</time>
</trkpt>
<trkpt lat="45.995586" lon="11.180865">
<time>2020-09-27T13:50:28Z</time>
</trkpt>
<trkpt lat="45.995591" lon="11.180878">
<time>2020-09-27T13:50:29Z</time>
</trkpt>
<trkpt lat="45.995603" lon="11.18089">
<time>2020-09-27T13:50:30Z</time>
</trkpt>
<trkpt lat="45.995613" lon="11.180888">
<time>2020-09-27T13:50:31Z</time>
</trkpt>
<trkpt lat="45.99562" lon="11.180881">
<time>2020-09-27T13:50:32Z</time>
</trkpt>
<trkpt lat="45.995625" lon="11.180873">
<time>2020-09-27T13:50:33Z</time>
</trkpt>
<trkpt lat="45.995631" lon="11.180873">
<time>2020-09-27T13:50:34Z</time>
</trkpt>
<trkpt lat="45.995638" lon="11.18088">
<time>2020-09-27T13:50:35Z</time>
</trkpt>
<trkpt lat="45.99564" lon="11.180885">
<time>2020-09-27T13:50:36Z</time>
</trkpt>
<trkpt lat="45.995635" lon="11.180888">
<time>2020-09-27T13:50:37Z</time>
</trkpt>
<trkpt lat="45.995631" lon="11.18089">
<time>2020-09-27T13:50:38Z</time>
</trkpt>
<trkpt lat="45.99563" lon="11.180893">
<time>2020-09-27T13:50:39Z</time>
</trkpt>
<trkpt lat="45.995631" lon="11.1809">
<time>2020-09-27T13:50:40Z</time>
</trkpt>
<trkpt lat="45.995633" lon="11.180903">
<time>2020-09-27T13:50:41Z</time>
</trkpt>
<trkpt lat="45.99564" lon="11.180903">
<time>2020-09-27T13:50:42Z</time>
</trkpt>
<trkpt lat="45.995646" lon="11.180898">
<time>2020-09-27T13:50:43Z</time>
</trkpt>
<trkpt lat="45.995656" lon="11.180891">
<time>2020-09-27T13:50:44Z</time>
</trkpt>
<trkpt lat="45.995663" lon="11.180886">
<time>2020-09-27T13:50:45Z</time>
</trkpt>
<trkpt lat="45.995666" lon="11.18089">
<time>2020-09-27T13:50:46Z</time>
</trkpt>
<trkpt lat="45.995663" lon="11.1809">
<time>2020-09-27T13:50:47Z</time>
</trkpt>
<trkpt lat="45.995661" lon="11.180916">
<time>2020-09-27T13:50:48Z</time>
</trkpt>
<trkpt lat="45.995663" lon="11.180938">
<time>2020-09-27T13:50:49Z</time>
</trkpt>
<trkpt lat="45.995666" lon="11.180961">
<time>2020-09-27T13:50:50Z</time>
</trkpt>
<trkpt lat="45.995666" lon="11.180985">
<time>2020-09-27T13:50:51Z</time>
</trkpt>
<trkpt lat="45.995661" lon="11.181008">
<time>2020-09-27T13:50:52Z</time>
</trkpt>
<trkpt lat="45.99566" lon="11.18103">
<time>2020-09-27T13:50:53Z</time>
</trkpt>
<trkpt lat="45.995658" lon="11.181051">
<time>2020-09-27T13:50:54Z</time>
</trkpt>
<trkpt lat="45.995663" lon="11.181068">
<time>2020-09-27T13:50:55Z</time>
</trkpt>
<trkpt lat="45.995666" lon="11.181086">
<time>2020-09-27T13:50:56Z</time>
</trkpt>
<trkpt lat="45.99567" lon="11.181108">
<time>2020-09-27T13:50:57Z</time>
</trkpt>
<trkpt lat="45.99567" lon="11.181133">
<time>2020-09-27T13:50:58Z</time>
</trkpt>
<trkpt lat="45.995673" lon="11.181161">
<time>2020-09-27T13:50:59Z</time>
</trkpt>
<trkpt lat="45.995681" lon="11.181185">
<time>2020-09-27T13:51:00Z</time>
</trkpt>
<trkpt lat="45.995693" lon="11.181216">
<time>2020-09-27T13:51:01Z</time>
</trkpt>
<trkpt lat="45.995708" lon="11.181263">
<time>2020-09-27T13:51:02Z</time>
</trkpt>
<trkpt lat="45.995713" lon="11.181306">
<time>2020-09-27T13:51:03Z</time>
</trkpt>
<trkpt lat="45.995723" lon="11.181356">
<time>2020-09-27T13:51:04Z</time>
</trkpt>
<trkpt lat="45.995736" lon="11.181405">
<time>2020-09-27T13:51:05Z</time>
</trkpt>
<trkpt lat="45.995746" lon="11.181441">
<time>2020-09-27T13:51:06Z</time>
</trkpt>
<trkpt lat="45.99575" lon="11.181473">
<time>2020-09-27T13:51:07Z</time>
</trkpt>
<trkpt lat="45.99575" lon="11.181501">
<time>2020-09-27T13:51:08Z</time>
</trkpt>
<trkpt lat="45.995753" lon="11.181526">
<time>2020-09-27T13:51:09Z</time>
</trkpt>
<trkpt lat="45.995753" lon="11.18156">
<time>2020-09-27T13:51:10Z</time>
</trkpt>
<trkpt lat="45.995755" lon="11.18158">
<time>2020-09-27T13:51:11Z</time>
</trkpt>
<trkpt lat="45.995755" lon="11.181601">
<time>2020-09-27T13:51:12Z</time>
</trkpt>
<trkpt lat="45.995761" lon="11.181621">
<time>2020-09-27T13:51:13Z</time>
</trkpt>
<trkpt lat="45.99577" lon="11.181648">
<time>2020-09-27T13:51:14Z</time>
</trkpt>
<trkpt lat="45.995773" lon="11.181681">
<time>2020-09-27T13:51:15Z</time>
</trkpt>
<trkpt lat="45.99578" lon="11.181711">
<time>2020-09-27T13:51:16Z</time>
</trkpt>
<trkpt lat="45.995788" lon="11.18175">
<time>2020-09-27T13:51:17Z</time>
</trkpt>
<trkpt lat="45.995795" lon="11.181785">
<time>2020-09-27T13:51:18Z</time>
</trkpt>
<trkpt lat="45.995795" lon="11.181816">
<time>2020-09-27T13:51:19Z</time>
</trkpt>
<trkpt lat="45.995795" lon="11.181843">
<time>2020-09-27T13:51:20Z</time>
</trkpt>
<trkpt lat="45.995798" lon="11.18187">
<time>2020-09-27T13:51:21Z</time>
</trkpt>
<trkpt lat="45.995798" lon="11.181895">
<time>2020-09-27T13:51:22Z</time>
</trkpt>
<trkpt lat="45.995806" lon="11.181915">
<time>2020-09-27T13:51:23Z</time>
</trkpt>
<trkpt lat="45.995815" lon="11.181945">
<time>2020-09-27T13:51:24Z</time>
</trkpt>
<trkpt lat="45.995816" lon="11.18197">
<time>2020-09-27T13:51:25Z</time>
</trkpt>
<trkpt lat="45.995818" lon="11.182005">
<time>2020-09-27T13:51:26Z</time>
</trkpt>
<trkpt lat="45.995818" lon="11.182043">
<time>2020-09-27T13:51:27Z</time>
</trkpt>
<trkpt lat="45.995818" lon="11.182088">
<time>2020-09-27T13:51:28Z</time>
</trkpt>
<trkpt lat="45.995821" lon="11.182115">
<time>2020-09-27T13:51:29Z</time>
</trkpt>
<trkpt lat="45.995826" lon="11.182143">
<time>2020-09-27T13:51:30Z</time>
</trkpt>
<trkpt lat="45.995838" lon="11.182181">
<time>2020-09-27T13:51:31Z</time>
</trkpt>
<trkpt lat="45.995841" lon="11.182213">
<time>2020-09-27T13:51:32Z</time>
</trkpt>
<trkpt lat="45.995845" lon="11.182245">
<time>2020-09-27T13:51:33Z</time>
</trkpt>
<trkpt lat="45.995843" lon="11.182276">
<time>2020-09-27T13:51:34Z</time>
</trkpt>
<trkpt lat="45.995841" lon="11.182306">
<time>2020-09-27T13:51:35Z</time>
</trkpt>
<trkpt lat="45.995836" lon="11.182333">
<time>2020-09-27T13:51:36Z</time>
</trkpt>
<trkpt lat="45.995833" lon="11.182356">
<time>2020-09-27T13:51:37Z</time>
</trkpt>
<trkpt lat="45.99583" lon="11.182373">
<time>2020-09-27T13:51:38Z</time>
</trkpt>
<trkpt lat="45.995828" lon="11.182393">
<time>2020-09-27T13:51:39Z</time>
</trkpt>
<trkpt lat="45.99583" lon="11.182415">
<time>2020-09-27T13:51:40Z</time>
</trkpt>
<trkpt lat="45.995833" lon="11.182441">
<time>2020-09-27T13:51:41Z</time>
</trkpt>
<trkpt lat="45.99584" lon="11.182468">
<time>2020-09-27T13:51:42Z</time>
</trkpt>
<trkpt lat="45.995841" lon="11.182493">
<time>2020-09-27T13:51:43Z</time>
</trkpt>
<trkpt lat="45.995848" lon="11.18252">
<time>2020-09-27T13:51:44Z</time>
</trkpt>
<trkpt lat="45.995851" lon="11.182548">
<time>2020-09-27T13:51:45Z</time>
</trkpt>
<trkpt lat="45.995853" lon="11.182576">
<time>2020-09-27T13:51:46Z</time>
</trkpt>
<trkpt lat="45.995858" lon="11.182603">
<time>2020-09-27T13:51:47Z</time>
</trkpt>
<trkpt lat="45.995865" lon="11.182623">
<time>2020-09-27T13:51:48Z</time>
</trkpt>
<trkpt lat="45.995873" lon="11.182636">
<time>2020-09-27T13:51:49Z</time>
</trkpt>
<trkpt lat="45.995875" lon="11.182661">
<time>2020-09-27T13:51:50Z</time>
</trkpt>
<trkpt lat="45.995878" lon="11.182688">
<time>2020-09-27T13:51:51Z</time>
</trkpt>
<trkpt lat="45.995876" lon="11.182711">
<time>2020-09-27T13:51:52Z</time>
</trkpt>
<trkpt lat="45.995876" lon="11.182718">
<time>2020-09-27T13:51:53Z</time>
</trkpt>
<trkpt lat="45.99587" lon="11.182728">
<time>2020-09-27T13:51:54Z</time>
</trkpt>
<trkpt lat="45.995865" lon="11.182741">
<time>2020-09-27T13:51:55Z</time>
</trkpt>
<trkpt lat="45.995861" lon="11.182755">
<time>2020-09-27T13:51:56Z</time>
</trkpt>
<trkpt lat="45.99586" lon="11.18277">
<time>2020-09-27T13:51:57Z</time>
</trkpt>
<trkpt lat="45.99586" lon="11.182785">
<time>2020-09-27T13:51:58Z</time>
</trkpt>
<trkpt lat="45.995863" lon="11.182806">
<time>2020-09-27T13:51:59Z</time>
</trkpt>
<trkpt lat="45.995865" lon="11.182826">
<time>2020-09-27T13:52:00Z</time>
</trkpt>
<trkpt lat="45.995865" lon="11.18284">
<time>2020-09-27T13:52:01Z</time>
</trkpt>
<trkpt lat="45.995863" lon="11.182858">
<time>2020-09-27T13:52:02Z</time>
</trkpt>
<trkpt lat="45.995861" lon="11.182878">
<time>2020-09-27T13:52:03Z</time>
</trkpt>
<trkpt lat="45.995863" lon="11.182895">
<time>2020-09-27T13:52:04Z</time>
</trkpt>
<trkpt lat="45.995861" lon="11.182908">
<time>2020-09-27T13:52:05Z</time>
</trkpt>
<trkpt lat="45.99586" lon="11.182925">
<time>2020-09-27T13:52:06Z</time>
</trkpt>
<trkpt lat="45.995856" lon="11.18294">
<time>2020-09-27T13:52:07Z</time>
</trkpt>
<trkpt lat="45.995855" lon="11.182958">
<time>2020-09-27T13:52:08Z</time>
</trkpt>
<trkpt lat="45.995861" lon="11.182973">
<time>2020-09-27T13:52:09Z</time>
</trkpt>
<trkpt lat="45.995868" lon="11.182983">
<time>2020-09-27T13:52:10Z</time>
</trkpt>
<trkpt lat="45.995881" lon="11.182991">
<time>2020-09-27T13:52:11Z</time>
</trkpt>
<trkpt lat="45.995893" lon="11.183">
<time>2020-09-27T13:52:12Z</time>
</trkpt>
<trkpt lat="45.995905" lon="11.183008">
<time>2020-09-27T13:52:13Z</time>
</trkpt>
<trkpt lat="45.995915" lon="11.183016">
<time>2020-09-27T13:52:14Z</time>
</trkpt>
<trkpt lat="45.995926" lon="11.183021">
<time>2020-09-27T13:52:15Z</time>
</trkpt>
<trkpt lat="45.995935" lon="11.183021">
<time>2020-09-27T13:52:16Z</time>
</trkpt>
<trkpt lat="45.995946" lon="11.183026">
<time>2020-09-27T13:52:17Z</time>
</trkpt>
<trkpt lat="45.99596" lon="11.18304">
<time>2020-09-27T13:52:18Z</time>
</trkpt>
<trkpt lat="45.995971" lon="11.183055">
<time>2020-09-27T13:52:19Z</time>
</trkpt>
<trkpt lat="45.995981" lon="11.183073">
<time>2020-09-27T13:52:20Z</time>
</trkpt>
<trkpt lat="45.995986" lon="11.18309">
<time>2020-09-27T13:52:21Z</time>
</trkpt>
<trkpt lat="45.995991" lon="11.183106">
<time>2020-09-27T13:52:22Z</time>
</trkpt>
<trkpt lat="45.995996" lon="11.183125">
<time>2020-09-27T13:52:23Z</time>
</trkpt>
<trkpt lat="45.996008" lon="11.18314">
<time>2020-09-27T13:52:24Z</time>
</trkpt>
<trkpt lat="45.996016" lon="11.183153">
<time>2020-09-27T13:52:25Z</time>
</trkpt>
<trkpt lat="45.996025" lon="11.183168">
<time>2020-09-27T13:52:26Z</time>
</trkpt>
<trkpt lat="45.996031" lon="11.183176">
<time>2020-09-27T13:52:27Z</time>
</trkpt>
<trkpt lat="45.996035" lon="11.18318">
<time>2020-09-27T13:52:28Z</time>
</trkpt>
<trkpt lat="45.99604" lon="11.183181">
<time>2020-09-27T13:52:29Z</time>
</trkpt>
<trkpt lat="45.996046" lon="11.183185">
<time>2020-09-27T13:52:30Z</time>
</trkpt>
<trkpt lat="45.996051" lon="11.18319">
<time>2020-09-27T13:52:31Z</time>
</trkpt>
<trkpt lat="45.99606" lon="11.183198">
<time>2020-09-27T13:52:32Z</time>
</trkpt>
<trkpt lat="45.996068" lon="11.183206">
<time>2020-09-27T13:52:33Z</time>
</trkpt>
<trkpt lat="45.996078" lon="11.183216">
<time>2020-09-27T13:52:34Z</time>
</trkpt>
<trkpt lat="45.996088" lon="11.183225">
<time>2020-09-27T13:52:35Z</time>
</trkpt>
<trkpt lat="45.996095" lon="11.183233">
<time>2020-09-27T13:52:36Z</time>
</trkpt>
<trkpt lat="45.996105" lon="11.183238">
<time>2020-09-27T13:52:37Z</time>
</trkpt>
<trkpt lat="45.996116" lon="11.183238">
<time>2020-09-27T13:52:38Z</time>
</trkpt>
<trkpt lat="45.996135" lon="11.183236">
<time>2020-09-27T13:52:39Z</time>
</trkpt>
<trkpt lat="45.99615" lon="11.183243">
<time>2020-09-27T13:52:40Z</time>
</trkpt>
<trkpt lat="45.996158" lon="11.18325">
<time>2020-09-27T13:52:41Z</time>
</trkpt>
<trkpt lat="45.996158" lon="11.183246">
<time>2020-09-27T13:52:42Z</time>
</trkpt>
<trkpt lat="45.996151" lon="11.18324">
<time>2020-09-27T13:52:43Z</time>
</trkpt>
<trkpt lat="45.996145" lon="11.183221">
<time>2020-09-27T13:52:44Z</time>
</trkpt>
<trkpt lat="45.996143" lon="11.18321">
<time>2020-09-27T13:52:45Z</time>
</trkpt>
<trkpt lat="45.996143" lon="11.183201">
<time>2020-09-27T13:52:46Z</time>
</trkpt>
<trkpt lat="45.996145" lon="11.183191">
<time>2020-09-27T13:52:47Z</time>
</trkpt>
<trkpt lat="45.996148" lon="11.183181">
<time>2020-09-27T13:52:48Z</time>
</trkpt>
<trkpt lat="45.996151" lon="11.183173">
<time>2020-09-27T13:52:49Z</time>
</trkpt>
<trkpt lat="45.996155" lon="11.18317">
<time>2020-09-27T13:52:50Z</time>
</trkpt>
<trkpt lat="45.99616" lon="11.183163">
<time>2020-09-27T13:52:51Z</time>
</trkpt>
<trkpt lat="45.996166" lon="11.18316">
<time>2020-09-27T13:52:52Z</time>
</trkpt>
<trkpt lat="45.996173" lon="11.183161">
<time>2020-09-27T13:52:53Z</time>
</trkpt>
<trkpt lat="45.996176" lon="11.183161">
<time>2020-09-27T13:52:54Z</time>
</trkpt>
<trkpt lat="45.996185" lon="11.183161">
<time>2020-09-27T13:52:55Z</time>
</trkpt>
<trkpt lat="45.996195" lon="11.183161">
<time>2020-09-27T13:52:56Z</time>
</trkpt>
<trkpt lat="45.996205" lon="11.183161">
<time>2020-09-27T13:52:57Z</time>
</trkpt>
<trkpt lat="45.996216" lon="11.183163">
<time>2020-09-27T13:52:58Z</time>
</trkpt>
<trkpt lat="45.996228" lon="11.18316">
<time>2020-09-27T13:52:59Z</time>
</trkpt>
<trkpt lat="45.996238" lon="11.183161">
<time>2020-09-27T13:53:00Z</time>
</trkpt>
<trkpt lat="45.996245" lon="11.183163">
<time>2020-09-27T13:53:01Z</time>
</trkpt>
<trkpt lat="45.996251" lon="11.18317">
<time>2020-09-27T13:53:02Z</time>
</trkpt>
<trkpt lat="45.996261" lon="11.183178">
<time>2020-09-27T13:53:03Z</time>
</trkpt>
<trkpt lat="45.996275" lon="11.183193">
<time>2020-09-27T13:53:04Z</time>
</trkpt>
<trkpt lat="45.996283" lon="11.183196">
<time>2020-09-27T13:53:05Z</time>
</trkpt>
<trkpt lat="45.996288" lon="11.183215">
<time>2020-09-27T13:53:06Z</time>
</trkpt>
<trkpt lat="45.996286" lon="11.183236">
<time>2020-09-27T13:53:07Z</time>
</trkpt>
<trkpt lat="45.996286" lon="11.183258">
<time>2020-09-27T13:53:08Z</time>
</trkpt>
<trkpt lat="45.996278" lon="11.183275">
<time>2020-09-27T13:53:09Z</time>
</trkpt>
<trkpt lat="45.996273" lon="11.183286">
<time>2020-09-27T13:53:10Z</time>
</trkpt>
<trkpt lat="45.996268" lon="11.183295">
<time>2020-09-27T13:53:11Z</time>
</trkpt>
<trkpt lat="45.996265" lon="11.183301">
<time>2020-09-27T13:53:12Z</time>
</trkpt>
<trkpt lat="45.996265" lon="11.183303">
<time>2020-09-27T13:53:13Z</time>
</trkpt>
<trkpt lat="45.996265" lon="11.183303">
<time>2020-09-27T13:53:14Z</time>
</trkpt>
<trkpt lat="45.996266" lon="11.183306">
<time>2020-09-27T13:53:15Z</time>
</trkpt>
<trkpt lat="45.996266" lon="11.183311">
<time>2020-09-27T13:53:16Z</time>
</trkpt>
<trkpt lat="45.996266" lon="11.183316">
<time>2020-09-27T13:53:17Z</time>
</trkpt>
<trkpt lat="45.996261" lon="11.183318">
<time>2020-09-27T13:53:18Z</time>
</trkpt>
<trkpt lat="45.996255" lon="11.183315">
<time>2020-09-27T13:53:19Z</time>
</trkpt>
<trkpt lat="45.996246" lon="11.183313">
<time>2020-09-27T13:53:20Z</time>
</trkpt>
<trkpt lat="45.996235" lon="11.183313">
<time>2020-09-27T13:53:21Z</time>
</trkpt>
<trkpt lat="45.996225" lon="11.183311">
<time>2020-09-27T13:53:22Z</time>
</trkpt>
<trkpt lat="45.996215" lon="11.183311">
<time>2020-09-27T13:53:23Z</time>
</trkpt>
<trkpt lat="45.996201" lon="11.183308">
<time>2020-09-27T13:53:24Z</time>
</trkpt>
<trkpt lat="45.99619" lon="11.183308">
<time>2020-09-27T13:53:25Z</time>
</trkpt>
<trkpt lat="45.99618" lon="11.18331">
<time>2020-09-27T13:53:26Z</time>
</trkpt>
<trkpt lat="45.99617" lon="11.183313">
<time>2020-09-27T13:53:27Z</time>
</trkpt>
<trkpt lat="45.996161" lon="11.183318">
<time>2020-09-27T13:53:28Z</time>
</trkpt>
<trkpt lat="45.996153" lon="11.183323">
<time>2020-09-27T13:53:29Z</time>
</trkpt>
<trkpt lat="45.996145" lon="11.183328">
<time>2020-09-27T13:53:30Z</time>
</trkpt>
<trkpt lat="45.996135" lon="11.183333">
<time>2020-09-27T13:53:31Z</time>
</trkpt>
<trkpt lat="45.996121" lon="11.183328">
<time>2020-09-27T13:53:32Z</time>
</trkpt>
<trkpt lat="45.996105" lon="11.18332">
<time>2020-09-27T13:53:33Z</time>
</trkpt>
<trkpt lat="45.996078" lon="11.183306">
<time>2020-09-27T13:53:34Z</time>
</trkpt>
<trkpt lat="45.996063" lon="11.1833">
<time>2020-09-27T13:53:35Z</time>
</trkpt>
<trkpt lat="45.99605" lon="11.183305">
<time>2020-09-27T13:53:36Z</time>
</trkpt>
<trkpt lat="45.996043" lon="11.183313">
<time>2020-09-27T13:53:37Z</time>
</trkpt>
<trkpt lat="45.99604" lon="11.183316">
<time>2020-09-27T13:53:38Z</time>
</trkpt>
<trkpt lat="45.996035" lon="11.183316">
<time>2020-09-27T13:53:39Z</time>
</trkpt>
<trkpt lat="45.996025" lon="11.183313">
<time>2020-09-27T13:53:40Z</time>
</trkpt>
<trkpt lat="45.996015" lon="11.183313">
<time>2020-09-27T13:53:41Z</time>
</trkpt>
<trkpt lat="45.996005" lon="11.183318">
<time>2020-09-27T13:53:42Z</time>
</trkpt>
<trkpt lat="45.995991" lon="11.183326">
<time>2020-09-27T13:53:43Z</time>
</trkpt>
<trkpt lat="45.99598" lon="11.183335">
<time>2020-09-27T13:53:44Z</time>
</trkpt>
<trkpt lat="45.99597" lon="11.183338">
<time>2020-09-27T13:53:45Z</time>
</trkpt>
<trkpt lat="45.995963" lon="11.183341">
<time>2020-09-27T13:53:46Z</time>
</trkpt>
<trkpt lat="45.99596" lon="11.183346">
<time>2020-09-27T13:53:47Z</time>
</trkpt>
<trkpt lat="45.995955" lon="11.183351">
<time>2020-09-27T13:53:48Z</time>
</trkpt>
<trkpt lat="45.995948" lon="11.183361">
<time>2020-09-27T13:53:49Z</time>
</trkpt>
<trkpt lat="45.995945" lon="11.183368">
<time>2020-09-27T13:53:50Z</time>
</trkpt>
<trkpt lat="45.995948" lon="11.18338">
<time>2020-09-27T13:53:51Z</time>
</trkpt>
<trkpt lat="45.995951" lon="11.18339">
<time>2020-09-27T13:53:52Z</time>
</trkpt>
<trkpt lat="45.995953" lon="11.183396">
<time>2020-09-27T13:53:53Z</time>
</trkpt>
<trkpt lat="45.995955" lon="11.183401">
<time>2020-09-27T13:53:54Z</time>
</trkpt>
<trkpt lat="45.995948" lon="11.18341">
<time>2020-09-27T13:53:55Z</time>
</trkpt>
<trkpt lat="45.995936" lon="11.183418">
<time>2020-09-27T13:53:56Z</time>
</trkpt>
<trkpt lat="45.995926" lon="11.183425">
<time>2020-09-27T13:53:57Z</time>
</trkpt>
<trkpt lat="45.995923" lon="11.183428">
<time>2020-09-27T13:53:58Z</time>
</trkpt>
<trkpt lat="45.995926" lon="11.183435">
<time>2020-09-27T13:53:59Z</time>
</trkpt>
<trkpt lat="45.995923" lon="11.18344">
<time>2020-09-27T13:54:00Z</time>
</trkpt>
<trkpt lat="45.995916" lon="11.183445">
<time>2020-09-27T13:54:01Z</time>
</trkpt>
<trkpt lat="45.995908" lon="11.183443">
<time>2020-09-27T13:54:02Z</time>
</trkpt>
<trkpt lat="45.995898" lon="11.18345">
<time>2020-09-27T13:54:03Z</time>
</trkpt>
<trkpt lat="45.995883" lon="11.183453">
<time>2020-09-27T13:54:04Z</time>
</trkpt>
<trkpt lat="45.995866" lon="11.183463">
<time>2020-09-27T13:54:05Z</time>
</trkpt>
<trkpt lat="45.995848" lon="11.18347">
<time>2020-09-27T13:54:06Z</time>
</trkpt>
<trkpt lat="45.995833" lon="11.183478">
<time>2020-09-27T13:54:07Z</time>
</trkpt>
<trkpt lat="45.995821" lon="11.183491">
<time>2020-09-27T13:54:08Z</time>
</trkpt>
<trkpt lat="45.99581" lon="11.1835">
<time>2020-09-27T13:54:09Z</time>
</trkpt>
<trkpt lat="45.9958" lon="11.183506">
<time>2020-09-27T13:54:10Z</time>
</trkpt>
<trkpt lat="45.995793" lon="11.183516">
<time>2020-09-27T13:54:11Z</time>
</trkpt>
<trkpt lat="45.995781" lon="11.183535">
<time>2020-09-27T13:54:12Z</time>
</trkpt>
<trkpt lat="45.99577" lon="11.183555">
<time>2020-09-27T13:54:13Z</time>
</trkpt>
<trkpt lat="45.995761" lon="11.183573">
<time>2020-09-27T13:54:14Z</time>
</trkpt>
<trkpt lat="45.995755" lon="11.183588">
<time>2020-09-27T13:54:15Z</time>
</trkpt>
<trkpt lat="45.995746" lon="11.183596">
<time>2020-09-27T13:54:16Z</time>
</trkpt>
<trkpt lat="45.995736" lon="11.183603">
<time>2020-09-27T13:54:17Z</time>
</trkpt>
<trkpt lat="45.995726" lon="11.183605">
<time>2020-09-27T13:54:18Z</time>
</trkpt>
<trkpt lat="45.995713" lon="11.183603">
<time>2020-09-27T13:54:19Z</time>
</trkpt>
<trkpt lat="45.9957" lon="11.183608">
<time>2020-09-27T13:54:20Z</time>
</trkpt>
<trkpt lat="45.995683" lon="11.183611">
<time>2020-09-27T13:54:21Z</time>
</trkpt>
<trkpt lat="45.995671" lon="11.183618">
<time>2020-09-27T13:54:22Z</time>
</trkpt>
<trkpt lat="45.995661" lon="11.183621">
<time>2020-09-27T13:54:23Z</time>
</trkpt>
<trkpt lat="45.995656" lon="11.183621">
<time>2020-09-27T13:54:24Z</time>
</trkpt>
<trkpt lat="45.995653" lon="11.18362">
<time>2020-09-27T13:54:25Z</time>
</trkpt>
<trkpt lat="45.995656" lon="11.183623">
<time>2020-09-27T13:54:26Z</time>
</trkpt>
<trkpt lat="45.995658" lon="11.183626">
<time>2020-09-27T13:54:27Z</time>
</trkpt>
<trkpt lat="45.995656" lon="11.183633">
<time>2020-09-27T13:54:28Z</time>
</trkpt>
<trkpt lat="45.995655" lon="11.18364">
<time>2020-09-27T13:54:29Z</time>
</trkpt>
<trkpt lat="45.995653" lon="11.183645">
<time>2020-09-27T13:54:30Z</time>
</trkpt>
<trkpt lat="45.995653" lon="11.183648">
<time>2020-09-27T13:54:31Z</time>
</trkpt>
<trkpt lat="45.995655" lon="11.183648">
<time>2020-09-27T13:54:32Z</time>
</trkpt>
<trkpt lat="45.99565" lon="11.183656">
<time>2020-09-27T13:54:33Z</time>
</trkpt>
<trkpt lat="45.995641" lon="11.183665">
<time>2020-09-27T13:54:34Z</time>
</trkpt>
<trkpt lat="45.995631" lon="11.183671">
<time>2020-09-27T13:54:35Z</time>
</trkpt>
<trkpt lat="45.995621" lon="11.183671">
<time>2020-09-27T13:54:36Z</time>
</trkpt>
<trkpt lat="45.995611" lon="11.183675">
<time>2020-09-27T13:54:37Z</time>
</trkpt>
<trkpt lat="45.995598" lon="11.183678">
<time>2020-09-27T13:54:38Z</time>
</trkpt>
<trkpt lat="45.995588" lon="11.183681">
<time>2020-09-27T13:54:39Z</time>
</trkpt>
<trkpt lat="45.995578" lon="11.183688">
<time>2020-09-27T13:54:40Z</time>
</trkpt>
<trkpt lat="45.995568" lon="11.183696">
<time>2020-09-27T13:54:41Z</time>
</trkpt>
<trkpt lat="45.99556" lon="11.183705">
<time>2020-09-27T13:54:42Z</time>
</trkpt>
<trkpt lat="45.99555" lon="11.183713">
<time>2020-09-27T13:54:43Z</time>
</trkpt>
<trkpt lat="45.99554" lon="11.183723">
<time>2020-09-27T13:54:44Z</time>
</trkpt>
<trkpt lat="45.995531" lon="11.18373">
<time>2020-09-27T13:54:45Z</time>
</trkpt>
<trkpt lat="45.995525" lon="11.183735">
<time>2020-09-27T13:54:46Z</time>
</trkpt>
<trkpt lat="45.995518" lon="11.183736">
<time>2020-09-27T13:54:47Z</time>
</trkpt>
<trkpt lat="45.995511" lon="11.183735">
<time>2020-09-27T13:54:48Z</time>
</trkpt>
<trkpt lat="45.995498" lon="11.183751">
<time>2020-09-27T13:54:49Z</time>
</trkpt>
<trkpt lat="45.995488" lon="11.18376">
<time>2020-09-27T13:54:50Z</time>
</trkpt>
<trkpt lat="45.995483" lon="11.183766">
<time>2020-09-27T13:54:51Z</time>
</trkpt>
<trkpt lat="45.995478" lon="11.18377">
<time>2020-09-27T13:54:52Z</time>
</trkpt>
<trkpt lat="45.995471" lon="11.183778">
<time>2020-09-27T13:54:53Z</time>
</trkpt>
<trkpt lat="45.995465" lon="11.183786">
<time>2020-09-27T13:54:54Z</time>
</trkpt>
<trkpt lat="45.995456" lon="11.183793">
<time>2020-09-27T13:54:55Z</time>
</trkpt>
<trkpt lat="45.99545" lon="11.183803">
<time>2020-09-27T13:54:56Z</time>
</trkpt>
<trkpt lat="45.99545" lon="11.183815">
<time>2020-09-27T13:54:57Z</time>
</trkpt>
<trkpt lat="45.995448" lon="11.183821">
<time>2020-09-27T13:54:58Z</time>
</trkpt>
<trkpt lat="45.995445" lon="11.183831">
<time>2020-09-27T13:54:59Z</time>
</trkpt>
<trkpt lat="45.99544" lon="11.183845">
<time>2020-09-27T13:55:00Z</time>
</trkpt>
<trkpt lat="45.995433" lon="11.183875">
<time>2020-09-27T13:55:01Z</time>
</trkpt>
<trkpt lat="45.995436" lon="11.183878">
<time>2020-09-27T13:55:02Z</time>
</trkpt>
<trkpt lat="45.995445" lon="11.183885">
<time>2020-09-27T13:55:03Z</time>
</trkpt>
<trkpt lat="45.995455" lon="11.183888">
<time>2020-09-27T13:55:04Z</time>
</trkpt>
<trkpt lat="45.995461" lon="11.183898">
<time>2020-09-27T13:55:05Z</time>
</trkpt>
<trkpt lat="45.995463" lon="11.183916">
<time>2020-09-27T13:55:06Z</time>
</trkpt>
<trkpt lat="45.995463" lon="11.183941">
<time>2020-09-27T13:55:07Z</time>
</trkpt>
<trkpt lat="45.995463" lon="11.183965">
<time>2020-09-27T13:55:08Z</time>
</trkpt>
<trkpt lat="45.995458" lon="11.183988">
<time>2020-09-27T13:55:09Z</time>
</trkpt>
<trkpt lat="45.995446" lon="11.184013">
<time>2020-09-27T13:55:10Z</time>
</trkpt>
<trkpt lat="45.995438" lon="11.184035">
<time>2020-09-27T13:55:11Z</time>
</trkpt>
<trkpt lat="45.99543" lon="11.18406">
<time>2020-09-27T13:55:12Z</time>
</trkpt>
<trkpt lat="45.995421" lon="11.18408">
<time>2020-09-27T13:55:13Z</time>
</trkpt>
<trkpt lat="45.99541" lon="11.1841">
<time>2020-09-27T13:55:14Z</time>
</trkpt>
<trkpt lat="45.995396" lon="11.18412">
<time>2020-09-27T13:55:15Z</time>
</trkpt>
<trkpt lat="45.995386" lon="11.184136">
<time>2020-09-27T13:55:16Z</time>
</trkpt>
<trkpt lat="45.995373" lon="11.184153">
<time>2020-09-27T13:55:17Z</time>
</trkpt>
<trkpt lat="45.995358" lon="11.184168">
<time>2020-09-27T13:55:18Z</time>
</trkpt>
<trkpt lat="45.995341" lon="11.184191">
<time>2020-09-27T13:55:19Z</time>
</trkpt>
<trkpt lat="45.995326" lon="11.184218">
<time>2020-09-27T13:55:20Z</time>
</trkpt>
<trkpt lat="45.995311" lon="11.184253">
<time>2020-09-27T13:55:21Z</time>
</trkpt>
<trkpt lat="45.995298" lon="11.184286">
<time>2020-09-27T13:55:22Z</time>
</trkpt>
<trkpt lat="45.995291" lon="11.184321">
<time>2020-09-27T13:55:23Z</time>
</trkpt>
<trkpt lat="45.995286" lon="11.184358">
<time>2020-09-27T13:55:24Z</time>
</trkpt>
<trkpt lat="45.995283" lon="11.184376">
<time>2020-09-27T13:55:25Z</time>
</trkpt>
<trkpt lat="45.995278" lon="11.184401">
<time>2020-09-27T13:55:26Z</time>
</trkpt>
<trkpt lat="45.995271" lon="11.184421">
<time>2020-09-27T13:55:27Z</time>
</trkpt>
<trkpt lat="45.995263" lon="11.184445">
<time>2020-09-27T13:55:28Z</time>
</trkpt>
<trkpt lat="45.995255" lon="11.184476">
<time>2020-09-27T13:55:29Z</time>
</trkpt>
<trkpt lat="45.995248" lon="11.1845">
<time>2020-09-27T13:55:30Z</time>
</trkpt>
<trkpt lat="45.99524" lon="11.184515">
<time>2020-09-27T13:55:31Z</time>
</trkpt>
<trkpt lat="45.995225" lon="11.18454">
<time>2020-09-27T13:55:32Z</time>
</trkpt>
<trkpt lat="45.995211" lon="11.184563">
<time>2020-09-27T13:55:33Z</time>
</trkpt>
<trkpt lat="45.995205" lon="11.18459">
<time>2020-09-27T13:55:34Z</time>
</trkpt>
<trkpt lat="45.9952" lon="11.184611">
<time>2020-09-27T13:55:35Z</time>
</trkpt>
<trkpt lat="45.995196" lon="11.184645">
<time>2020-09-27T13:55:36Z</time>
</trkpt>
<trkpt lat="45.995195" lon="11.184671">
<time>2020-09-27T13:55:37Z</time>
</trkpt>
<trkpt lat="45.995188" lon="11.184701">
<time>2020-09-27T13:55:38Z</time>
</trkpt>
<trkpt lat="45.995178" lon="11.184733">
<time>2020-09-27T13:55:39Z</time>
</trkpt>
<trkpt lat="45.995171" lon="11.184768">
<time>2020-09-27T13:55:40Z</time>
</trkpt>
<trkpt lat="45.995165" lon="11.184798">
<time>2020-09-27T13:55:41Z</time>
</trkpt>
<trkpt lat="45.995163" lon="11.184816">
<time>2020-09-27T13:55:42Z</time>
</trkpt>
<trkpt lat="45.99516" lon="11.18485">
<time>2020-09-27T13:55:43Z</time>
</trkpt>
<trkpt lat="45.995156" lon="11.184888">
<time>2020-09-27T13:55:44Z</time>
</trkpt>
<trkpt lat="45.995153" lon="11.184926">
<time>2020-09-27T13:55:45Z</time>
</trkpt>
<trkpt lat="45.995148" lon="11.18496">
<time>2020-09-27T13:55:46Z</time>
</trkpt>
<trkpt lat="45.995143" lon="11.18499">
<time>2020-09-27T13:55:47Z</time>
</trkpt>
<trkpt lat="45.99514" lon="11.185011">
<time>2020-09-27T13:55:48Z</time>
</trkpt>
<trkpt lat="45.995131" lon="11.185033">
<time>2020-09-27T13:55:49Z</time>
</trkpt>
<trkpt lat="45.995123" lon="11.18505">
<time>2020-09-27T13:55:50Z</time>
</trkpt>
<trkpt lat="45.995125" lon="11.185063">
<time>2020-09-27T13:55:51Z</time>
</trkpt>
<trkpt lat="45.995121" lon="11.18508">
<time>2020-09-27T13:55:52Z</time>
</trkpt>
<trkpt lat="45.995118" lon="11.185096">
<time>2020-09-27T13:55:53Z</time>
</trkpt>
<trkpt lat="45.995123" lon="11.1851">
<time>2020-09-27T13:55:54Z</time>
</trkpt>
<trkpt lat="45.995128" lon="11.18509">
<time>2020-09-27T13:55:55Z</time>
</trkpt>
<trkpt lat="45.995136" lon="11.185083">
<time>2020-09-27T13:55:56Z</time>
</trkpt>
<trkpt lat="45.995133" lon="11.185091">
<time>2020-09-27T13:55:57Z</time>
</trkpt>
<trkpt lat="45.995125" lon="11.185101">
<time>2020-09-27T13:55:58Z</time>
</trkpt>
<trkpt lat="45.995116" lon="11.185115">
<time>2020-09-27T13:55:59Z</time>
</trkpt>
<trkpt lat="45.995101" lon="11.185136">
<time>2020-09-27T13:56:00Z</time>
</trkpt>
<trkpt lat="45.995088" lon="11.185158">
<time>2020-09-27T13:56:01Z</time>
</trkpt>
<trkpt lat="45.995078" lon="11.185175">
<time>2020-09-27T13:56:02Z</time>
</trkpt>
<trkpt lat="45.995071" lon="11.185191">
<time>2020-09-27T13:56:03Z</time>
</trkpt>
<trkpt lat="45.995066" lon="11.18521">
<time>2020-09-27T13:56:04Z</time>
</trkpt>
<trkpt lat="45.995063" lon="11.185228">
<time>2020-09-27T13:56:05Z</time>
</trkpt>
<trkpt lat="45.995061" lon="11.185243">
<time>2020-09-27T13:56:06Z</time>
</trkpt>
<trkpt lat="45.995061" lon="11.185258">
<time>2020-09-27T13:56:07Z</time>
</trkpt>
<trkpt lat="45.995065" lon="11.18527">
<time>2020-09-27T13:56:08Z</time>
</trkpt>
<trkpt lat="45.995061" lon="11.185288">
<time>2020-09-27T13:56:09Z</time>
</trkpt>
<trkpt lat="45.995058" lon="11.185306">
<time>2020-09-27T13:56:10Z</time>
</trkpt>
<trkpt lat="45.99505" lon="11.185325">
<time>2020-09-27T13:56:11Z</time>
</trkpt>
<trkpt lat="45.99504" lon="11.185348">
<time>2020-09-27T13:56:12Z</time>
</trkpt>
<trkpt lat="45.99503" lon="11.185388">
<time>2020-09-27T13:56:13Z</time>
</trkpt>
<trkpt lat="45.99502" lon="11.185423">
<time>2020-09-27T13:56:14Z</time>
</trkpt>
<trkpt lat="45.995013" lon="11.185451">
<time>2020-09-27T13:56:15Z</time>
</trkpt>
<trkpt lat="45.995013" lon="11.185481">
<time>2020-09-27T13:56:16Z</time>
</trkpt>
<trkpt lat="45.99501" lon="11.1855">
<time>2020-09-27T13:56:17Z</time>
</trkpt>
<trkpt lat="45.995011" lon="11.185516">
<time>2020-09-27T13:56:18Z</time>
</trkpt>
<trkpt lat="45.995013" lon="11.185526">
<time>2020-09-27T13:56:19Z</time>
</trkpt>
<trkpt lat="45.995003" lon="11.185548">
<time>2020-09-27T13:56:20Z</time>
</trkpt>
<trkpt lat="45.994988" lon="11.185583">
<time>2020-09-27T13:56:21Z</time>
</trkpt>
<trkpt lat="45.994976" lon="11.185615">
<time>2020-09-27T13:56:22Z</time>
</trkpt>
<trkpt lat="45.994965" lon="11.185643">
<time>2020-09-27T13:56:23Z</time>
</trkpt>
<trkpt lat="45.994951" lon="11.185655">
<time>2020-09-27T13:56:24Z</time>
</trkpt>
<trkpt lat="45.994938" lon="11.185658">
<time>2020-09-27T13:56:25Z</time>
</trkpt>
<trkpt lat="45.994926" lon="11.185661">
<time>2020-09-27T13:56:26Z</time>
</trkpt>
<trkpt lat="45.994911" lon="11.185665">
<time>2020-09-27T13:56:27Z</time>
</trkpt>
<trkpt lat="45.994898" lon="11.18567">
<time>2020-09-27T13:56:28Z</time>
</trkpt>
<trkpt lat="45.994886" lon="11.185676">
<time>2020-09-27T13:56:29Z</time>
</trkpt>
<trkpt lat="45.994875" lon="11.185685">
<time>2020-09-27T13:56:30Z</time>
</trkpt>
<trkpt lat="45.994863" lon="11.185696">
<time>2020-09-27T13:56:31Z</time>
</trkpt>
<trkpt lat="45.994855" lon="11.185708">
<time>2020-09-27T13:56:32Z</time>
</trkpt>
<trkpt lat="45.994841" lon="11.185725">
<time>2020-09-27T13:56:33Z</time>
</trkpt>
<trkpt lat="45.994831" lon="11.185743">
<time>2020-09-27T13:56:34Z</time>
</trkpt>
<trkpt lat="45.994826" lon="11.185776">
<time>2020-09-27T13:56:35Z</time>
</trkpt>
<trkpt lat="45.99482" lon="11.185815">
<time>2020-09-27T13:56:36Z</time>
</trkpt>
<trkpt lat="45.994808" lon="11.185848">
<time>2020-09-27T13:56:37Z</time>
</trkpt>
<trkpt lat="45.994796" lon="11.185873">
<time>2020-09-27T13:56:38Z</time>
</trkpt>
<trkpt lat="45.994788" lon="11.185898">
<time>2020-09-27T13:56:39Z</time>
</trkpt>
<trkpt lat="45.994776" lon="11.185923">
<time>2020-09-27T13:56:40Z</time>
</trkpt>
<trkpt lat="45.994763" lon="11.185941">
<time>2020-09-27T13:56:41Z</time>
</trkpt>
<trkpt lat="45.994753" lon="11.18596">
<time>2020-09-27T13:56:42Z</time>
</trkpt>
<trkpt lat="45.99475" lon="11.185968">
<time>2020-09-27T13:56:43Z</time>
</trkpt>
<trkpt lat="45.994746" lon="11.185983">
<time>2020-09-27T13:56:44Z</time>
</trkpt>
<trkpt lat="45.994748" lon="11.185991">
<time>2020-09-27T13:56:45Z</time>
</trkpt>
<trkpt lat="45.994745" lon="11.186003">
<time>2020-09-27T13:56:46Z</time>
</trkpt>
<trkpt lat="45.994738" lon="11.186013">
<time>2020-09-27T13:56:47Z</time>
</trkpt>
<trkpt lat="45.994723" lon="11.186026">
<time>2020-09-27T13:56:48Z</time>
</trkpt>
<trkpt lat="45.994711" lon="11.186035">
<time>2020-09-27T13:56:49Z</time>
</trkpt>
<trkpt lat="45.994695" lon="11.186046">
<time>2020-09-27T13:56:50Z</time>
</trkpt>
<trkpt lat="45.99468" lon="11.186051">
<time>2020-09-27T13:56:51Z</time>
</trkpt>
<trkpt lat="45.994663" lon="11.18606">
<time>2020-09-27T13:56:52Z</time>
</trkpt>
<trkpt lat="45.99464" lon="11.186063">
<time>2020-09-27T13:56:53Z</time>
</trkpt>
<trkpt lat="45.994618" lon="11.186063">
<time>2020-09-27T13:56:54Z</time>
</trkpt>
<trkpt lat="45.994596" lon="11.186065">
<time>2020-09-27T13:56:55Z</time>
</trkpt>
<trkpt lat="45.994576" lon="11.186073">
<time>2020-09-27T13:56:56Z</time>
</trkpt>
<trkpt lat="45.99455" lon="11.186091">
<time>2020-09-27T13:56:57Z</time>
</trkpt>
<trkpt lat="45.99452" lon="11.186113">
<time>2020-09-27T13:56:58Z</time>
</trkpt>
<trkpt lat="45.994486" lon="11.186143">
<time>2020-09-27T13:56:59Z</time>
</trkpt>
<trkpt lat="45.994456" lon="11.18618">
<time>2020-09-27T13:57:00Z</time>
</trkpt>
<trkpt lat="45.994436" lon="11.186218">
<time>2020-09-27T13:57:01Z</time>
</trkpt>
<trkpt lat="45.994411" lon="11.186253">
<time>2020-09-27T13:57:02Z</time>
</trkpt>
<trkpt lat="45.994393" lon="11.186275">
<time>2020-09-27T13:57:03Z</time>
</trkpt>
<trkpt lat="45.994376" lon="11.186293">
<time>2020-09-27T13:57:04Z</time>
</trkpt>
<trkpt lat="45.994365" lon="11.186313">
<time>2020-09-27T13:57:05Z</time>
</trkpt>
<trkpt lat="45.994351" lon="11.186333">
<time>2020-09-27T13:57:06Z</time>
</trkpt>
<trkpt lat="45.994348" lon="11.186355">
<time>2020-09-27T13:57:07Z</time>
</trkpt>
<trkpt lat="45.99434" lon="11.186375">
<time>2020-09-27T13:57:08Z</time>
</trkpt>
<trkpt lat="45.994336" lon="11.186401">
<time>2020-09-27T13:57:09Z</time>
</trkpt>
<trkpt lat="45.994338" lon="11.18641">
<time>2020-09-27T13:57:10Z</time>
</trkpt>
<trkpt lat="45.994326" lon="11.186435">
<time>2020-09-27T13:57:11Z</time>
</trkpt>
<trkpt lat="45.994311" lon="11.186446">
<time>2020-09-27T13:57:12Z</time>
</trkpt>
<trkpt lat="45.994295" lon="11.18646">
<time>2020-09-27T13:57:13Z</time>
</trkpt>
<trkpt lat="45.994281" lon="11.186475">
<time>2020-09-27T13:57:14Z</time>
</trkpt>
<trkpt lat="45.99427" lon="11.186483">
<time>2020-09-27T13:57:15Z</time>
</trkpt>
<trkpt lat="45.99426" lon="11.186491">
<time>2020-09-27T13:57:16Z</time>
</trkpt>
<trkpt lat="45.994253" lon="11.1865">
<time>2020-09-27T13:57:17Z</time>
</trkpt>
<trkpt lat="45.994246" lon="11.18651">
<time>2020-09-27T13:57:18Z</time>
</trkpt>
<trkpt lat="45.994235" lon="11.18652">
<time>2020-09-27T13:57:19Z</time>
</trkpt>
<trkpt lat="45.994228" lon="11.186526">
<time>2020-09-27T13:57:20Z</time>
</trkpt>
<trkpt lat="45.994221" lon="11.186526">
<time>2020-09-27T13:57:21Z</time>
</trkpt>
<trkpt lat="45.994215" lon="11.186538">
<time>2020-09-27T13:57:22Z</time>
</trkpt>
<trkpt lat="45.994211" lon="11.186548">
<time>2020-09-27T13:57:23Z</time>
</trkpt>
<trkpt lat="45.994206" lon="11.186553">
<time>2020-09-27T13:57:24Z</time>
</trkpt>
<trkpt lat="45.994198" lon="11.186573">
<time>2020-09-27T13:57:25Z</time>
</trkpt>
<trkpt lat="45.99419" lon="11.18659">
<time>2020-09-27T13:57:26Z</time>
</trkpt>
<trkpt lat="45.994186" lon="11.186605">
<time>2020-09-27T13:57:27Z</time>
</trkpt>
<trkpt lat="45.99419" lon="11.18661">
<time>2020-09-27T13:57:28Z</time>
</trkpt>
<trkpt lat="45.994195" lon="11.186616">
<time>2020-09-27T13:57:29Z</time>
</trkpt>
<trkpt lat="45.994206" lon="11.186618">
<time>2020-09-27T13:57:30Z</time>
</trkpt>
<trkpt lat="45.994221" lon="11.18662">
<time>2020-09-27T13:57:31Z</time>
</trkpt>
<trkpt lat="45.994221" lon="11.186621">
<time>2020-09-27T13:57:32Z</time>
</trkpt>
<trkpt lat="45.994213" lon="11.186635">
<time>2020-09-27T13:57:33Z</time>
</trkpt>
<trkpt lat="45.994203" lon="11.186646">
<time>2020-09-27T13:57:34Z</time>
</trkpt>
<trkpt lat="45.99419" lon="11.186658">
<time>2020-09-27T13:57:35Z</time>
</trkpt>
<trkpt lat="45.994176" lon="11.186663">
<time>2020-09-27T13:57:36Z</time>
</trkpt>
<trkpt lat="45.994166" lon="11.186661">
<time>2020-09-27T13:57:37Z</time>
</trkpt>
<trkpt lat="45.994158" lon="11.186663">
<time>2020-09-27T13:57:38Z</time>
</trkpt>
<trkpt lat="45.994153" lon="11.186666">
<time>2020-09-27T13:57:39Z</time>
</trkpt>
<trkpt lat="45.99415" lon="11.186673">
<time>2020-09-27T13:57:40Z</time>
</trkpt>
<trkpt lat="45.994151" lon="11.186681">
<time>2020-09-27T13:57:41Z</time>
</trkpt>
<trkpt lat="45.994153" lon="11.186693">
<time>2020-09-27T13:57:42Z</time>
</trkpt>
<trkpt lat="45.994153" lon="11.186703">
<time>2020-09-27T13:57:43Z</time>
</trkpt>
<trkpt lat="45.994148" lon="11.186715">
<time>2020-09-27T13:57:44Z</time>
</trkpt>
<trkpt lat="45.994141" lon="11.186725">
<time>2020-09-27T13:57:45Z</time>
</trkpt>
<trkpt lat="45.994138" lon="11.186736">
<time>2020-09-27T13:57:46Z</time>
</trkpt>
<trkpt lat="45.994135" lon="11.186748">
<time>2020-09-27T13:57:47Z</time>
</trkpt>
<trkpt lat="45.99413" lon="11.186756">
<time>2020-09-27T13:57:48Z</time>
</trkpt>
<trkpt lat="45.994123" lon="11.186766">
<time>2020-09-27T13:57:49Z</time>
</trkpt>
<trkpt lat="45.994118" lon="11.186775">
<time>2020-09-27T13:57:50Z</time>
</trkpt>
<trkpt lat="45.994116" lon="11.18678">
<time>2020-09-27T13:57:51Z</time>
</trkpt>
<trkpt lat="45.994115" lon="11.186783">
<time>2020-09-27T13:57:52Z</time>
</trkpt>
<trkpt lat="45.994116" lon="11.186786">
<time>2020-09-27T13:57:53Z</time>
</trkpt>
<trkpt lat="45.994118" lon="11.186795">
<time>2020-09-27T13:57:54Z</time>
</trkpt>
<trkpt lat="45.994121" lon="11.186803">
<time>2020-09-27T13:57:55Z</time>
</trkpt>
<trkpt lat="45.994123" lon="11.186813">
<time>2020-09-27T13:57:56Z</time>
</trkpt>
<trkpt lat="45.994126" lon="11.186823">
<time>2020-09-27T13:57:57Z</time>
</trkpt>
<trkpt lat="45.994128" lon="11.186833">
<time>2020-09-27T13:57:58Z</time>
</trkpt>
<trkpt lat="45.994126" lon="11.186841">
<time>2020-09-27T13:57:59Z</time>
</trkpt>
<trkpt lat="45.994128" lon="11.18685">
<time>2020-09-27T13:58:00Z</time>
</trkpt>
<trkpt lat="45.99413" lon="11.186855">
<time>2020-09-27T13:58:01Z</time>
</trkpt>
<trkpt lat="45.994128" lon="11.186858">
<time>2020-09-27T13:58:02Z</time>
</trkpt>
<trkpt lat="45.994123" lon="11.186866">
<time>2020-09-27T13:58:03Z</time>
</trkpt>
<trkpt lat="45.994125" lon="11.186875">
<time>2020-09-27T13:58:04Z</time>
</trkpt>
<trkpt lat="45.994123" lon="11.186885">
<time>2020-09-27T13:58:05Z</time>
</trkpt>
<trkpt lat="45.994118" lon="11.18689">
<time>2020-09-27T13:58:06Z</time>
</trkpt>
<trkpt lat="45.994118" lon="11.18689">
<time>2020-09-27T13:58:07Z</time>
</trkpt>
<trkpt lat="45.994115" lon="11.186903">
<time>2020-09-27T13:58:08Z</time>
</trkpt>
<trkpt lat="45.994111" lon="11.186931">
<time>2020-09-27T13:58:09Z</time>
</trkpt>
<trkpt lat="45.994115" lon="11.186945">
<time>2020-09-27T13:58:10Z</time>
</trkpt>
<trkpt lat="45.994118" lon="11.186958">
<time>2020-09-27T13:58:11Z</time>
</trkpt>
<trkpt lat="45.994123" lon="11.186968">
<time>2020-09-27T13:58:12Z</time>
</trkpt>
<trkpt lat="45.994118" lon="11.186981">
<time>2020-09-27T13:58:13Z</time>
</trkpt>
<trkpt lat="45.994108" lon="11.186996">
<time>2020-09-27T13:58:14Z</time>
</trkpt>
<trkpt lat="45.994105" lon="11.187013">
<time>2020-09-27T13:58:15Z</time>
</trkpt>
<trkpt lat="45.994098" lon="11.187025">
<time>2020-09-27T13:58:16Z</time>
</trkpt>
<trkpt lat="45.994101" lon="11.18704">
<time>2020-09-27T13:58:17Z</time>
</trkpt>
<trkpt lat="45.994108" lon="11.187055">
<time>2020-09-27T13:58:18Z</time>
</trkpt>
<trkpt lat="45.994108" lon="11.187068">
<time>2020-09-27T13:58:19Z</time>
</trkpt>
<trkpt lat="45.994103" lon="11.187083">
<time>2020-09-27T13:58:20Z</time>
</trkpt>
<trkpt lat="45.994096" lon="11.187106">
<time>2020-09-27T13:58:21Z</time>
</trkpt>
<trkpt lat="45.994103" lon="11.187118">
<time>2020-09-27T13:58:22Z</time>
</trkpt>
<trkpt lat="45.994108" lon="11.187125">
<time>2020-09-27T13:58:23Z</time>
</trkpt>
<trkpt lat="45.994111" lon="11.187136">
<time>2020-09-27T13:58:24Z</time>
</trkpt>
<trkpt lat="45.994113" lon="11.187145">
<time>2020-09-27T13:58:25Z</time>
</trkpt>
<trkpt lat="45.994115" lon="11.187153">
<time>2020-09-27T13:58:26Z</time>
</trkpt>
<trkpt lat="45.994116" lon="11.187156">
<time>2020-09-27T13:58:27Z</time>
</trkpt>
<trkpt lat="45.994115" lon="11.187161">
<time>2020-09-27T13:58:28Z</time>
</trkpt>
<trkpt lat="45.994111" lon="11.187165">
<time>2020-09-27T13:58:29Z</time>
</trkpt>
<trkpt lat="45.994103" lon="11.18717">
<time>2020-09-27T13:58:30Z</time>
</trkpt>
<trkpt lat="45.994095" lon="11.187175">
<time>2020-09-27T13:58:31Z</time>
</trkpt>
<trkpt lat="45.994088" lon="11.18718">
<time>2020-09-27T13:58:32Z</time>
</trkpt>
<trkpt lat="45.99408" lon="11.187181">
<time>2020-09-27T13:58:33Z</time>
</trkpt>
<trkpt lat="45.994071" lon="11.187183">
<time>2020-09-27T13:58:34Z</time>
</trkpt>
<trkpt lat="45.994066" lon="11.187188">
<time>2020-09-27T13:58:35Z</time>
</trkpt>
<trkpt lat="45.994063" lon="11.1872">
<time>2020-09-27T13:58:36Z</time>
</trkpt>
<trkpt lat="45.994063" lon="11.187211">
<time>2020-09-27T13:58:37Z</time>
</trkpt>
<trkpt lat="45.99406" lon="11.187228">
<time>2020-09-27T13:58:38Z</time>
</trkpt>
<trkpt lat="45.994051" lon="11.187241">
<time>2020-09-27T13:58:39Z</time>
</trkpt>
<trkpt lat="45.994045" lon="11.187255">
<time>2020-09-27T13:58:40Z</time>
</trkpt>
<trkpt lat="45.99403" lon="11.187265">
<time>2020-09-27T13:58:41Z</time>
</trkpt>
<trkpt lat="45.994013" lon="11.187275">
<time>2020-09-27T13:58:42Z</time>
</trkpt>
<trkpt lat="45.994" lon="11.187281">
<time>2020-09-27T13:58:43Z</time>
</trkpt>
<trkpt lat="45.993996" lon="11.187286">
<time>2020-09-27T13:58:44Z</time>
</trkpt>
<trkpt lat="45.993995" lon="11.187293">
<time>2020-09-27T13:58:45Z</time>
</trkpt>
<trkpt lat="45.99399" lon="11.1873">
<time>2020-09-27T13:58:46Z</time>
</trkpt>
<trkpt lat="45.993993" lon="11.187306">
<time>2020-09-27T13:58:47Z</time>
</trkpt>
<trkpt lat="45.993996" lon="11.187313">
<time>2020-09-27T13:58:48Z</time>
</trkpt>
<trkpt lat="45.993993" lon="11.187321">
<time>2020-09-27T13:58:49Z</time>
</trkpt>
<trkpt lat="45.993988" lon="11.187331">
<time>2020-09-27T13:58:50Z</time>
</trkpt>
<trkpt lat="45.993986" lon="11.18734">
<time>2020-09-27T13:58:51Z</time>
</trkpt>
<trkpt lat="45.993988" lon="11.187348">
<time>2020-09-27T13:58:52Z</time>
</trkpt>
<trkpt lat="45.993986" lon="11.187355">
<time>2020-09-27T13:58:53Z</time>
</trkpt>
<trkpt lat="45.99399" lon="11.18736">
<time>2020-09-27T13:58:54Z</time>
</trkpt>
<trkpt lat="45.993996" lon="11.187365">
<time>2020-09-27T13:58:55Z</time>
</trkpt>
<trkpt lat="45.994003" lon="11.187371">
<time>2020-09-27T13:58:56Z</time>
</trkpt>
<trkpt lat="45.994003" lon="11.187381">
<time>2020-09-27T13:58:57Z</time>
</trkpt>
<trkpt lat="45.994008" lon="11.187393">
<time>2020-09-27T13:58:58Z</time>
</trkpt>
<trkpt lat="45.99401" lon="11.187401">
<time>2020-09-27T13:58:59Z</time>
</trkpt>
<trkpt lat="45.994016" lon="11.187406">
<time>2020-09-27T13:59:00Z</time>
</trkpt>
<trkpt lat="45.994023" lon="11.18741">
<time>2020-09-27T13:59:01Z</time>
</trkpt>
<trkpt lat="45.994031" lon="11.187415">
<time>2020-09-27T13:59:02Z</time>
</trkpt>
<trkpt lat="45.994041" lon="11.18742">
<time>2020-09-27T13:59:03Z</time>
</trkpt>
<trkpt lat="45.994051" lon="11.18742">
<time>2020-09-27T13:59:04Z</time>
</trkpt>
<trkpt lat="45.994056" lon="11.187418">
<time>2020-09-27T13:59:05Z</time>
</trkpt>
<trkpt lat="45.994065" lon="11.187415">
<time>2020-09-27T13:59:06Z</time>
</trkpt>
<trkpt lat="45.994078" lon="11.187411">
<time>2020-09-27T13:59:07Z</time>
</trkpt>
<trkpt lat="45.994093" lon="11.187406">
<time>2020-09-27T13:59:08Z</time>
</trkpt>
<trkpt lat="45.994111" lon="11.187405">
<time>2020-09-27T13:59:09Z</time>
</trkpt>
<trkpt lat="45.994123" lon="11.187405">
<time>2020-09-27T13:59:10Z</time>
</trkpt>
<trkpt lat="45.994135" lon="11.187411">
<time>2020-09-27T13:59:11Z</time>
</trkpt>
<trkpt lat="45.99415" lon="11.187416">
<time>2020-09-27T13:59:12Z</time>
</trkpt>
<trkpt lat="45.994166" lon="11.187421">
<time>2020-09-27T13:59:13Z</time>
</trkpt>
<trkpt lat="45.994178" lon="11.187435">
<time>2020-09-27T13:59:14Z</time>
</trkpt>
<trkpt lat="45.994193" lon="11.187453">
<time>2020-09-27T13:59:15Z</time>
</trkpt>
<trkpt lat="45.994208" lon="11.187473">
<time>2020-09-27T13:59:16Z</time>
</trkpt>
<trkpt lat="45.99422" lon="11.187501">
<time>2020-09-27T13:59:17Z</time>
</trkpt>
<trkpt lat="45.994226" lon="11.187531">
<time>2020-09-27T13:59:18Z</time>
</trkpt>
<trkpt lat="45.994236" lon="11.18757">
<time>2020-09-27T13:59:19Z</time>
</trkpt>
<trkpt lat="45.994245" lon="11.187606">
<time>2020-09-27T13:59:20Z</time>
</trkpt>
<trkpt lat="45.994253" lon="11.187641">
<time>2020-09-27T13:59:21Z</time>
</trkpt>
<trkpt lat="45.994253" lon="11.187675">
<time>2020-09-27T13:59:22Z</time>
</trkpt>
<trkpt lat="45.994255" lon="11.187705">
<time>2020-09-27T13:59:23Z</time>
</trkpt>
<trkpt lat="45.994261" lon="11.187736">
<time>2020-09-27T13:59:24Z</time>
</trkpt>
<trkpt lat="45.994271" lon="11.187766">
<time>2020-09-27T13:59:25Z</time>
</trkpt>
<trkpt lat="45.994285" lon="11.187798">
<time>2020-09-27T13:59:26Z</time>
</trkpt>
<trkpt lat="45.994291" lon="11.187836">
<time>2020-09-27T13:59:27Z</time>
</trkpt>
<trkpt lat="45.994296" lon="11.187866">
<time>2020-09-27T13:59:28Z</time>
</trkpt>
<trkpt lat="45.994305" lon="11.187908">
<time>2020-09-27T13:59:29Z</time>
</trkpt>
<trkpt lat="45.994315" lon="11.187958">
<time>2020-09-27T13:59:30Z</time>
</trkpt>
<trkpt lat="45.994321" lon="11.188">
<time>2020-09-27T13:59:31Z</time>
</trkpt>
<trkpt lat="45.994331" lon="11.188051">
<time>2020-09-27T13:59:32Z</time>
</trkpt>
<trkpt lat="45.994343" lon="11.188103">
<time>2020-09-27T13:59:33Z</time>
</trkpt>
<trkpt lat="45.994358" lon="11.188155">
<time>2020-09-27T13:59:34Z</time>
</trkpt>
<trkpt lat="45.994363" lon="11.188193">
<time>2020-09-27T13:59:35Z</time>
</trkpt>
<trkpt lat="45.994373" lon="11.18823">
<time>2020-09-27T13:59:36Z</time>
</trkpt>
<trkpt lat="45.994381" lon="11.188265">
<time>2020-09-27T13:59:37Z</time>
</trkpt>
<trkpt lat="45.994388" lon="11.188303">
<time>2020-09-27T13:59:38Z</time>
</trkpt>
<trkpt lat="45.994405" lon="11.188356">
<time>2020-09-27T13:59:39Z</time>
</trkpt>
<trkpt lat="45.994416" lon="11.188401">
<time>2020-09-27T13:59:40Z</time>
</trkpt>
<trkpt lat="45.994423" lon="11.188445">
<time>2020-09-27T13:59:41Z</time>
</trkpt>
<trkpt lat="45.994431" lon="11.188488">
<time>2020-09-27T13:59:42Z</time>
</trkpt>
<trkpt lat="45.99444" lon="11.188535">
<time>2020-09-27T13:59:43Z</time>
</trkpt>
<trkpt lat="45.994445" lon="11.188576">
<time>2020-09-27T13:59:44Z</time>
</trkpt>
<trkpt lat="45.99445" lon="11.18862">
<time>2020-09-27T13:59:45Z</time>
</trkpt>
<trkpt lat="45.994453" lon="11.188661">
<time>2020-09-27T13:59:46Z</time>
</trkpt>
<trkpt lat="45.994455" lon="11.1887">
<time>2020-09-27T13:59:47Z</time>
</trkpt>
<trkpt lat="45.994461" lon="11.188736">
<time>2020-09-27T13:59:48Z</time>
</trkpt>
<trkpt lat="45.994468" lon="11.188768">
<time>2020-09-27T13:59:49Z</time>
</trkpt>
<trkpt lat="45.99448" lon="11.188803">
<time>2020-09-27T13:59:50Z</time>
</trkpt>
<trkpt lat="45.994488" lon="11.18884">
<time>2020-09-27T13:59:51Z</time>
</trkpt>
<trkpt lat="45.994498" lon="11.188883">
<time>2020-09-27T13:59:52Z</time>
</trkpt>
<trkpt lat="45.9945" lon="11.188926">
<time>2020-09-27T13:59:53Z</time>
</trkpt>
<trkpt lat="45.994506" lon="11.18897">
<time>2020-09-27T13:59:54Z</time>
</trkpt>
<trkpt lat="45.994508" lon="11.189003">
<time>2020-09-27T13:59:55Z</time>
</trkpt>
<trkpt lat="45.994511" lon="11.189036">
<time>2020-09-27T13:59:56Z</time>
</trkpt>
<trkpt lat="45.994518" lon="11.189075">
<time>2020-09-27T13:59:57Z</time>
</trkpt>
<trkpt lat="45.994536" lon="11.18914">
<time>2020-09-27T13:59:58Z</time>
</trkpt>
<trkpt lat="45.994548" lon="11.189198">
<time>2020-09-27T13:59:59Z</time>
</trkpt>
<trkpt lat="45.994556" lon="11.189248">
<time>2020-09-27T14:00:00Z</time>
</trkpt>
<trkpt lat="45.994558" lon="11.189283">
<time>2020-09-27T14:00:01Z</time>
</trkpt>
<trkpt lat="45.994568" lon="11.189318">
<time>2020-09-27T14:00:02Z</time>
</trkpt>
<trkpt lat="45.994581" lon="11.189361">
<time>2020-09-27T14:00:03Z</time>
</trkpt>
<trkpt lat="45.994585" lon="11.189396">
<time>2020-09-27T14:00:04Z</time>
</trkpt>
<trkpt lat="45.994573" lon="11.189428">
<time>2020-09-27T14:00:05Z</time>
</trkpt>
<trkpt lat="45.994565" lon="11.18946">
<time>2020-09-27T14:00:06Z</time>
</trkpt>
<trkpt lat="45.994558" lon="11.189491">
<time>2020-09-27T14:00:07Z</time>
</trkpt>
<trkpt lat="45.994551" lon="11.189516">
<time>2020-09-27T14:00:08Z</time>
</trkpt>
<trkpt lat="45.99454" lon="11.189538">
<time>2020-09-27T14:00:09Z</time>
</trkpt>
<trkpt lat="45.994528" lon="11.189555">
<time>2020-09-27T14:00:10Z</time>
</trkpt>
<trkpt lat="45.994516" lon="11.189575">
<time>2020-09-27T14:00:11Z</time>
</trkpt>
<trkpt lat="45.99451" lon="11.189598">
<time>2020-09-27T14:00:12Z</time>
</trkpt>
<trkpt lat="45.994503" lon="11.189616">
<time>2020-09-27T14:00:13Z</time>
</trkpt>
<trkpt lat="45.9945" lon="11.189635">
<time>2020-09-27T14:00:14Z</time>
</trkpt>
<trkpt lat="45.994498" lon="11.189655">
<time>2020-09-27T14:00:15Z</time>
</trkpt>
<trkpt lat="45.994498" lon="11.189671">
<time>2020-09-27T14:00:16Z</time>
</trkpt>
<trkpt lat="45.994495" lon="11.189695">
<time>2020-09-27T14:00:17Z</time>
</trkpt>
<trkpt lat="45.994491" lon="11.189726">
<time>2020-09-27T14:00:18Z</time>
</trkpt>
<trkpt lat="45.994486" lon="11.189753">
<time>2020-09-27T14:00:19Z</time>
</trkpt>
<trkpt lat="45.99448" lon="11.18978">
<time>2020-09-27T14:00:20Z</time>
</trkpt>
<trkpt lat="45.994476" lon="11.189803">
<time>2020-09-27T14:00:21Z</time>
</trkpt>
<trkpt lat="45.994476" lon="11.189825">
<time>2020-09-27T14:00:22Z</time>
</trkpt>
<trkpt lat="45.994481" lon="11.18984">
<time>2020-09-27T14:00:23Z</time>
</trkpt>
<trkpt lat="45.994488" lon="11.189846">
<time>2020-09-27T14:00:24Z</time>
</trkpt>
<trkpt lat="45.994495" lon="11.189855">
<time>2020-09-27T14:00:25Z</time>
</trkpt>
<trkpt lat="45.994501" lon="11.189858">
<time>2020-09-27T14:00:26Z</time>
</trkpt>
<trkpt lat="45.994498" lon="11.189861">
<time>2020-09-27T14:00:27Z</time>
</trkpt>
<trkpt lat="45.994493" lon="11.189871">
<time>2020-09-27T14:00:28Z</time>
</trkpt>
<trkpt lat="45.994473" lon="11.189885">
<time>2020-09-27T14:00:29Z</time>
</trkpt>
<trkpt lat="45.994453" lon="11.1899">
<time>2020-09-27T14:00:30Z</time>
</trkpt>
<trkpt lat="45.994436" lon="11.18992">
<time>2020-09-27T14:00:31Z</time>
</trkpt>
<trkpt lat="45.994423" lon="11.189935">
<time>2020-09-27T14:00:32Z</time>
</trkpt>
<trkpt lat="45.994408" lon="11.189946">
<time>2020-09-27T14:00:33Z</time>
</trkpt>
<trkpt lat="45.994398" lon="11.18996">
<time>2020-09-27T14:00:34Z</time>
</trkpt>
<trkpt lat="45.994388" lon="11.189976">
<time>2020-09-27T14:00:35Z</time>
</trkpt>
<trkpt lat="45.994383" lon="11.18999">
<time>2020-09-27T14:00:36Z</time>
</trkpt>
<trkpt lat="45.994378" lon="11.19001">
<time>2020-09-27T14:00:37Z</time>
</trkpt>
<trkpt lat="45.994371" lon="11.190038">
<time>2020-09-27T14:00:38Z</time>
</trkpt>
<trkpt lat="45.994368" lon="11.190066">
<time>2020-09-27T14:00:39Z</time>
</trkpt>
<trkpt lat="45.994368" lon="11.190086">
<time>2020-09-27T14:00:40Z</time>
</trkpt>
<trkpt lat="45.99437" lon="11.190111">
<time>2020-09-27T14:00:41Z</time>
</trkpt>
<trkpt lat="45.994368" lon="11.190136">
<time>2020-09-27T14:00:42Z</time>
</trkpt>
<trkpt lat="45.994368" lon="11.190158">
<time>2020-09-27T14:00:43Z</time>
</trkpt>
<trkpt lat="45.994366" lon="11.190185">
<time>2020-09-27T14:00:44Z</time>
</trkpt>
<trkpt lat="45.994368" lon="11.190211">
<time>2020-09-27T14:00:45Z</time>
</trkpt>
<trkpt lat="45.994368" lon="11.19023">
<time>2020-09-27T14:00:46Z</time>
</trkpt>
<trkpt lat="45.994355" lon="11.190246">
<time>2020-09-27T14:00:47Z</time>
</trkpt>
<trkpt lat="45.994346" lon="11.190266">
<time>2020-09-27T14:00:48Z</time>
</trkpt>
<trkpt lat="45.99433" lon="11.190281">
<time>2020-09-27T14:00:49Z</time>
</trkpt>
<trkpt lat="45.994311" lon="11.190281">
<time>2020-09-27T14:00:50Z</time>
</trkpt>
<trkpt lat="45.994291" lon="11.190285">
<time>2020-09-27T14:00:51Z</time>
</trkpt>
<trkpt lat="45.994271" lon="11.190286">
<time>2020-09-27T14:00:52Z</time>
</trkpt>
<trkpt lat="45.99426" lon="11.190293">
<time>2020-09-27T14:00:53Z</time>
</trkpt>
<trkpt lat="45.994255" lon="11.1903">
<time>2020-09-27T14:00:54Z</time>
</trkpt>
<trkpt lat="45.994253" lon="11.190308">
<time>2020-09-27T14:00:55Z</time>
</trkpt>
<trkpt lat="45.994251" lon="11.190315">
<time>2020-09-27T14:00:56Z</time>
</trkpt>
<trkpt lat="45.994253" lon="11.190323">
<time>2020-09-27T14:00:57Z</time>
</trkpt>
<trkpt lat="45.994251" lon="11.190336">
<time>2020-09-27T14:00:58Z</time>
</trkpt>
<trkpt lat="45.99425" lon="11.190346">
<time>2020-09-27T14:00:59Z</time>
</trkpt>
<trkpt lat="45.994251" lon="11.190353">
<time>2020-09-27T14:01:00Z</time>
</trkpt>
<trkpt lat="45.994253" lon="11.19036">
<time>2020-09-27T14:01:01Z</time>
</trkpt>
<trkpt lat="45.994255" lon="11.190368">
<time>2020-09-27T14:01:02Z</time>
</trkpt>
<trkpt lat="45.994258" lon="11.190375">
<time>2020-09-27T14:01:03Z</time>
</trkpt>
<trkpt lat="45.994261" lon="11.190378">
<time>2020-09-27T14:01:04Z</time>
</trkpt>
<trkpt lat="45.994265" lon="11.190385">
<time>2020-09-27T14:01:05Z</time>
</trkpt>
<trkpt lat="45.994263" lon="11.190391">
<time>2020-09-27T14:01:06Z</time>
</trkpt>
<trkpt lat="45.994256" lon="11.190398">
<time>2020-09-27T14:01:07Z</time>
</trkpt>
<trkpt lat="45.994253" lon="11.19041">
<time>2020-09-27T14:01:08Z</time>
</trkpt>
<trkpt lat="45.994248" lon="11.190423">
<time>2020-09-27T14:01:09Z</time>
</trkpt>
<trkpt lat="45.994245" lon="11.190433">
<time>2020-09-27T14:01:10Z</time>
</trkpt>
<trkpt lat="45.99424" lon="11.190443">
<time>2020-09-27T14:01:11Z</time>
</trkpt>
<trkpt lat="45.994228" lon="11.190456">
<time>2020-09-27T14:01:12Z</time>
</trkpt>
<trkpt lat="45.99421" lon="11.190475">
<time>2020-09-27T14:01:13Z</time>
</trkpt>
<trkpt lat="45.994193" lon="11.190498">
<time>2020-09-27T14:01:14Z</time>
</trkpt>
<trkpt lat="45.994176" lon="11.190516">
<time>2020-09-27T14:01:15Z</time>
</trkpt>
<trkpt lat="45.99416" lon="11.19053">
<time>2020-09-27T14:01:16Z</time>
</trkpt>
<trkpt lat="45.994141" lon="11.190541">
<time>2020-09-27T14:01:17Z</time>
</trkpt>
<trkpt lat="45.994125" lon="11.19055">
<time>2020-09-27T14:01:18Z</time>
</trkpt>
<trkpt lat="45.994118" lon="11.190558">
<time>2020-09-27T14:01:19Z</time>
</trkpt>
<trkpt lat="45.994115" lon="11.190563">
<time>2020-09-27T14:01:20Z</time>
</trkpt>
<trkpt lat="45.994113" lon="11.190575">
<time>2020-09-27T14:01:21Z</time>
</trkpt>
<trkpt lat="45.99411" lon="11.190586">
<time>2020-09-27T14:01:22Z</time>
</trkpt>
<trkpt lat="45.994108" lon="11.190596">
<time>2020-09-27T14:01:23Z</time>
</trkpt>
<trkpt lat="45.994103" lon="11.190606">
<time>2020-09-27T14:01:24Z</time>
</trkpt>
<trkpt lat="45.994096" lon="11.190621">
<time>2020-09-27T14:01:25Z</time>
</trkpt>
<trkpt lat="45.994091" lon="11.190636">
<time>2020-09-27T14:01:26Z</time>
</trkpt>
<trkpt lat="45.994085" lon="11.190648">
<time>2020-09-27T14:01:27Z</time>
</trkpt>
<trkpt lat="45.994076" lon="11.19065">
<time>2020-09-27T14:01:28Z</time>
</trkpt>
<trkpt lat="45.994068" lon="11.190645">
<time>2020-09-27T14:01:29Z</time>
</trkpt>
<trkpt lat="45.994056" lon="11.190643">
<time>2020-09-27T14:01:30Z</time>
</trkpt>
<trkpt lat="45.994045" lon="11.190643">
<time>2020-09-27T14:01:31Z</time>
</trkpt>
<trkpt lat="45.994033" lon="11.190643">
<time>2020-09-27T14:01:32Z</time>
</trkpt>
<trkpt lat="45.994023" lon="11.190643">
<time>2020-09-27T14:01:33Z</time>
</trkpt>
<trkpt lat="45.994011" lon="11.190641">
<time>2020-09-27T14:01:34Z</time>
</trkpt>
<trkpt lat="45.993996" lon="11.190643">
<time>2020-09-27T14:01:35Z</time>
</trkpt>
<trkpt lat="45.993981" lon="11.190645">
<time>2020-09-27T14:01:36Z</time>
</trkpt>
<trkpt lat="45.993971" lon="11.190646">
<time>2020-09-27T14:01:37Z</time>
</trkpt>
<trkpt lat="45.993966" lon="11.190653">
<time>2020-09-27T14:01:38Z</time>
</trkpt>
<trkpt lat="45.993961" lon="11.190666">
<time>2020-09-27T14:01:39Z</time>
</trkpt>
<trkpt lat="45.993963" lon="11.19068">
<time>2020-09-27T14:01:40Z</time>
</trkpt>
<trkpt lat="45.993961" lon="11.190696">
<time>2020-09-27T14:01:41Z</time>
</trkpt>
<trkpt lat="45.993955" lon="11.190713">
<time>2020-09-27T14:01:42Z</time>
</trkpt>
<trkpt lat="45.99395" lon="11.190725">
<time>2020-09-27T14:01:43Z</time>
</trkpt>
<trkpt lat="45.993953" lon="11.190736">
<time>2020-09-27T14:01:44Z</time>
</trkpt>
<trkpt lat="45.993956" lon="11.190748">
<time>2020-09-27T14:01:45Z</time>
</trkpt>
<trkpt lat="45.993958" lon="11.190755">
<time>2020-09-27T14:01:46Z</time>
</trkpt>
<trkpt lat="45.993955" lon="11.190765">
<time>2020-09-27T14:01:47Z</time>
</trkpt>
<trkpt lat="45.993955" lon="11.190775">
<time>2020-09-27T14:01:48Z</time>
</trkpt>
<trkpt lat="45.993953" lon="11.190786">
<time>2020-09-27T14:01:49Z</time>
</trkpt>
<trkpt lat="45.993948" lon="11.190798">
<time>2020-09-27T14:01:50Z</time>
</trkpt>
<trkpt lat="45.993941" lon="11.190806">
<time>2020-09-27T14:01:51Z</time>
</trkpt>
<trkpt lat="45.99393" lon="11.190811">
<time>2020-09-27T14:01:52Z</time>
</trkpt>
<trkpt lat="45.993918" lon="11.190813">
<time>2020-09-27T14:01:53Z</time>
</trkpt>
<trkpt lat="45.99391" lon="11.19081">
<time>2020-09-27T14:01:54Z</time>
</trkpt>
<trkpt lat="45.993903" lon="11.19081">
<time>2020-09-27T14:01:55Z</time>
</trkpt>
<trkpt lat="45.993895" lon="11.190806">
<time>2020-09-27T14:01:56Z</time>
</trkpt>
<trkpt lat="45.993885" lon="11.190813">
<time>2020-09-27T14:01:57Z</time>
</trkpt>
<trkpt lat="45.99388" lon="11.190825">
<time>2020-09-27T14:01:58Z</time>
</trkpt>
<trkpt lat="45.993871" lon="11.190833">
<time>2020-09-27T14:01:59Z</time>
</trkpt>
<trkpt lat="45.99386" lon="11.19084">
<time>2020-09-27T14:02:00Z</time>
</trkpt>
<trkpt lat="45.99385" lon="11.19084">
<time>2020-09-27T14:02:01Z</time>
</trkpt>
<trkpt lat="45.993841" lon="11.190836">
<time>2020-09-27T14:02:02Z</time>
</trkpt>
<trkpt lat="45.993836" lon="11.19084">
<time>2020-09-27T14:02:03Z</time>
</trkpt>
<trkpt lat="45.993836" lon="11.190846">
<time>2020-09-27T14:02:04Z</time>
</trkpt>
<trkpt lat="45.993836" lon="11.190855">
<time>2020-09-27T14:02:05Z</time>
</trkpt>
<trkpt lat="45.993838" lon="11.190861">
<time>2020-09-27T14:02:06Z</time>
</trkpt>
<trkpt lat="45.993838" lon="11.19087">
<time>2020-09-27T14:02:07Z</time>
</trkpt>
<trkpt lat="45.993835" lon="11.190876">
<time>2020-09-27T14:02:08Z</time>
</trkpt>
<trkpt lat="45.993833" lon="11.190881">
<time>2020-09-27T14:02:09Z</time>
</trkpt>
<trkpt lat="45.993835" lon="11.190883">
<time>2020-09-27T14:02:10Z</time>
</trkpt>
<trkpt lat="45.993838" lon="11.190885">
<time>2020-09-27T14:02:11Z</time>
</trkpt>
<trkpt lat="45.993843" lon="11.190891">
<time>2020-09-27T14:02:12Z</time>
</trkpt>
<trkpt lat="45.993848" lon="11.190903">
<time>2020-09-27T14:02:13Z</time>
</trkpt>
<trkpt lat="45.993855" lon="11.190915">
<time>2020-09-27T14:02:14Z</time>
</trkpt>
<trkpt lat="45.993861" lon="11.190926">
<time>2020-09-27T14:02:15Z</time>
</trkpt>
<trkpt lat="45.993868" lon="11.190938">
<time>2020-09-27T14:02:16Z</time>
</trkpt>
<trkpt lat="45.993873" lon="11.190951">
<time>2020-09-27T14:02:17Z</time>
</trkpt>
<trkpt lat="45.993875" lon="11.19096">
<time>2020-09-27T14:02:18Z</time>
</trkpt>
<trkpt lat="45.993873" lon="11.190971">
<time>2020-09-27T14:02:19Z</time>
</trkpt>
<trkpt lat="45.993871" lon="11.190986">
<time>2020-09-27T14:02:20Z</time>
</trkpt>
<trkpt lat="45.993873" lon="11.191">
<time>2020-09-27T14:02:21Z</time>
</trkpt>
<trkpt lat="45.99387" lon="11.191006">
<time>2020-09-27T14:02:22Z</time>
</trkpt>
<trkpt lat="45.993873" lon="11.19102">
<time>2020-09-27T14:02:23Z</time>
</trkpt>
<trkpt lat="45.993871" lon="11.191043">
<time>2020-09-27T14:02:24Z</time>
</trkpt>
<trkpt lat="45.993865" lon="11.191071">
<time>2020-09-27T14:02:25Z</time>
</trkpt>
<trkpt lat="45.993858" lon="11.191103">
<time>2020-09-27T14:02:26Z</time>
</trkpt>
<trkpt lat="45.993851" lon="11.191136">
<time>2020-09-27T14:02:27Z</time>
</trkpt>
<trkpt lat="45.993848" lon="11.191171">
<time>2020-09-27T14:02:28Z</time>
</trkpt>
<trkpt lat="45.993841" lon="11.191203">
<time>2020-09-27T14:02:29Z</time>
</trkpt>
<trkpt lat="45.993836" lon="11.191236">
<time>2020-09-27T14:02:30Z</time>
</trkpt>
<trkpt lat="45.993835" lon="11.191265">
<time>2020-09-27T14:02:31Z</time>
</trkpt>
<trkpt lat="45.993828" lon="11.191293">
<time>2020-09-27T14:02:32Z</time>
</trkpt>
<trkpt lat="45.99382" lon="11.191328">
<time>2020-09-27T14:02:33Z</time>
</trkpt>
<trkpt lat="45.993821" lon="11.191365">
<time>2020-09-27T14:02:34Z</time>
</trkpt>
<trkpt lat="45.993818" lon="11.191393">
<time>2020-09-27T14:02:35Z</time>
</trkpt>
<trkpt lat="45.993826" lon="11.191418">
<time>2020-09-27T14:02:36Z</time>
</trkpt>
<trkpt lat="45.993835" lon="11.191435">
<time>2020-09-27T14:02:37Z</time>
</trkpt>
<trkpt lat="45.993835" lon="11.191448">
<time>2020-09-27T14:02:38Z</time>
</trkpt>
<trkpt lat="45.993846" lon="11.191473">
<time>2020-09-27T14:02:39Z</time>
</trkpt>
<trkpt lat="45.993848" lon="11.1915">
<time>2020-09-27T14:02:40Z</time>
</trkpt>
<trkpt lat="45.993843" lon="11.191528">
<time>2020-09-27T14:02:41Z</time>
</trkpt>
<trkpt lat="45.993838" lon="11.191566">
<time>2020-09-27T14:02:42Z</time>
</trkpt>
<trkpt lat="45.993835" lon="11.191591">
<time>2020-09-27T14:02:43Z</time>
</trkpt>
<trkpt lat="45.993828" lon="11.191613">
<time>2020-09-27T14:02:44Z</time>
</trkpt>
<trkpt lat="45.993825" lon="11.191633">
<time>2020-09-27T14:02:45Z</time>
</trkpt>
<trkpt lat="45.993821" lon="11.191656">
<time>2020-09-27T14:02:46Z</time>
</trkpt>
<trkpt lat="45.993815" lon="11.19167">
<time>2020-09-27T14:02:47Z</time>
</trkpt>
<trkpt lat="45.99381" lon="11.19168">
<time>2020-09-27T14:02:48Z</time>
</trkpt>
<trkpt lat="45.993806" lon="11.19169">
<time>2020-09-27T14:02:49Z</time>
</trkpt>
<trkpt lat="45.993806" lon="11.1917">
<time>2020-09-27T14:02:50Z</time>
</trkpt>
<trkpt lat="45.993808" lon="11.191711">
<time>2020-09-27T14:02:51Z</time>
</trkpt>
<trkpt lat="45.993805" lon="11.191735">
<time>2020-09-27T14:02:52Z</time>
</trkpt>
<trkpt lat="45.993806" lon="11.19176">
<time>2020-09-27T14:02:53Z</time>
</trkpt>
<trkpt lat="45.993806" lon="11.191788">
<time>2020-09-27T14:02:54Z</time>
</trkpt>
<trkpt lat="45.993803" lon="11.191823">
<time>2020-09-27T14:02:55Z</time>
</trkpt>
<trkpt lat="45.993803" lon="11.19185">
<time>2020-09-27T14:02:56Z</time>
</trkpt>
<trkpt lat="45.993803" lon="11.191871">
<time>2020-09-27T14:02:57Z</time>
</trkpt>
<trkpt lat="45.993808" lon="11.19189">
<time>2020-09-27T14:02:58Z</time>
</trkpt>
<trkpt lat="45.993818" lon="11.191915">
<time>2020-09-27T14:02:59Z</time>
</trkpt>
<trkpt lat="45.99383" lon="11.191936">
<time>2020-09-27T14:03:00Z</time>
</trkpt>
<trkpt lat="45.993838" lon="11.191955">
<time>2020-09-27T14:03:01Z</time>
</trkpt>
<trkpt lat="45.993836" lon="11.191963">
<time>2020-09-27T14:03:02Z</time>
</trkpt>
<trkpt lat="45.99383" lon="11.19196">
<time>2020-09-27T14:03:03Z</time>
</trkpt>
<trkpt lat="45.99382" lon="11.191955">
<time>2020-09-27T14:03:04Z</time>
</trkpt>
<trkpt lat="45.993823" lon="11.191965">
<time>2020-09-27T14:03:05Z</time>
</trkpt>
<trkpt lat="45.993831" lon="11.19198">
<time>2020-09-27T14:03:06Z</time>
</trkpt>
<trkpt lat="45.993823" lon="11.192003">
<time>2020-09-27T14:03:07Z</time>
</trkpt>
<trkpt lat="45.993808" lon="11.19203">
<time>2020-09-27T14:03:08Z</time>
</trkpt>
<trkpt lat="45.993796" lon="11.192055">
<time>2020-09-27T14:03:09Z</time>
</trkpt>
<trkpt lat="45.99379" lon="11.192071">
<time>2020-09-27T14:03:10Z</time>
</trkpt>
<trkpt lat="45.99379" lon="11.192086">
<time>2020-09-27T14:03:11Z</time>
</trkpt>
<trkpt lat="45.993791" lon="11.192103">
<time>2020-09-27T14:03:12Z</time>
</trkpt>
<trkpt lat="45.993791" lon="11.192125">
<time>2020-09-27T14:03:13Z</time>
</trkpt>
<trkpt lat="45.993785" lon="11.192151">
<time>2020-09-27T14:03:14Z</time>
</trkpt>
<trkpt lat="45.993778" lon="11.192175">
<time>2020-09-27T14:03:15Z</time>
</trkpt>
<trkpt lat="45.993773" lon="11.1922">
<time>2020-09-27T14:03:16Z</time>
</trkpt>
<trkpt lat="45.993766" lon="11.192221">
<time>2020-09-27T14:03:17Z</time>
</trkpt>
<trkpt lat="45.99376" lon="11.192248">
<time>2020-09-27T14:03:18Z</time>
</trkpt>
<trkpt lat="45.993753" lon="11.19226">
<time>2020-09-27T14:03:19Z</time>
</trkpt>
<trkpt lat="45.993746" lon="11.19227">
<time>2020-09-27T14:03:20Z</time>
</trkpt>
<trkpt lat="45.993746" lon="11.192278">
<time>2020-09-27T14:03:21Z</time>
</trkpt>
<trkpt lat="45.993745" lon="11.192291">
<time>2020-09-27T14:03:22Z</time>
</trkpt>
<trkpt lat="45.99374" lon="11.192311">
<time>2020-09-27T14:03:23Z</time>
</trkpt>
<trkpt lat="45.993736" lon="11.19233">
<time>2020-09-27T14:03:24Z</time>
</trkpt>
<trkpt lat="45.993736" lon="11.192346">
<time>2020-09-27T14:03:25Z</time>
</trkpt>
<trkpt lat="45.993736" lon="11.19236">
<time>2020-09-27T14:03:26Z</time>
</trkpt>
<trkpt lat="45.993728" lon="11.192373">
<time>2020-09-27T14:03:27Z</time>
</trkpt>
<trkpt lat="45.993718" lon="11.192383">
<time>2020-09-27T14:03:28Z</time>
</trkpt>
<trkpt lat="45.993705" lon="11.192393">
<time>2020-09-27T14:03:29Z</time>
</trkpt>
<trkpt lat="45.993693" lon="11.192408">
<time>2020-09-27T14:03:30Z</time>
</trkpt>
<trkpt lat="45.993681" lon="11.192415">
<time>2020-09-27T14:03:31Z</time>
</trkpt>
<trkpt lat="45.99367" lon="11.192415">
<time>2020-09-27T14:03:32Z</time>
</trkpt>
<trkpt lat="45.993658" lon="11.192413">
<time>2020-09-27T14:03:33Z</time>
</trkpt>
<trkpt lat="45.993655" lon="11.192423">
<time>2020-09-27T14:03:34Z</time>
</trkpt>
<trkpt lat="45.993651" lon="11.192441">
<time>2020-09-27T14:03:35Z</time>
</trkpt>
<trkpt lat="45.993648" lon="11.19246">
<time>2020-09-27T14:03:36Z</time>
</trkpt>
<trkpt lat="45.993645" lon="11.192476">
<time>2020-09-27T14:03:37Z</time>
</trkpt>
<trkpt lat="45.993641" lon="11.192491">
<time>2020-09-27T14:03:38Z</time>
</trkpt>
<trkpt lat="45.993641" lon="11.192501">
<time>2020-09-27T14:03:39Z</time>
</trkpt>
<trkpt lat="45.993635" lon="11.192513">
<time>2020-09-27T14:03:40Z</time>
</trkpt>
<trkpt lat="45.99363" lon="11.192525">
<time>2020-09-27T14:03:41Z</time>
</trkpt>
<trkpt lat="45.993623" lon="11.192533">
<time>2020-09-27T14:03:42Z</time>
</trkpt>
<trkpt lat="45.993615" lon="11.192545">
<time>2020-09-27T14:03:43Z</time>
</trkpt>
<trkpt lat="45.993608" lon="11.192555">
<time>2020-09-27T14:03:44Z</time>
</trkpt>
<trkpt lat="45.993603" lon="11.192556">
<time>2020-09-27T14:03:45Z</time>
</trkpt>
<trkpt lat="45.9936" lon="11.19256">
<time>2020-09-27T14:03:46Z</time>
</trkpt>
<trkpt lat="45.993598" lon="11.192566">
<time>2020-09-27T14:03:47Z</time>
</trkpt>
<trkpt lat="45.993596" lon="11.192576">
<time>2020-09-27T14:03:48Z</time>
</trkpt>
<trkpt lat="45.993601" lon="11.192586">
<time>2020-09-27T14:03:49Z</time>
</trkpt>
<trkpt lat="45.993608" lon="11.192598">
<time>2020-09-27T14:03:50Z</time>
</trkpt>
<trkpt lat="45.993613" lon="11.192608">
<time>2020-09-27T14:03:51Z</time>
</trkpt>
<trkpt lat="45.993616" lon="11.192613">
<time>2020-09-27T14:03:52Z</time>
</trkpt>
<trkpt lat="45.993621" lon="11.192616">
<time>2020-09-27T14:03:53Z</time>
</trkpt>
<trkpt lat="45.993621" lon="11.192625">
<time>2020-09-27T14:03:54Z</time>
</trkpt>
<trkpt lat="45.993616" lon="11.192636">
<time>2020-09-27T14:03:55Z</time>
</trkpt>
<trkpt lat="45.99361" lon="11.192645">
<time>2020-09-27T14:03:56Z</time>
</trkpt>
<trkpt lat="45.99361" lon="11.192655">
<time>2020-09-27T14:03:57Z</time>
</trkpt>
<trkpt lat="45.993613" lon="11.192656">
<time>2020-09-27T14:03:58Z</time>
</trkpt>
<trkpt lat="45.993618" lon="11.192658">
<time>2020-09-27T14:03:59Z</time>
</trkpt>
<trkpt lat="45.99362" lon="11.192655">
<time>2020-09-27T14:04:00Z</time>
</trkpt>
<trkpt lat="45.993623" lon="11.192658">
<time>2020-09-27T14:04:01Z</time>
</trkpt>
<trkpt lat="45.993631" lon="11.192661">
<time>2020-09-27T14:04:02Z</time>
</trkpt>
<trkpt lat="45.993628" lon="11.19267">
<time>2020-09-27T14:04:03Z</time>
</trkpt>
<trkpt lat="45.993615" lon="11.19268">
<time>2020-09-27T14:04:04Z</time>
</trkpt>
<trkpt lat="45.993606" lon="11.192691">
<time>2020-09-27T14:04:05Z</time>
</trkpt>
<trkpt lat="45.993601" lon="11.1927">
<time>2020-09-27T14:04:06Z</time>
</trkpt>
<trkpt lat="45.993601" lon="11.1927">
<time>2020-09-27T14:04:07Z</time>
</trkpt>
<trkpt lat="45.993601" lon="11.1927">
<time>2020-09-27T14:04:08Z</time>
</trkpt>
<trkpt lat="45.993601" lon="11.1927">
<time>2020-09-27T14:04:09Z</time>
</trkpt>
<trkpt lat="45.993601" lon="11.1927">
<time>2020-09-27T14:04:10Z</time>
</trkpt>
<trkpt lat="45.993601" lon="11.1927">
<time>2020-09-27T14:04:11Z</time>
</trkpt>
<trkpt lat="45.993601" lon="11.1927">
<time>2020-09-27T14:04:12Z</time>
</trkpt>
<trkpt lat="45.993601" lon="11.1927">
<time>2020-09-27T14:04:13Z</time>
</trkpt>
<trkpt lat="45.993601" lon="11.1927">
<time>2020-09-27T14:04:14Z</time>
</trkpt>
<trkpt lat="45.993601" lon="11.1927">
<time>2020-09-27T14:04:15Z</time>
</trkpt>
<trkpt lat="45.993603" lon="11.1927">
<time>2020-09-27T14:04:16Z</time>
</trkpt>
<trkpt lat="45.993605" lon="11.1927">
<time>2020-09-27T14:04:17Z</time>
</trkpt>
<trkpt lat="45.993605" lon="11.1927">
<time>2020-09-27T14:04:18Z</time>
</trkpt>
<trkpt lat="45.993606" lon="11.1927">
<time>2020-09-27T14:04:19Z</time>
</trkpt>
<trkpt lat="45.993608" lon="11.1927">
<time>2020-09-27T14:04:20Z</time>
</trkpt>
<trkpt lat="45.993611" lon="11.1927">
<time>2020-09-27T14:04:21Z</time>
</trkpt>
<trkpt lat="45.993613" lon="11.1927">
<time>2020-09-27T14:04:22Z</time>
</trkpt>
<trkpt lat="45.993613" lon="11.192698">
<time>2020-09-27T14:04:23Z</time>
</trkpt>
<trkpt lat="45.993615" lon="11.192698">
<time>2020-09-27T14:04:24Z</time>
</trkpt>
<trkpt lat="45.993616" lon="11.192698">
<time>2020-09-27T14:04:25Z</time>
</trkpt>
<trkpt lat="45.993618" lon="11.192698">
<time>2020-09-27T14:04:26Z</time>
</trkpt>
<trkpt lat="45.99362" lon="11.192696">
<time>2020-09-27T14:04:27Z</time>
</trkpt>
<trkpt lat="45.99362" lon="11.192696">
<time>2020-09-27T14:04:28Z</time>
</trkpt>
<trkpt lat="45.993621" lon="11.192696">
<time>2020-09-27T14:04:29Z</time>
</trkpt>
<trkpt lat="45.993623" lon="11.192696">
<time>2020-09-27T14:04:30Z</time>
</trkpt>
<trkpt lat="45.993625" lon="11.192696">
<time>2020-09-27T14:04:31Z</time>
</trkpt>
<trkpt lat="45.993623" lon="11.192696">
<time>2020-09-27T14:04:32Z</time>
</trkpt>
<trkpt lat="45.99362" lon="11.192696">
<time>2020-09-27T14:04:33Z</time>
</trkpt>
<trkpt lat="45.99362" lon="11.192696">
<time>2020-09-27T14:04:34Z</time>
</trkpt>
<trkpt lat="45.99362" lon="11.192698">
<time>2020-09-27T14:04:35Z</time>
</trkpt>
<trkpt lat="45.99362" lon="11.192698">
<time>2020-09-27T14:04:36Z</time>
</trkpt>
<trkpt lat="45.99362" lon="11.192698">
<time>2020-09-27T14:04:37Z</time>
</trkpt>
<trkpt lat="45.99362" lon="11.192698">
<time>2020-09-27T14:04:38Z</time>
</trkpt>
<trkpt lat="45.99362" lon="11.192698">
<time>2020-09-27T14:04:39Z</time>
</trkpt>
<trkpt lat="45.99362" lon="11.192698">
<time>2020-09-27T14:04:40Z</time>
</trkpt>
<trkpt lat="45.99362" lon="11.192698">
<time>2020-09-27T14:04:41Z</time>
</trkpt>
<trkpt lat="45.99362" lon="11.192698">
<time>2020-09-27T14:04:42Z</time>
</trkpt>
<trkpt lat="45.99362" lon="11.192698">
<time>2020-09-27T14:04:43Z</time>
</trkpt>
<trkpt lat="45.99362" lon="11.192698">
<time>2020-09-27T14:04:44Z</time>
</trkpt>
<trkpt lat="45.993611" lon="11.192705">
<time>2020-09-27T14:04:45Z</time>
</trkpt>
<trkpt lat="45.993598" lon="11.192725">
<time>2020-09-27T14:04:46Z</time>
</trkpt>
<trkpt lat="45.993576" lon="11.192731">
<time>2020-09-27T14:04:47Z</time>
</trkpt>
<trkpt lat="45.993563" lon="11.192715">
<time>2020-09-27T14:04:48Z</time>
</trkpt>
<trkpt lat="45.99354" lon="11.192695">
<time>2020-09-27T14:04:49Z</time>
</trkpt>
<trkpt lat="45.993526" lon="11.192691">
<time>2020-09-27T14:04:50Z</time>
</trkpt>
<trkpt lat="45.993525" lon="11.192673">
<time>2020-09-27T14:04:51Z</time>
</trkpt>
<trkpt lat="45.993523" lon="11.19267">
<time>2020-09-27T14:04:52Z</time>
</trkpt>
<trkpt lat="45.993523" lon="11.192671">
<time>2020-09-27T14:04:53Z</time>
</trkpt>
<trkpt lat="45.993516" lon="11.192671">
<time>2020-09-27T14:04:54Z</time>
</trkpt>
<trkpt lat="45.99352" lon="11.192663">
<time>2020-09-27T14:04:55Z</time>
</trkpt>
<trkpt lat="45.993525" lon="11.192653">
<time>2020-09-27T14:04:56Z</time>
</trkpt>
<trkpt lat="45.993528" lon="11.192645">
<time>2020-09-27T14:04:57Z</time>
</trkpt>
<trkpt lat="45.993528" lon="11.192638">
<time>2020-09-27T14:04:58Z</time>
</trkpt>
<trkpt lat="45.993525" lon="11.192631">
<time>2020-09-27T14:04:59Z</time>
</trkpt>
<trkpt lat="45.993523" lon="11.192623">
<time>2020-09-27T14:05:00Z</time>
</trkpt>
<trkpt lat="45.993518" lon="11.192615">
<time>2020-09-27T14:05:01Z</time>
</trkpt>
<trkpt lat="45.993513" lon="11.192616">
<time>2020-09-27T14:05:02Z</time>
</trkpt>
<trkpt lat="45.993508" lon="11.192626">
<time>2020-09-27T14:05:03Z</time>
</trkpt>
<trkpt lat="45.993508" lon="11.19264">
<time>2020-09-27T14:05:04Z</time>
</trkpt>
<trkpt lat="45.993515" lon="11.192661">
<time>2020-09-27T14:05:05Z</time>
</trkpt>
<trkpt lat="45.993508" lon="11.192671">
<time>2020-09-27T14:05:06Z</time>
</trkpt>
<trkpt lat="45.9935" lon="11.192668">
<time>2020-09-27T14:05:07Z</time>
</trkpt>
<trkpt lat="45.993498" lon="11.192658">
<time>2020-09-27T14:05:08Z</time>
</trkpt>
<trkpt lat="45.9935" lon="11.19265">
<time>2020-09-27T14:05:09Z</time>
</trkpt>
<trkpt lat="45.993501" lon="11.192641">
<time>2020-09-27T14:05:10Z</time>
</trkpt>
<trkpt lat="45.993501" lon="11.192641">
<time>2020-09-27T14:05:11Z</time>
</trkpt>
<trkpt lat="45.993501" lon="11.192641">
<time>2020-09-27T14:05:12Z</time>
</trkpt>
<trkpt lat="45.993501" lon="11.192641">
<time>2020-09-27T14:05:13Z</time>
</trkpt>
<trkpt lat="45.993501" lon="11.192641">
<time>2020-09-27T14:05:14Z</time>
</trkpt>
<trkpt lat="45.993501" lon="11.192641">
<time>2020-09-27T14:05:15Z</time>
</trkpt>
<trkpt lat="45.993501" lon="11.192641">
<time>2020-09-27T14:05:16Z</time>
</trkpt>
<trkpt lat="45.993501" lon="11.192641">
<time>2020-09-27T14:05:17Z</time>
</trkpt>
<trkpt lat="45.993501" lon="11.192641">
<time>2020-09-27T14:05:18Z</time>
</trkpt>
<trkpt lat="45.993501" lon="11.192641">
<time>2020-09-27T14:05:19Z</time>
</trkpt>
<trkpt lat="45.993501" lon="11.192641">
<time>2020-09-27T14:05:20Z</time>
</trkpt>
<trkpt lat="45.993505" lon="11.192641">
<time>2020-09-27T14:05:21Z</time>
</trkpt>
<trkpt lat="45.993508" lon="11.192641">
<time>2020-09-27T14:05:22Z</time>
</trkpt>
<trkpt lat="45.993508" lon="11.192641">
<time>2020-09-27T14:05:23Z</time>
</trkpt>
<trkpt lat="45.993508" lon="11.192641">
<time>2020-09-27T14:05:24Z</time>
</trkpt>
<trkpt lat="45.99351" lon="11.192641">
<time>2020-09-27T14:05:25Z</time>
</trkpt>
<trkpt lat="45.993513" lon="11.192641">
<time>2020-09-27T14:05:26Z</time>
</trkpt>
<trkpt lat="45.993513" lon="11.192641">
<time>2020-09-27T14:05:27Z</time>
</trkpt>
<trkpt lat="45.993515" lon="11.192641">
<time>2020-09-27T14:05:28Z</time>
</trkpt>
<trkpt lat="45.993515" lon="11.192641">
<time>2020-09-27T14:05:29Z</time>
</trkpt>
<trkpt lat="45.993515" lon="11.192641">
<time>2020-09-27T14:05:30Z</time>
</trkpt>
<trkpt lat="45.993515" lon="11.192643">
<time>2020-09-27T14:05:31Z</time>
</trkpt>
<trkpt lat="45.993515" lon="11.192646">
<time>2020-09-27T14:05:32Z</time>
</trkpt>
<trkpt lat="45.993515" lon="11.192646">
<time>2020-09-27T14:05:33Z</time>
</trkpt>
<trkpt lat="45.993515" lon="11.192646">
<time>2020-09-27T14:05:34Z</time>
</trkpt>
<trkpt lat="45.993515" lon="11.192646">
<time>2020-09-27T14:05:35Z</time>
</trkpt>
<trkpt lat="45.993515" lon="11.192646">
<time>2020-09-27T14:05:36Z</time>
</trkpt>
<trkpt lat="45.993515" lon="11.192643">
<time>2020-09-27T14:05:37Z</time>
</trkpt>
<trkpt lat="45.993515" lon="11.192641">
<time>2020-09-27T14:05:38Z</time>
</trkpt>
<trkpt lat="45.993515" lon="11.19264">
<time>2020-09-27T14:05:39Z</time>
</trkpt>
<trkpt lat="45.993515" lon="11.19264">
<time>2020-09-27T14:05:40Z</time>
</trkpt>
<trkpt lat="45.99351" lon="11.19263">
<time>2020-09-27T14:05:41Z</time>
</trkpt>
<trkpt lat="45.993503" lon="11.192606">
<time>2020-09-27T14:05:42Z</time>
</trkpt>
<trkpt lat="45.993495" lon="11.192581">
<time>2020-09-27T14:05:43Z</time>
</trkpt>
<trkpt lat="45.993486" lon="11.192553">
<time>2020-09-27T14:05:44Z</time>
</trkpt>
<trkpt lat="45.99348" lon="11.192523">
<time>2020-09-27T14:05:45Z</time>
</trkpt>
<trkpt lat="45.993481" lon="11.1925">
<time>2020-09-27T14:05:46Z</time>
</trkpt>
<trkpt lat="45.993483" lon="11.192476">
<time>2020-09-27T14:05:47Z</time>
</trkpt>
<trkpt lat="45.993483" lon="11.192446">
<time>2020-09-27T14:05:48Z</time>
</trkpt>
<trkpt lat="45.993481" lon="11.192416">
<time>2020-09-27T14:05:49Z</time>
</trkpt>
<trkpt lat="45.993485" lon="11.192388">
<time>2020-09-27T14:05:50Z</time>
</trkpt>
<trkpt lat="45.993486" lon="11.192368">
<time>2020-09-27T14:05:51Z</time>
</trkpt>
<trkpt lat="45.99349" lon="11.192356">
<time>2020-09-27T14:05:52Z</time>
</trkpt>
<trkpt lat="45.993483" lon="11.192341">
<time>2020-09-27T14:05:53Z</time>
</trkpt>
<trkpt lat="45.993478" lon="11.19232">
<time>2020-09-27T14:05:54Z</time>
</trkpt>
<trkpt lat="45.993473" lon="11.192306">
<time>2020-09-27T14:05:55Z</time>
</trkpt>
<trkpt lat="45.993471" lon="11.192305">
<time>2020-09-27T14:05:56Z</time>
</trkpt>
<trkpt lat="45.99347" lon="11.192296">
<time>2020-09-27T14:05:57Z</time>
</trkpt>
<trkpt lat="45.993466" lon="11.192295">
<time>2020-09-27T14:05:58Z</time>
</trkpt>
<trkpt lat="45.993465" lon="11.192298">
<time>2020-09-27T14:05:59Z</time>
</trkpt>
<trkpt lat="45.993465" lon="11.192301">
<time>2020-09-27T14:06:00Z</time>
</trkpt>
<trkpt lat="45.99346" lon="11.192293">
<time>2020-09-27T14:06:01Z</time>
</trkpt>
<trkpt lat="45.993461" lon="11.192288">
<time>2020-09-27T14:06:02Z</time>
</trkpt>
<trkpt lat="45.993463" lon="11.192286">
<time>2020-09-27T14:06:03Z</time>
</trkpt>
<trkpt lat="45.993465" lon="11.192293">
<time>2020-09-27T14:06:04Z</time>
</trkpt>
<trkpt lat="45.993466" lon="11.192293">
<time>2020-09-27T14:06:05Z</time>
</trkpt>
<trkpt lat="45.993468" lon="11.192291">
<time>2020-09-27T14:06:06Z</time>
</trkpt>
<trkpt lat="45.99347" lon="11.192291">
<time>2020-09-27T14:06:07Z</time>
</trkpt>
<trkpt lat="45.99347" lon="11.192291">
<time>2020-09-27T14:06:08Z</time>
</trkpt>
<trkpt lat="45.99347" lon="11.192291">
<time>2020-09-27T14:06:09Z</time>
</trkpt>
<trkpt lat="45.99347" lon="11.192291">
<time>2020-09-27T14:06:10Z</time>
</trkpt>
<trkpt lat="45.99347" lon="11.192291">
<time>2020-09-27T14:06:11Z</time>
</trkpt>
<trkpt lat="45.99347" lon="11.192291">
<time>2020-09-27T14:06:12Z</time>
</trkpt>
<trkpt lat="45.99347" lon="11.192291">
<time>2020-09-27T14:06:13Z</time>
</trkpt>
<trkpt lat="45.99347" lon="11.192291">
<time>2020-09-27T14:06:14Z</time>
</trkpt>
<trkpt lat="45.99347" lon="11.192291">
<time>2020-09-27T14:06:15Z</time>
</trkpt>
<trkpt lat="45.993473" lon="11.192286">
<time>2020-09-27T14:06:16Z</time>
</trkpt>
<trkpt lat="45.99349" lon="11.192271">
<time>2020-09-27T14:06:17Z</time>
</trkpt>
<trkpt lat="45.993501" lon="11.192255">
<time>2020-09-27T14:06:18Z</time>
</trkpt>
<trkpt lat="45.993506" lon="11.192236">
<time>2020-09-27T14:06:19Z</time>
</trkpt>
<trkpt lat="45.993513" lon="11.192208">
<time>2020-09-27T14:06:20Z</time>
</trkpt>
<trkpt lat="45.993516" lon="11.192176">
<time>2020-09-27T14:06:21Z</time>
</trkpt>
<trkpt lat="45.993525" lon="11.192145">
<time>2020-09-27T14:06:22Z</time>
</trkpt>
<trkpt lat="45.993535" lon="11.192108">
<time>2020-09-27T14:06:23Z</time>
</trkpt>
<trkpt lat="45.993551" lon="11.19207">
<time>2020-09-27T14:06:24Z</time>
</trkpt>
<trkpt lat="45.993571" lon="11.192038">
<time>2020-09-27T14:06:25Z</time>
</trkpt>
<trkpt lat="45.993593" lon="11.192013">
<time>2020-09-27T14:06:26Z</time>
</trkpt>
<trkpt lat="45.99361" lon="11.191996">
<time>2020-09-27T14:06:27Z</time>
</trkpt>
<trkpt lat="45.993625" lon="11.191981">
<time>2020-09-27T14:06:28Z</time>
</trkpt>
<trkpt lat="45.993643" lon="11.191971">
<time>2020-09-27T14:06:29Z</time>
</trkpt>
<trkpt lat="45.993665" lon="11.191963">
<time>2020-09-27T14:06:30Z</time>
</trkpt>
<trkpt lat="45.993686" lon="11.19196">
<time>2020-09-27T14:06:31Z</time>
</trkpt>
<trkpt lat="45.993701" lon="11.191973">
<time>2020-09-27T14:06:32Z</time>
</trkpt>
<trkpt lat="45.993706" lon="11.191996">
<time>2020-09-27T14:06:33Z</time>
</trkpt>
<trkpt lat="45.99371" lon="11.192028">
<time>2020-09-27T14:06:34Z</time>
</trkpt>
<trkpt lat="45.993713" lon="11.192056">
<time>2020-09-27T14:06:35Z</time>
</trkpt>
<trkpt lat="45.993716" lon="11.192081">
<time>2020-09-27T14:06:36Z</time>
</trkpt>
<trkpt lat="45.99372" lon="11.192103">
<time>2020-09-27T14:06:37Z</time>
</trkpt>
<trkpt lat="45.99372" lon="11.192125">
<time>2020-09-27T14:06:38Z</time>
</trkpt>
<trkpt lat="45.99372" lon="11.192148">
<time>2020-09-27T14:06:39Z</time>
</trkpt>
<trkpt lat="45.993723" lon="11.192176">
<time>2020-09-27T14:06:40Z</time>
</trkpt>
<trkpt lat="45.993726" lon="11.1922">
<time>2020-09-27T14:06:41Z</time>
</trkpt>
<trkpt lat="45.993733" lon="11.19223">
<time>2020-09-27T14:06:42Z</time>
</trkpt>
<trkpt lat="45.993746" lon="11.192256">
<time>2020-09-27T14:06:43Z</time>
</trkpt>
<trkpt lat="45.993761" lon="11.192285">
<time>2020-09-27T14:06:44Z</time>
</trkpt>
<trkpt lat="45.993778" lon="11.192315">
<time>2020-09-27T14:06:45Z</time>
</trkpt>
<trkpt lat="45.993798" lon="11.192346">
<time>2020-09-27T14:06:46Z</time>
</trkpt>
<trkpt lat="45.993821" lon="11.192378">
<time>2020-09-27T14:06:47Z</time>
</trkpt>
<trkpt lat="45.993851" lon="11.192406">
<time>2020-09-27T14:06:48Z</time>
</trkpt>
<trkpt lat="45.993885" lon="11.192446">
<time>2020-09-27T14:06:49Z</time>
</trkpt>
<trkpt lat="45.993905" lon="11.192483">
<time>2020-09-27T14:06:50Z</time>
</trkpt>
<trkpt lat="45.993936" lon="11.192525">
<time>2020-09-27T14:06:51Z</time>
</trkpt>
<trkpt lat="45.993968" lon="11.192556">
<time>2020-09-27T14:06:52Z</time>
</trkpt>
<trkpt lat="45.994005" lon="11.19259">
<time>2020-09-27T14:06:53Z</time>
</trkpt>
<trkpt lat="45.994045" lon="11.192628">
<time>2020-09-27T14:06:54Z</time>
</trkpt>
<trkpt lat="45.994076" lon="11.192681">
<time>2020-09-27T14:06:55Z</time>
</trkpt>
<trkpt lat="45.994113" lon="11.192731">
<time>2020-09-27T14:06:56Z</time>
</trkpt>
<trkpt lat="45.994151" lon="11.192773">
<time>2020-09-27T14:06:57Z</time>
</trkpt>
<trkpt lat="45.99418" lon="11.19281">
<time>2020-09-27T14:06:58Z</time>
</trkpt>
<trkpt lat="45.994205" lon="11.192843">
<time>2020-09-27T14:06:59Z</time>
</trkpt>
<trkpt lat="45.99423" lon="11.19287">
<time>2020-09-27T14:07:00Z</time>
</trkpt>
<trkpt lat="45.994255" lon="11.192895">
<time>2020-09-27T14:07:01Z</time>
</trkpt>
<trkpt lat="45.994276" lon="11.19292">
<time>2020-09-27T14:07:02Z</time>
</trkpt>
<trkpt lat="45.994298" lon="11.192941">
<time>2020-09-27T14:07:03Z</time>
</trkpt>
<trkpt lat="45.994318" lon="11.192963">
<time>2020-09-27T14:07:04Z</time>
</trkpt>
<trkpt lat="45.994341" lon="11.192995">
<time>2020-09-27T14:07:05Z</time>
</trkpt>
<trkpt lat="45.99436" lon="11.193028">
<time>2020-09-27T14:07:06Z</time>
</trkpt>
<trkpt lat="45.994376" lon="11.193058">
<time>2020-09-27T14:07:07Z</time>
</trkpt>
<trkpt lat="45.994393" lon="11.19308">
<time>2020-09-27T14:07:08Z</time>
</trkpt>
<trkpt lat="45.99441" lon="11.193093">
<time>2020-09-27T14:07:09Z</time>
</trkpt>
<trkpt lat="45.994433" lon="11.193111">
<time>2020-09-27T14:07:10Z</time>
</trkpt>
<trkpt lat="45.994453" lon="11.193133">
<time>2020-09-27T14:07:11Z</time>
</trkpt>
<trkpt lat="45.994471" lon="11.193146">
<time>2020-09-27T14:07:12Z</time>
</trkpt>
<trkpt lat="45.994493" lon="11.193151">
<time>2020-09-27T14:07:13Z</time>
</trkpt>
<trkpt lat="45.994523" lon="11.193163">
<time>2020-09-27T14:07:14Z</time>
</trkpt>
<trkpt lat="45.994553" lon="11.193181">
<time>2020-09-27T14:07:15Z</time>
</trkpt>
<trkpt lat="45.994578" lon="11.1932">
<time>2020-09-27T14:07:16Z</time>
</trkpt>
<trkpt lat="45.994596" lon="11.193213">
<time>2020-09-27T14:07:17Z</time>
</trkpt>
<trkpt lat="45.994603" lon="11.193218">
<time>2020-09-27T14:07:18Z</time>
</trkpt>
<trkpt lat="45.994603" lon="11.193218">
<time>2020-09-27T14:07:19Z</time>
</trkpt>
<trkpt lat="45.994603" lon="11.193216">
<time>2020-09-27T14:07:20Z</time>
</trkpt>
<trkpt lat="45.994603" lon="11.19322">
<time>2020-09-27T14:07:21Z</time>
</trkpt>
<trkpt lat="45.994608" lon="11.193221">
<time>2020-09-27T14:07:22Z</time>
</trkpt>
<trkpt lat="45.994611" lon="11.193223">
<time>2020-09-27T14:07:23Z</time>
</trkpt>
<trkpt lat="45.994616" lon="11.19322">
<time>2020-09-27T14:07:24Z</time>
</trkpt>
<trkpt lat="45.994621" lon="11.193218">
<time>2020-09-27T14:07:25Z</time>
</trkpt>
<trkpt lat="45.994625" lon="11.193228">
<time>2020-09-27T14:07:26Z</time>
</trkpt>
<trkpt lat="45.994623" lon="11.193243">
<time>2020-09-27T14:07:27Z</time>
</trkpt>
<trkpt lat="45.99462" lon="11.193255">
<time>2020-09-27T14:07:28Z</time>
</trkpt>
<trkpt lat="45.994616" lon="11.193266">
<time>2020-09-27T14:07:29Z</time>
</trkpt>
<trkpt lat="45.99462" lon="11.19327">
<time>2020-09-27T14:07:30Z</time>
</trkpt>
<trkpt lat="45.994626" lon="11.193275">
<time>2020-09-27T14:07:31Z</time>
</trkpt>
<trkpt lat="45.994635" lon="11.19328">
<time>2020-09-27T14:07:32Z</time>
</trkpt>
<trkpt lat="45.994645" lon="11.193285">
<time>2020-09-27T14:07:33Z</time>
</trkpt>
<trkpt lat="45.994656" lon="11.19329">
<time>2020-09-27T14:07:34Z</time>
</trkpt>
<trkpt lat="45.994668" lon="11.193296">
<time>2020-09-27T14:07:35Z</time>
</trkpt>
<trkpt lat="45.99468" lon="11.193305">
<time>2020-09-27T14:07:36Z</time>
</trkpt>
<trkpt lat="45.994688" lon="11.193315">
<time>2020-09-27T14:07:37Z</time>
</trkpt>
<trkpt lat="45.994693" lon="11.19332">
<time>2020-09-27T14:07:38Z</time>
</trkpt>
<trkpt lat="45.994695" lon="11.193323">
<time>2020-09-27T14:07:39Z</time>
</trkpt>
<trkpt lat="45.994695" lon="11.193325">
<time>2020-09-27T14:07:40Z</time>
</trkpt>
<trkpt lat="45.994698" lon="11.193325">
<time>2020-09-27T14:07:41Z</time>
</trkpt>
<trkpt lat="45.994701" lon="11.193323">
<time>2020-09-27T14:07:42Z</time>
</trkpt>
<trkpt lat="45.994705" lon="11.193321">
<time>2020-09-27T14:07:43Z</time>
</trkpt>
<trkpt lat="45.994711" lon="11.193318">
<time>2020-09-27T14:07:44Z</time>
</trkpt>
<trkpt lat="45.994721" lon="11.193316">
<time>2020-09-27T14:07:45Z</time>
</trkpt>
<trkpt lat="45.994736" lon="11.193308">
<time>2020-09-27T14:07:46Z</time>
</trkpt>
<trkpt lat="45.99475" lon="11.1933">
<time>2020-09-27T14:07:47Z</time>
</trkpt>
<trkpt lat="45.99476" lon="11.193296">
<time>2020-09-27T14:07:48Z</time>
</trkpt>
<trkpt lat="45.994771" lon="11.19329">
<time>2020-09-27T14:07:49Z</time>
</trkpt>
<trkpt lat="45.994785" lon="11.193286">
<time>2020-09-27T14:07:50Z</time>
</trkpt>
<trkpt lat="45.994798" lon="11.193286">
<time>2020-09-27T14:07:51Z</time>
</trkpt>
<trkpt lat="45.994806" lon="11.19329">
<time>2020-09-27T14:07:52Z</time>
</trkpt>
<trkpt lat="45.994811" lon="11.193288">
<time>2020-09-27T14:07:53Z</time>
</trkpt>
<trkpt lat="45.994813" lon="11.193288">
<time>2020-09-27T14:07:54Z</time>
</trkpt>
<trkpt lat="45.994818" lon="11.19328">
<time>2020-09-27T14:07:55Z</time>
</trkpt>
<trkpt lat="45.99482" lon="11.193273">
<time>2020-09-27T14:07:56Z</time>
</trkpt>
<trkpt lat="45.994816" lon="11.193268">
<time>2020-09-27T14:07:57Z</time>
</trkpt>
<trkpt lat="45.994811" lon="11.193263">
<time>2020-09-27T14:07:58Z</time>
</trkpt>
<trkpt lat="45.994808" lon="11.193256">
<time>2020-09-27T14:07:59Z</time>
</trkpt>
<trkpt lat="45.99481" lon="11.193251">
<time>2020-09-27T14:08:00Z</time>
</trkpt>
<trkpt lat="45.994811" lon="11.193233">
<time>2020-09-27T14:08:01Z</time>
</trkpt>
<trkpt lat="45.994815" lon="11.193213">
<time>2020-09-27T14:08:02Z</time>
</trkpt>
<trkpt lat="45.99482" lon="11.193196">
<time>2020-09-27T14:08:03Z</time>
</trkpt>
<trkpt lat="45.994821" lon="11.193183">
<time>2020-09-27T14:08:04Z</time>
</trkpt>
<trkpt lat="45.994821" lon="11.193173">
<time>2020-09-27T14:08:05Z</time>
</trkpt>
<trkpt lat="45.99482" lon="11.193168">
<time>2020-09-27T14:08:06Z</time>
</trkpt>
<trkpt lat="45.994815" lon="11.193158">
<time>2020-09-27T14:08:07Z</time>
</trkpt>
<trkpt lat="45.994815" lon="11.193156">
<time>2020-09-27T14:08:08Z</time>
</trkpt>
<trkpt lat="45.994821" lon="11.193161">
<time>2020-09-27T14:08:09Z</time>
</trkpt>
<trkpt lat="45.994828" lon="11.193168">
<time>2020-09-27T14:08:10Z</time>
</trkpt>
<trkpt lat="45.99484" lon="11.193175">
<time>2020-09-27T14:08:11Z</time>
</trkpt>
<trkpt lat="45.994843" lon="11.193175">
<time>2020-09-27T14:08:12Z</time>
</trkpt>
<trkpt lat="45.994848" lon="11.193171">
<time>2020-09-27T14:08:13Z</time>
</trkpt>
<trkpt lat="45.994851" lon="11.193168">
<time>2020-09-27T14:08:14Z</time>
</trkpt>
<trkpt lat="45.994855" lon="11.193166">
<time>2020-09-27T14:08:15Z</time>
</trkpt>
<trkpt lat="45.99486" lon="11.193166">
<time>2020-09-27T14:08:16Z</time>
</trkpt>
<trkpt lat="45.994863" lon="11.193163">
<time>2020-09-27T14:08:17Z</time>
</trkpt>
<trkpt lat="45.99487" lon="11.193158">
<time>2020-09-27T14:08:18Z</time>
</trkpt>
<trkpt lat="45.994881" lon="11.193151">
<time>2020-09-27T14:08:19Z</time>
</trkpt>
<trkpt lat="45.99489" lon="11.193143">
<time>2020-09-27T14:08:20Z</time>
</trkpt>
<trkpt lat="45.994896" lon="11.193135">
<time>2020-09-27T14:08:21Z</time>
</trkpt>
<trkpt lat="45.9949" lon="11.193128">
<time>2020-09-27T14:08:22Z</time>
</trkpt>
<trkpt lat="45.994903" lon="11.193121">
<time>2020-09-27T14:08:23Z</time>
</trkpt>
<trkpt lat="45.994906" lon="11.193115">
<time>2020-09-27T14:08:24Z</time>
</trkpt>
<trkpt lat="45.994911" lon="11.193105">
<time>2020-09-27T14:08:25Z</time>
</trkpt>
<trkpt lat="45.994913" lon="11.193093">
<time>2020-09-27T14:08:26Z</time>
</trkpt>
<trkpt lat="45.99492" lon="11.19309">
<time>2020-09-27T14:08:27Z</time>
</trkpt>
<trkpt lat="45.994926" lon="11.193088">
<time>2020-09-27T14:08:28Z</time>
</trkpt>
<trkpt lat="45.994935" lon="11.193088">
<time>2020-09-27T14:08:29Z</time>
</trkpt>
<trkpt lat="45.994941" lon="11.193085">
<time>2020-09-27T14:08:30Z</time>
</trkpt>
<trkpt lat="45.994951" lon="11.193083">
<time>2020-09-27T14:08:31Z</time>
</trkpt>
<trkpt lat="45.994953" lon="11.193078">
<time>2020-09-27T14:08:32Z</time>
</trkpt>
<trkpt lat="45.994956" lon="11.193075">
<time>2020-09-27T14:08:33Z</time>
</trkpt>
<trkpt lat="45.99496" lon="11.193076">
<time>2020-09-27T14:08:34Z</time>
</trkpt>
<trkpt lat="45.994961" lon="11.193075">
<time>2020-09-27T14:08:35Z</time>
</trkpt>
<trkpt lat="45.994966" lon="11.193076">
<time>2020-09-27T14:08:36Z</time>
</trkpt>
<trkpt lat="45.994971" lon="11.193073">
<time>2020-09-27T14:08:37Z</time>
</trkpt>
<trkpt lat="45.994978" lon="11.193073">
<time>2020-09-27T14:08:38Z</time>
</trkpt>
<trkpt lat="45.994983" lon="11.193066">
<time>2020-09-27T14:08:39Z</time>
</trkpt>
<trkpt lat="45.994986" lon="11.19306">
<time>2020-09-27T14:08:40Z</time>
</trkpt>
<trkpt lat="45.994993" lon="11.193056">
<time>2020-09-27T14:08:41Z</time>
</trkpt>
<trkpt lat="45.995005" lon="11.193043">
<time>2020-09-27T14:08:42Z</time>
</trkpt>
<trkpt lat="45.995021" lon="11.19303">
<time>2020-09-27T14:08:43Z</time>
</trkpt>
<trkpt lat="45.99503" lon="11.193023">
<time>2020-09-27T14:08:44Z</time>
</trkpt>
<trkpt lat="45.995033" lon="11.193025">
<time>2020-09-27T14:08:45Z</time>
</trkpt>
<trkpt lat="45.99503" lon="11.193021">
<time>2020-09-27T14:08:46Z</time>
</trkpt>
<trkpt lat="45.99503" lon="11.193023">
<time>2020-09-27T14:08:47Z</time>
</trkpt>
<trkpt lat="45.99503" lon="11.193025">
<time>2020-09-27T14:08:48Z</time>
</trkpt>
<trkpt lat="45.995035" lon="11.193028">
<time>2020-09-27T14:08:49Z</time>
</trkpt>
<trkpt lat="45.995036" lon="11.193028">
<time>2020-09-27T14:08:50Z</time>
</trkpt>
<trkpt lat="45.995038" lon="11.193021">
<time>2020-09-27T14:08:51Z</time>
</trkpt>
<trkpt lat="45.995048" lon="11.193011">
<time>2020-09-27T14:08:52Z</time>
</trkpt>
<trkpt lat="45.995055" lon="11.193001">
<time>2020-09-27T14:08:53Z</time>
</trkpt>
<trkpt lat="45.99506" lon="11.192991">
<time>2020-09-27T14:08:54Z</time>
</trkpt>
<trkpt lat="45.995065" lon="11.192985">
<time>2020-09-27T14:08:55Z</time>
</trkpt>
<trkpt lat="45.995065" lon="11.192976">
<time>2020-09-27T14:08:56Z</time>
</trkpt>
<trkpt lat="45.99507" lon="11.192975">
<time>2020-09-27T14:08:57Z</time>
</trkpt>
<trkpt lat="45.99507" lon="11.192978">
<time>2020-09-27T14:08:58Z</time>
</trkpt>
<trkpt lat="45.995076" lon="11.192983">
<time>2020-09-27T14:08:59Z</time>
</trkpt>
<trkpt lat="45.995093" lon="11.192983">
<time>2020-09-27T14:09:00Z</time>
</trkpt>
<trkpt lat="45.995105" lon="11.192978">
<time>2020-09-27T14:09:01Z</time>
</trkpt>
<trkpt lat="45.99511" lon="11.19297">
<time>2020-09-27T14:09:02Z</time>
</trkpt>
<trkpt lat="45.995118" lon="11.192966">
<time>2020-09-27T14:09:03Z</time>
</trkpt>
<trkpt lat="45.995125" lon="11.192965">
<time>2020-09-27T14:09:04Z</time>
</trkpt>
<trkpt lat="45.99513" lon="11.19296">
<time>2020-09-27T14:09:05Z</time>
</trkpt>
<trkpt lat="45.995123" lon="11.192951">
<time>2020-09-27T14:09:06Z</time>
</trkpt>
<trkpt lat="45.995113" lon="11.192943">
<time>2020-09-27T14:09:07Z</time>
</trkpt>
<trkpt lat="45.995108" lon="11.192933">
<time>2020-09-27T14:09:08Z</time>
</trkpt>
<trkpt lat="45.995108" lon="11.192926">
<time>2020-09-27T14:09:09Z</time>
</trkpt>
<trkpt lat="45.99511" lon="11.192921">
<time>2020-09-27T14:09:10Z</time>
</trkpt>
<trkpt lat="45.99511" lon="11.192918">
<time>2020-09-27T14:09:11Z</time>
</trkpt>
<trkpt lat="45.995111" lon="11.192916">
<time>2020-09-27T14:09:12Z</time>
</trkpt>
<trkpt lat="45.995116" lon="11.192916">
<time>2020-09-27T14:09:13Z</time>
</trkpt>
<trkpt lat="45.995121" lon="11.192918">
<time>2020-09-27T14:09:14Z</time>
</trkpt>
<trkpt lat="45.995125" lon="11.192918">
<time>2020-09-27T14:09:15Z</time>
</trkpt>
<trkpt lat="45.995126" lon="11.192913">
<time>2020-09-27T14:09:16Z</time>
</trkpt>
<trkpt lat="45.995128" lon="11.19291">
<time>2020-09-27T14:09:17Z</time>
</trkpt>
<trkpt lat="45.995135" lon="11.192901">
<time>2020-09-27T14:09:18Z</time>
</trkpt>
<trkpt lat="45.99514" lon="11.192893">
<time>2020-09-27T14:09:19Z</time>
</trkpt>
<trkpt lat="45.995148" lon="11.192878">
<time>2020-09-27T14:09:20Z</time>
</trkpt>
<trkpt lat="45.995156" lon="11.192861">
<time>2020-09-27T14:09:21Z</time>
</trkpt>
<trkpt lat="45.995156" lon="11.19285">
<time>2020-09-27T14:09:22Z</time>
</trkpt>
<trkpt lat="45.995153" lon="11.192838">
<time>2020-09-27T14:09:23Z</time>
</trkpt>
<trkpt lat="45.995146" lon="11.192826">
<time>2020-09-27T14:09:24Z</time>
</trkpt>
<trkpt lat="45.995145" lon="11.192815">
<time>2020-09-27T14:09:25Z</time>
</trkpt>
<trkpt lat="45.995143" lon="11.192808">
<time>2020-09-27T14:09:26Z</time>
</trkpt>
<trkpt lat="45.995146" lon="11.192798">
<time>2020-09-27T14:09:27Z</time>
</trkpt>
<trkpt lat="45.99515" lon="11.192785">
<time>2020-09-27T14:09:28Z</time>
</trkpt>
<trkpt lat="45.995153" lon="11.192768">
<time>2020-09-27T14:09:29Z</time>
</trkpt>
<trkpt lat="45.99516" lon="11.192741">
<time>2020-09-27T14:09:30Z</time>
</trkpt>
<trkpt lat="45.995171" lon="11.192721">
<time>2020-09-27T14:09:31Z</time>
</trkpt>
<trkpt lat="45.995183" lon="11.192706">
<time>2020-09-27T14:09:32Z</time>
</trkpt>
<trkpt lat="45.99519" lon="11.192693">
<time>2020-09-27T14:09:33Z</time>
</trkpt>
<trkpt lat="45.995193" lon="11.192685">
<time>2020-09-27T14:09:34Z</time>
</trkpt>
<trkpt lat="45.995205" lon="11.192678">
<time>2020-09-27T14:09:35Z</time>
</trkpt>
<trkpt lat="45.995215" lon="11.192675">
<time>2020-09-27T14:09:36Z</time>
</trkpt>
<trkpt lat="45.995216" lon="11.192666">
<time>2020-09-27T14:09:37Z</time>
</trkpt>
<trkpt lat="45.99522" lon="11.192653">
<time>2020-09-27T14:09:38Z</time>
</trkpt>
<trkpt lat="45.995223" lon="11.192645">
<time>2020-09-27T14:09:39Z</time>
</trkpt>
<trkpt lat="45.995223" lon="11.19264">
<time>2020-09-27T14:09:40Z</time>
</trkpt>
<trkpt lat="45.99523" lon="11.192628">
<time>2020-09-27T14:09:41Z</time>
</trkpt>
<trkpt lat="45.995241" lon="11.192605">
<time>2020-09-27T14:09:42Z</time>
</trkpt>
<trkpt lat="45.995253" lon="11.192576">
<time>2020-09-27T14:09:43Z</time>
</trkpt>
<trkpt lat="45.995261" lon="11.192543">
<time>2020-09-27T14:09:44Z</time>
</trkpt>
<trkpt lat="45.995265" lon="11.192508">
<time>2020-09-27T14:09:45Z</time>
</trkpt>
<trkpt lat="45.995266" lon="11.192478">
<time>2020-09-27T14:09:46Z</time>
</trkpt>
<trkpt lat="45.995265" lon="11.19245">
<time>2020-09-27T14:09:47Z</time>
</trkpt>
<trkpt lat="45.995261" lon="11.192421">
<time>2020-09-27T14:09:48Z</time>
</trkpt>
<trkpt lat="45.995263" lon="11.192393">
<time>2020-09-27T14:09:49Z</time>
</trkpt>
<trkpt lat="45.995261" lon="11.192365">
<time>2020-09-27T14:09:50Z</time>
</trkpt>
<trkpt lat="45.995265" lon="11.192338">
<time>2020-09-27T14:09:51Z</time>
</trkpt>
<trkpt lat="45.995271" lon="11.192318">
<time>2020-09-27T14:09:52Z</time>
</trkpt>
<trkpt lat="45.995285" lon="11.1923">
<time>2020-09-27T14:09:53Z</time>
</trkpt>
<trkpt lat="45.995296" lon="11.192271">
<time>2020-09-27T14:09:54Z</time>
</trkpt>
<trkpt lat="45.995311" lon="11.192248">
<time>2020-09-27T14:09:55Z</time>
</trkpt>
<trkpt lat="45.995323" lon="11.192236">
<time>2020-09-27T14:09:56Z</time>
</trkpt>
<trkpt lat="45.995338" lon="11.192225">
<time>2020-09-27T14:09:57Z</time>
</trkpt>
<trkpt lat="45.995351" lon="11.192211">
<time>2020-09-27T14:09:58Z</time>
</trkpt>
<trkpt lat="45.995366" lon="11.192198">
<time>2020-09-27T14:09:59Z</time>
</trkpt>
<trkpt lat="45.995383" lon="11.192183">
<time>2020-09-27T14:10:00Z</time>
</trkpt>
<trkpt lat="45.995393" lon="11.19215">
<time>2020-09-27T14:10:01Z</time>
</trkpt>
<trkpt lat="45.99541" lon="11.19212">
<time>2020-09-27T14:10:02Z</time>
</trkpt>
<trkpt lat="45.995421" lon="11.192103">
<time>2020-09-27T14:10:03Z</time>
</trkpt>
<trkpt lat="45.995433" lon="11.192085">
<time>2020-09-27T14:10:04Z</time>
</trkpt>
<trkpt lat="45.995438" lon="11.19207">
<time>2020-09-27T14:10:05Z</time>
</trkpt>
<trkpt lat="45.995436" lon="11.192053">
<time>2020-09-27T14:10:06Z</time>
</trkpt>
<trkpt lat="45.995435" lon="11.192038">
<time>2020-09-27T14:10:07Z</time>
</trkpt>
<trkpt lat="45.995436" lon="11.192021">
<time>2020-09-27T14:10:08Z</time>
</trkpt>
<trkpt lat="45.99544" lon="11.192008">
<time>2020-09-27T14:10:09Z</time>
</trkpt>
<trkpt lat="45.995446" lon="11.191991">
<time>2020-09-27T14:10:10Z</time>
</trkpt>
<trkpt lat="45.995453" lon="11.19198">
<time>2020-09-27T14:10:11Z</time>
</trkpt>
<trkpt lat="45.995458" lon="11.191968">
<time>2020-09-27T14:10:12Z</time>
</trkpt>
<trkpt lat="45.995465" lon="11.191955">
<time>2020-09-27T14:10:13Z</time>
</trkpt>
<trkpt lat="45.995473" lon="11.19194">
<time>2020-09-27T14:10:14Z</time>
</trkpt>
<trkpt lat="45.995481" lon="11.191923">
<time>2020-09-27T14:10:15Z</time>
</trkpt>
<trkpt lat="45.995491" lon="11.191903">
<time>2020-09-27T14:10:16Z</time>
</trkpt>
<trkpt lat="45.995496" lon="11.191885">
<time>2020-09-27T14:10:17Z</time>
</trkpt>
<trkpt lat="45.995491" lon="11.191868">
<time>2020-09-27T14:10:18Z</time>
</trkpt>
<trkpt lat="45.99549" lon="11.19186">
<time>2020-09-27T14:10:19Z</time>
</trkpt>
<trkpt lat="45.99549" lon="11.191856">
<time>2020-09-27T14:10:20Z</time>
</trkpt>
<trkpt lat="45.995493" lon="11.191856">
<time>2020-09-27T14:10:21Z</time>
</trkpt>
<trkpt lat="45.995503" lon="11.191865">
<time>2020-09-27T14:10:22Z</time>
</trkpt>
<trkpt lat="45.995513" lon="11.19187">
<time>2020-09-27T14:10:23Z</time>
</trkpt>
<trkpt lat="45.995523" lon="11.191876">
<time>2020-09-27T14:10:24Z</time>
</trkpt>
<trkpt lat="45.995538" lon="11.191886">
<time>2020-09-27T14:10:25Z</time>
</trkpt>
<trkpt lat="45.995556" lon="11.191905">
<time>2020-09-27T14:10:26Z</time>
</trkpt>
<trkpt lat="45.995571" lon="11.191923">
<time>2020-09-27T14:10:27Z</time>
</trkpt>
<trkpt lat="45.995585" lon="11.191938">
<time>2020-09-27T14:10:28Z</time>
</trkpt>
<trkpt lat="45.995596" lon="11.191951">
<time>2020-09-27T14:10:29Z</time>
</trkpt>
<trkpt lat="45.99561" lon="11.191961">
<time>2020-09-27T14:10:30Z</time>
</trkpt>
<trkpt lat="45.995621" lon="11.191971">
<time>2020-09-27T14:10:31Z</time>
</trkpt>
<trkpt lat="45.99563" lon="11.191985">
<time>2020-09-27T14:10:32Z</time>
</trkpt>
<trkpt lat="45.99564" lon="11.191995">
<time>2020-09-27T14:10:33Z</time>
</trkpt>
<trkpt lat="45.995651" lon="11.191995">
<time>2020-09-27T14:10:34Z</time>
</trkpt>
<trkpt lat="45.995661" lon="11.191993">
<time>2020-09-27T14:10:35Z</time>
</trkpt>
<trkpt lat="45.995678" lon="11.191993">
<time>2020-09-27T14:10:36Z</time>
</trkpt>
<trkpt lat="45.995696" lon="11.191993">
<time>2020-09-27T14:10:37Z</time>
</trkpt>
<trkpt lat="45.995715" lon="11.191995">
<time>2020-09-27T14:10:38Z</time>
</trkpt>
<trkpt lat="45.995728" lon="11.192003">
<time>2020-09-27T14:10:39Z</time>
</trkpt>
<trkpt lat="45.995746" lon="11.192011">
<time>2020-09-27T14:10:40Z</time>
</trkpt>
<trkpt lat="45.995765" lon="11.19202">
<time>2020-09-27T14:10:41Z</time>
</trkpt>
<trkpt lat="45.99578" lon="11.192025">
<time>2020-09-27T14:10:42Z</time>
</trkpt>
<trkpt lat="45.995791" lon="11.192031">
<time>2020-09-27T14:10:43Z</time>
</trkpt>
<trkpt lat="45.995805" lon="11.192038">
<time>2020-09-27T14:10:44Z</time>
</trkpt>
<trkpt lat="45.995813" lon="11.192051">
<time>2020-09-27T14:10:45Z</time>
</trkpt>
<trkpt lat="45.995821" lon="11.192061">
<time>2020-09-27T14:10:46Z</time>
</trkpt>
<trkpt lat="45.995831" lon="11.192068">
<time>2020-09-27T14:10:47Z</time>
</trkpt>
<trkpt lat="45.995841" lon="11.192073">
<time>2020-09-27T14:10:48Z</time>
</trkpt>
<trkpt lat="45.995855" lon="11.192076">
<time>2020-09-27T14:10:49Z</time>
</trkpt>
<trkpt lat="45.995866" lon="11.192086">
<time>2020-09-27T14:10:50Z</time>
</trkpt>
<trkpt lat="45.995871" lon="11.192096">
<time>2020-09-27T14:10:51Z</time>
</trkpt>
<trkpt lat="45.995878" lon="11.192106">
<time>2020-09-27T14:10:52Z</time>
</trkpt>
<trkpt lat="45.995878" lon="11.19212">
<time>2020-09-27T14:10:53Z</time>
</trkpt>
<trkpt lat="45.99588" lon="11.192135">
<time>2020-09-27T14:10:54Z</time>
</trkpt>
<trkpt lat="45.995883" lon="11.19215">
<time>2020-09-27T14:10:55Z</time>
</trkpt>
<trkpt lat="45.995898" lon="11.192166">
<time>2020-09-27T14:10:56Z</time>
</trkpt>
<trkpt lat="45.99591" lon="11.192183">
<time>2020-09-27T14:10:57Z</time>
</trkpt>
<trkpt lat="45.995913" lon="11.192203">
<time>2020-09-27T14:10:58Z</time>
</trkpt>
<trkpt lat="45.995916" lon="11.192225">
<time>2020-09-27T14:10:59Z</time>
</trkpt>
<trkpt lat="45.99592" lon="11.192246">
<time>2020-09-27T14:11:00Z</time>
</trkpt>
<trkpt lat="45.99592" lon="11.192263">
<time>2020-09-27T14:11:01Z</time>
</trkpt>
<trkpt lat="45.995918" lon="11.192281">
<time>2020-09-27T14:11:02Z</time>
</trkpt>
<trkpt lat="45.995926" lon="11.192298">
<time>2020-09-27T14:11:03Z</time>
</trkpt>
<trkpt lat="45.995935" lon="11.192306">
<time>2020-09-27T14:11:04Z</time>
</trkpt>
<trkpt lat="45.995951" lon="11.192308">
<time>2020-09-27T14:11:05Z</time>
</trkpt>
<trkpt lat="45.995965" lon="11.192318">
<time>2020-09-27T14:11:06Z</time>
</trkpt>
<trkpt lat="45.995968" lon="11.192338">
<time>2020-09-27T14:11:07Z</time>
</trkpt>
<trkpt lat="45.995965" lon="11.192361">
<time>2020-09-27T14:11:08Z</time>
</trkpt>
<trkpt lat="45.995956" lon="11.192383">
<time>2020-09-27T14:11:09Z</time>
</trkpt>
<trkpt lat="45.995955" lon="11.192403">
<time>2020-09-27T14:11:10Z</time>
</trkpt>
<trkpt lat="45.995958" lon="11.192421">
<time>2020-09-27T14:11:11Z</time>
</trkpt>
<trkpt lat="45.995971" lon="11.192446">
<time>2020-09-27T14:11:12Z</time>
</trkpt>
<trkpt lat="45.995988" lon="11.192466">
<time>2020-09-27T14:11:13Z</time>
</trkpt>
<trkpt lat="45.99601" lon="11.192495">
<time>2020-09-27T14:11:14Z</time>
</trkpt>
<trkpt lat="45.99603" lon="11.192518">
<time>2020-09-27T14:11:15Z</time>
</trkpt>
<trkpt lat="45.996051" lon="11.19255">
<time>2020-09-27T14:11:16Z</time>
</trkpt>
<trkpt lat="45.996066" lon="11.192566">
<time>2020-09-27T14:11:17Z</time>
</trkpt>
<trkpt lat="45.996081" lon="11.19258">
<time>2020-09-27T14:11:18Z</time>
</trkpt>
<trkpt lat="45.996098" lon="11.192588">
<time>2020-09-27T14:11:19Z</time>
</trkpt>
<trkpt lat="45.996116" lon="11.192595">
<time>2020-09-27T14:11:20Z</time>
</trkpt>
<trkpt lat="45.99613" lon="11.1926">
<time>2020-09-27T14:11:21Z</time>
</trkpt>
<trkpt lat="45.996146" lon="11.1926">
<time>2020-09-27T14:11:22Z</time>
</trkpt>
<trkpt lat="45.996163" lon="11.192596">
<time>2020-09-27T14:11:23Z</time>
</trkpt>
<trkpt lat="45.99618" lon="11.19259">
<time>2020-09-27T14:11:24Z</time>
</trkpt>
<trkpt lat="45.996195" lon="11.19259">
<time>2020-09-27T14:11:25Z</time>
</trkpt>
<trkpt lat="45.996215" lon="11.1926">
<time>2020-09-27T14:11:26Z</time>
</trkpt>
<trkpt lat="45.99624" lon="11.192606">
<time>2020-09-27T14:11:27Z</time>
</trkpt>
<trkpt lat="45.996266" lon="11.1926">
<time>2020-09-27T14:11:28Z</time>
</trkpt>
<trkpt lat="45.996291" lon="11.192583">
<time>2020-09-27T14:11:29Z</time>
</trkpt>
<trkpt lat="45.996318" lon="11.192561">
<time>2020-09-27T14:11:30Z</time>
</trkpt>
</trkseg>
<name>Pannarita</name>
</trk>
</gpx>